<?xml version="1.0" encoding="UTF-8" standalone="no" ?>
<gpx xmlns="http://www.topografix.com/GPX/1/1" xmlns:xsi="http://www.w3.org/2001/XMLSchema-instance" xsi:schemaLocation="http://www.topografix.com/GPX/1/1 http://www.topografix.com/GPX/1/1/gpx.xsd" version="1.1" creator="VisuGPX - https://www.visugpx.com">
  <metadata>
    <name>Les Pijoulats</name>
    <desc><![CDATA[Randonnée familiale au départ de Paulhac.]]></desc>
  </metadata>
  <trk>
    <name><![CDATA[20190512171100-mkhW6]]></name>
    <trkseg>
      <trkpt lat="45.00674" lon="2.90499">
        <ele>1117.3</ele>
        <time>2019-05-12T12:05:17Z</time>
      </trkpt>
      <trkpt lat="45.00676" lon="2.90502">
        <ele>1117.4</ele>
        <time>2019-05-12T12:05:30Z</time>
      </trkpt>
      <trkpt lat="45.00673" lon="2.90505">
        <ele>1117.5</ele>
        <time>2019-05-12T12:05:40Z</time>
      </trkpt>
      <trkpt lat="45.00675" lon="2.90508">
        <ele>1117.5</ele>
        <time>2019-05-12T12:05:47Z</time>
      </trkpt>
      <trkpt lat="45.00676" lon="2.90511">
        <ele>1117.6</ele>
        <time>2019-05-12T12:06:37Z</time>
      </trkpt>
      <trkpt lat="45.00677" lon="2.90516">
        <ele>1117.7</ele>
        <time>2019-05-12T12:06:44Z</time>
      </trkpt>
      <trkpt lat="45.00676" lon="2.90519">
        <ele>1117.8</ele>
        <time>2019-05-12T12:06:46Z</time>
      </trkpt>
      <trkpt lat="45.00674" lon="2.90517">
        <ele>1117.8</ele>
        <time>2019-05-12T12:06:56Z</time>
      </trkpt>
      <trkpt lat="45.00673" lon="2.90512">
        <ele>1117.9</ele>
        <time>2019-05-12T12:06:59Z</time>
      </trkpt>
      <trkpt lat="45.00672" lon="2.90508">
        <ele>1118</ele>
        <time>2019-05-12T12:07:01Z</time>
      </trkpt>
      <trkpt lat="45.00673" lon="2.90504">
        <ele>1118.1</ele>
        <time>2019-05-12T12:07:03Z</time>
      </trkpt>
      <trkpt lat="45.00673" lon="2.90498">
        <ele>1118.2</ele>
        <time>2019-05-12T12:07:06Z</time>
      </trkpt>
      <trkpt lat="45.00673" lon="2.90494">
        <ele>1118.3</ele>
        <time>2019-05-12T12:07:10Z</time>
      </trkpt>
      <trkpt lat="45.00671" lon="2.90491">
        <ele>1118.4</ele>
        <time>2019-05-12T12:07:13Z</time>
      </trkpt>
      <trkpt lat="45.00673" lon="2.90487">
        <ele>1118.4</ele>
        <time>2019-05-12T12:07:19Z</time>
      </trkpt>
      <trkpt lat="45.00676" lon="2.90485">
        <ele>1118.5</ele>
        <time>2019-05-12T12:07:22Z</time>
      </trkpt>
      <trkpt lat="45.00675" lon="2.9048">
        <ele>1118.6</ele>
        <time>2019-05-12T12:07:25Z</time>
      </trkpt>
      <trkpt lat="45.00673" lon="2.90476">
        <ele>1118.7</ele>
        <time>2019-05-12T12:07:28Z</time>
      </trkpt>
      <trkpt lat="45.00675" lon="2.90474">
        <ele>1118.8</ele>
        <time>2019-05-12T12:07:33Z</time>
      </trkpt>
      <trkpt lat="45.00678" lon="2.9047">
        <ele>1118.9</ele>
        <time>2019-05-12T12:07:36Z</time>
      </trkpt>
      <trkpt lat="45.00681" lon="2.90467">
        <ele>1119</ele>
        <time>2019-05-12T12:07:39Z</time>
      </trkpt>
      <trkpt lat="45.0068" lon="2.90462">
        <ele>1119.2</ele>
        <time>2019-05-12T12:07:43Z</time>
      </trkpt>
      <trkpt lat="45.0068" lon="2.90456">
        <ele>1119.4</ele>
        <time>2019-05-12T12:07:46Z</time>
      </trkpt>
      <trkpt lat="45.00678" lon="2.90451">
        <ele>1119.6</ele>
        <time>2019-05-12T12:07:49Z</time>
      </trkpt>
      <trkpt lat="45.00676" lon="2.90447">
        <ele>1119.8</ele>
        <time>2019-05-12T12:07:52Z</time>
      </trkpt>
      <trkpt lat="45.00674" lon="2.90444">
        <ele>1119.9</ele>
        <time>2019-05-12T12:07:55Z</time>
      </trkpt>
      <trkpt lat="45.00673" lon="2.9044">
        <ele>1120.1</ele>
        <time>2019-05-12T12:08:01Z</time>
      </trkpt>
      <trkpt lat="45.00674" lon="2.90436">
        <ele>1120.2</ele>
        <time>2019-05-12T12:08:06Z</time>
      </trkpt>
      <trkpt lat="45.00676" lon="2.90432">
        <ele>1120.4</ele>
        <time>2019-05-12T12:08:09Z</time>
      </trkpt>
      <trkpt lat="45.00678" lon="2.90428">
        <ele>1120.5</ele>
        <time>2019-05-12T12:08:12Z</time>
      </trkpt>
      <trkpt lat="45.00677" lon="2.90424">
        <ele>1120.7</ele>
        <time>2019-05-12T12:08:16Z</time>
      </trkpt>
      <trkpt lat="45.00676" lon="2.90419">
        <ele>1120.9</ele>
        <time>2019-05-12T12:08:19Z</time>
      </trkpt>
      <trkpt lat="45.00674" lon="2.90416">
        <ele>1121</ele>
        <time>2019-05-12T12:08:22Z</time>
      </trkpt>
      <trkpt lat="45.00672" lon="2.90413">
        <ele>1121.2</ele>
        <time>2019-05-12T12:08:26Z</time>
      </trkpt>
      <trkpt lat="45.0067" lon="2.90409">
        <ele>1122.1</ele>
        <time>2019-05-12T12:08:30Z</time>
      </trkpt>
      <trkpt lat="45.00669" lon="2.90405">
        <ele>1122.2</ele>
        <time>2019-05-12T12:08:34Z</time>
      </trkpt>
      <trkpt lat="45.00667" lon="2.90401">
        <ele>1122.3</ele>
        <time>2019-05-12T12:08:37Z</time>
      </trkpt>
      <trkpt lat="45.00666" lon="2.90397">
        <ele>1122.5</ele>
        <time>2019-05-12T12:08:40Z</time>
      </trkpt>
      <trkpt lat="45.00667" lon="2.90392">
        <ele>1122.6</ele>
        <time>2019-05-12T12:08:44Z</time>
      </trkpt>
      <trkpt lat="45.00666" lon="2.90388">
        <ele>1122.7</ele>
        <time>2019-05-12T12:08:48Z</time>
      </trkpt>
      <trkpt lat="45.00664" lon="2.90385">
        <ele>1122.9</ele>
        <time>2019-05-12T12:08:57Z</time>
      </trkpt>
      <trkpt lat="45.00662" lon="2.90381">
        <ele>1123.1</ele>
        <time>2019-05-12T12:09:01Z</time>
      </trkpt>
      <trkpt lat="45.00662" lon="2.90376">
        <ele>1123.3</ele>
        <time>2019-05-12T12:09:04Z</time>
      </trkpt>
      <trkpt lat="45.00661" lon="2.90372">
        <ele>1123.5</ele>
        <time>2019-05-12T12:09:08Z</time>
      </trkpt>
      <trkpt lat="45.00658" lon="2.90371">
        <ele>1123.7</ele>
        <time>2019-05-12T12:09:19Z</time>
      </trkpt>
      <trkpt lat="45.00658" lon="2.90367">
        <ele>1123.9</ele>
        <time>2019-05-12T12:09:36Z</time>
      </trkpt>
      <trkpt lat="45.00657" lon="2.90363">
        <ele>1124.1</ele>
        <time>2019-05-12T12:09:40Z</time>
      </trkpt>
      <trkpt lat="45.00655" lon="2.90359">
        <ele>1124.3</ele>
        <time>2019-05-12T12:09:46Z</time>
      </trkpt>
      <trkpt lat="45.00654" lon="2.90355">
        <ele>1124.5</ele>
        <time>2019-05-12T12:09:49Z</time>
      </trkpt>
      <trkpt lat="45.00652" lon="2.90352">
        <ele>1124.6</ele>
        <time>2019-05-12T12:09:54Z</time>
      </trkpt>
      <trkpt lat="45.00649" lon="2.90351">
        <ele>1124.8</ele>
        <time>2019-05-12T12:09:57Z</time>
      </trkpt>
      <trkpt lat="45.00647" lon="2.90348">
        <ele>1124.9</ele>
        <time>2019-05-12T12:10:01Z</time>
      </trkpt>
      <trkpt lat="45.00647" lon="2.90344">
        <ele>1125.1</ele>
        <time>2019-05-12T12:10:06Z</time>
      </trkpt>
      <trkpt lat="45.00649" lon="2.90341">
        <ele>1125.2</ele>
        <time>2019-05-12T12:10:09Z</time>
      </trkpt>
      <trkpt lat="45.00649" lon="2.90336">
        <ele>1125.4</ele>
        <time>2019-05-12T12:10:12Z</time>
      </trkpt>
      <trkpt lat="45.00648" lon="2.90332">
        <ele>1125.7</ele>
        <time>2019-05-12T12:10:15Z</time>
      </trkpt>
      <trkpt lat="45.00646" lon="2.90329">
        <ele>1125.8</ele>
        <time>2019-05-12T12:10:18Z</time>
      </trkpt>
      <trkpt lat="45.00645" lon="2.90325">
        <ele>1125.9</ele>
        <time>2019-05-12T12:10:24Z</time>
      </trkpt>
      <trkpt lat="45.00643" lon="2.90322">
        <ele>1126</ele>
        <time>2019-05-12T12:10:27Z</time>
      </trkpt>
      <trkpt lat="45.00641" lon="2.90318">
        <ele>1126.1</ele>
        <time>2019-05-12T12:10:30Z</time>
      </trkpt>
      <trkpt lat="45.00639" lon="2.90315">
        <ele>1126.2</ele>
        <time>2019-05-12T12:10:33Z</time>
      </trkpt>
      <trkpt lat="45.00637" lon="2.90312">
        <ele>1126.2</ele>
        <time>2019-05-12T12:10:36Z</time>
      </trkpt>
      <trkpt lat="45.00634" lon="2.90309">
        <ele>1126.3</ele>
        <time>2019-05-12T12:10:40Z</time>
      </trkpt>
      <trkpt lat="45.00631" lon="2.90307">
        <ele>1126.4</ele>
        <time>2019-05-12T12:10:44Z</time>
      </trkpt>
      <trkpt lat="45.00628" lon="2.90304">
        <ele>1126.5</ele>
        <time>2019-05-12T12:10:47Z</time>
      </trkpt>
      <trkpt lat="45.00625" lon="2.90302">
        <ele>1126.6</ele>
        <time>2019-05-12T12:10:50Z</time>
      </trkpt>
      <trkpt lat="45.00623" lon="2.903">
        <ele>1126.6</ele>
        <time>2019-05-12T12:10:53Z</time>
      </trkpt>
      <trkpt lat="45.0062" lon="2.90298">
        <ele>1126.7</ele>
        <time>2019-05-12T12:10:57Z</time>
      </trkpt>
      <trkpt lat="45.00617" lon="2.90296">
        <ele>1126.7</ele>
        <time>2019-05-12T12:11:01Z</time>
      </trkpt>
      <trkpt lat="45.00614" lon="2.90294">
        <ele>1126.8</ele>
        <time>2019-05-12T12:11:05Z</time>
      </trkpt>
      <trkpt lat="45.00613" lon="2.9029">
        <ele>1126.8</ele>
        <time>2019-05-12T12:11:30Z</time>
      </trkpt>
      <trkpt lat="45.0061" lon="2.90289">
        <ele>1126.9</ele>
        <time>2019-05-12T12:11:35Z</time>
      </trkpt>
      <trkpt lat="45.00607" lon="2.90288">
        <ele>1126.9</ele>
        <time>2019-05-12T12:11:39Z</time>
      </trkpt>
      <trkpt lat="45.00604" lon="2.90287">
        <ele>1127</ele>
        <time>2019-05-12T12:11:42Z</time>
      </trkpt>
      <trkpt lat="45.00601" lon="2.90286">
        <ele>1127</ele>
        <time>2019-05-12T12:11:45Z</time>
      </trkpt>
      <trkpt lat="45.00598" lon="2.90285">
        <ele>1127.1</ele>
        <time>2019-05-12T12:11:48Z</time>
      </trkpt>
      <trkpt lat="45.00594" lon="2.90283">
        <ele>1127.1</ele>
        <time>2019-05-12T12:11:52Z</time>
      </trkpt>
      <trkpt lat="45.00591" lon="2.90282">
        <ele>1127.2</ele>
        <time>2019-05-12T12:11:55Z</time>
      </trkpt>
      <trkpt lat="45.00588" lon="2.9028">
        <ele>1127.2</ele>
        <time>2019-05-12T12:11:59Z</time>
      </trkpt>
      <trkpt lat="45.00584" lon="2.90279">
        <ele>1127.3</ele>
        <time>2019-05-12T12:12:03Z</time>
      </trkpt>
      <trkpt lat="45.00581" lon="2.90278">
        <ele>1127.3</ele>
        <time>2019-05-12T12:12:07Z</time>
      </trkpt>
      <trkpt lat="45.00578" lon="2.90276">
        <ele>1127.4</ele>
        <time>2019-05-12T12:12:11Z</time>
      </trkpt>
      <trkpt lat="45.00575" lon="2.90275">
        <ele>1127.4</ele>
        <time>2019-05-12T12:12:14Z</time>
      </trkpt>
      <trkpt lat="45.00572" lon="2.90273">
        <ele>1127.5</ele>
        <time>2019-05-12T12:12:17Z</time>
      </trkpt>
      <trkpt lat="45.00569" lon="2.90272">
        <ele>1127.5</ele>
        <time>2019-05-12T12:12:31Z</time>
      </trkpt>
      <trkpt lat="45.00566" lon="2.90271">
        <ele>1127.6</ele>
        <time>2019-05-12T12:12:35Z</time>
      </trkpt>
      <trkpt lat="45.00564" lon="2.90269">
        <ele>1127.6</ele>
        <time>2019-05-12T12:12:39Z</time>
      </trkpt>
      <trkpt lat="45.00561" lon="2.90267">
        <ele>1127.7</ele>
        <time>2019-05-12T12:12:42Z</time>
      </trkpt>
      <trkpt lat="45.00559" lon="2.90265">
        <ele>1127.7</ele>
        <time>2019-05-12T12:12:45Z</time>
      </trkpt>
      <trkpt lat="45.00556" lon="2.90262">
        <ele>1127.8</ele>
        <time>2019-05-12T12:12:49Z</time>
      </trkpt>
      <trkpt lat="45.00554" lon="2.90259">
        <ele>1127.9</ele>
        <time>2019-05-12T12:12:56Z</time>
      </trkpt>
      <trkpt lat="45.00551" lon="2.90258">
        <ele>1127.9</ele>
        <time>2019-05-12T12:13:01Z</time>
      </trkpt>
      <trkpt lat="45.00548" lon="2.90256">
        <ele>1128</ele>
        <time>2019-05-12T12:13:05Z</time>
      </trkpt>
      <trkpt lat="45.00546" lon="2.90254">
        <ele>1128</ele>
        <time>2019-05-12T12:13:08Z</time>
      </trkpt>
      <trkpt lat="45.00543" lon="2.90253">
        <ele>1128.1</ele>
        <time>2019-05-12T12:13:12Z</time>
      </trkpt>
      <trkpt lat="45.0054" lon="2.90254">
        <ele>1128.1</ele>
        <time>2019-05-12T12:13:15Z</time>
      </trkpt>
      <trkpt lat="45.00537" lon="2.90254">
        <ele>1128.2</ele>
        <time>2019-05-12T12:13:18Z</time>
      </trkpt>
      <trkpt lat="45.00533" lon="2.90254">
        <ele>1128.3</ele>
        <time>2019-05-12T12:13:21Z</time>
      </trkpt>
      <trkpt lat="45.0053" lon="2.90253">
        <ele>1128.3</ele>
        <time>2019-05-12T12:13:24Z</time>
      </trkpt>
      <trkpt lat="45.00527" lon="2.90252">
        <ele>1128.4</ele>
        <time>2019-05-12T12:13:28Z</time>
      </trkpt>
      <trkpt lat="45.00524" lon="2.90252">
        <ele>1128.5</ele>
        <time>2019-05-12T12:13:32Z</time>
      </trkpt>
      <trkpt lat="45.00522" lon="2.9025">
        <ele>1128.5</ele>
        <time>2019-05-12T12:13:37Z</time>
      </trkpt>
      <trkpt lat="45.00519" lon="2.90248">
        <ele>1128.6</ele>
        <time>2019-05-12T12:13:40Z</time>
      </trkpt>
      <trkpt lat="45.00516" lon="2.90246">
        <ele>1128.6</ele>
        <time>2019-05-12T12:13:44Z</time>
      </trkpt>
      <trkpt lat="45.00512" lon="2.90245">
        <ele>1128.7</ele>
        <time>2019-05-12T12:13:49Z</time>
      </trkpt>
      <trkpt lat="45.00509" lon="2.90244">
        <ele>1128.8</ele>
        <time>2019-05-12T12:13:52Z</time>
      </trkpt>
      <trkpt lat="45.00506" lon="2.90243">
        <ele>1128.9</ele>
        <time>2019-05-12T12:13:55Z</time>
      </trkpt>
      <trkpt lat="45.00502" lon="2.90242">
        <ele>1128.9</ele>
        <time>2019-05-12T12:13:58Z</time>
      </trkpt>
      <trkpt lat="45.00499" lon="2.9024">
        <ele>1129</ele>
        <time>2019-05-12T12:14:01Z</time>
      </trkpt>
      <trkpt lat="45.00496" lon="2.90239">
        <ele>1129.1</ele>
        <time>2019-05-12T12:14:05Z</time>
      </trkpt>
      <trkpt lat="45.00497" lon="2.90234">
        <ele>1129.2</ele>
        <time>2019-05-12T12:14:10Z</time>
      </trkpt>
      <trkpt lat="45.00496" lon="2.90231">
        <ele>1129.3</ele>
        <time>2019-05-12T12:14:14Z</time>
      </trkpt>
      <trkpt lat="45.00493" lon="2.90228">
        <ele>1129.4</ele>
        <time>2019-05-12T12:14:18Z</time>
      </trkpt>
      <trkpt lat="45.00491" lon="2.90225">
        <ele>1129.5</ele>
        <time>2019-05-12T12:14:24Z</time>
      </trkpt>
      <trkpt lat="45.00488" lon="2.90224">
        <ele>1129.7</ele>
        <time>2019-05-12T12:14:28Z</time>
      </trkpt>
      <trkpt lat="45.00484" lon="2.90224">
        <ele>1129.8</ele>
        <time>2019-05-12T12:14:31Z</time>
      </trkpt>
      <trkpt lat="45.00481" lon="2.90223">
        <ele>1129.9</ele>
        <time>2019-05-12T12:14:35Z</time>
      </trkpt>
      <trkpt lat="45.00479" lon="2.90222">
        <ele>1130</ele>
        <time>2019-05-12T12:14:38Z</time>
      </trkpt>
      <trkpt lat="45.00476" lon="2.9022">
        <ele>1130.1</ele>
        <time>2019-05-12T12:14:42Z</time>
      </trkpt>
      <trkpt lat="45.00473" lon="2.90218">
        <ele>1130.3</ele>
        <time>2019-05-12T12:14:48Z</time>
      </trkpt>
      <trkpt lat="45.00471" lon="2.90216">
        <ele>1130.4</ele>
        <time>2019-05-12T12:14:53Z</time>
      </trkpt>
      <trkpt lat="45.00469" lon="2.90214">
        <ele>1130.5</ele>
        <time>2019-05-12T12:14:57Z</time>
      </trkpt>
      <trkpt lat="45.00466" lon="2.9021">
        <ele>1130.7</ele>
        <time>2019-05-12T12:15:06Z</time>
      </trkpt>
      <trkpt lat="45.00464" lon="2.90208">
        <ele>1130.8</ele>
        <time>2019-05-12T12:15:09Z</time>
      </trkpt>
      <trkpt lat="45.00461" lon="2.90205">
        <ele>1131</ele>
        <time>2019-05-12T12:15:13Z</time>
      </trkpt>
      <trkpt lat="45.00458" lon="2.90204">
        <ele>1131.2</ele>
        <time>2019-05-12T12:15:17Z</time>
      </trkpt>
      <trkpt lat="45.00455" lon="2.90203">
        <ele>1131.4</ele>
        <time>2019-05-12T12:15:20Z</time>
      </trkpt>
      <trkpt lat="45.00452" lon="2.90201">
        <ele>1131.6</ele>
        <time>2019-05-12T12:15:23Z</time>
      </trkpt>
      <trkpt lat="45.0045" lon="2.90198">
        <ele>1131.9</ele>
        <time>2019-05-12T12:15:26Z</time>
      </trkpt>
      <trkpt lat="45.00448" lon="2.90195">
        <ele>1132</ele>
        <time>2019-05-12T12:15:29Z</time>
      </trkpt>
      <trkpt lat="45.00445" lon="2.90192">
        <ele>1132.3</ele>
        <time>2019-05-12T12:15:33Z</time>
      </trkpt>
      <trkpt lat="45.00443" lon="2.9019">
        <ele>1132.5</ele>
        <time>2019-05-12T12:15:37Z</time>
      </trkpt>
      <trkpt lat="45.0044" lon="2.90188">
        <ele>1132.8</ele>
        <time>2019-05-12T12:15:42Z</time>
      </trkpt>
      <trkpt lat="45.00438" lon="2.90185">
        <ele>1133</ele>
        <time>2019-05-12T12:15:45Z</time>
      </trkpt>
      <trkpt lat="45.00435" lon="2.90183">
        <ele>1133.3</ele>
        <time>2019-05-12T12:15:49Z</time>
      </trkpt>
      <trkpt lat="45.00432" lon="2.90181">
        <ele>1133.5</ele>
        <time>2019-05-12T12:15:52Z</time>
      </trkpt>
      <trkpt lat="45.00429" lon="2.9018">
        <ele>1133.7</ele>
        <time>2019-05-12T12:15:57Z</time>
      </trkpt>
      <trkpt lat="45.00426" lon="2.90179">
        <ele>1134</ele>
        <time>2019-05-12T12:16:02Z</time>
      </trkpt>
      <trkpt lat="45.00424" lon="2.90177">
        <ele>1134.2</ele>
        <time>2019-05-12T12:16:06Z</time>
      </trkpt>
      <trkpt lat="45.00421" lon="2.90174">
        <ele>1134.5</ele>
        <time>2019-05-12T12:16:10Z</time>
      </trkpt>
      <trkpt lat="45.00419" lon="2.90172">
        <ele>1134.7</ele>
        <time>2019-05-12T12:16:15Z</time>
      </trkpt>
      <trkpt lat="45.00417" lon="2.90169">
        <ele>1135</ele>
        <time>2019-05-12T12:16:20Z</time>
      </trkpt>
      <trkpt lat="45.00414" lon="2.90167">
        <ele>1135.2</ele>
        <time>2019-05-12T12:16:32Z</time>
      </trkpt>
      <trkpt lat="45.00411" lon="2.90166">
        <ele>1135.5</ele>
        <time>2019-05-12T12:16:35Z</time>
      </trkpt>
      <trkpt lat="45.00408" lon="2.90165">
        <ele>1135.8</ele>
        <time>2019-05-12T12:16:39Z</time>
      </trkpt>
      <trkpt lat="45.00405" lon="2.90164">
        <ele>1136</ele>
        <time>2019-05-12T12:16:46Z</time>
      </trkpt>
      <trkpt lat="45.00403" lon="2.90162">
        <ele>1136.3</ele>
        <time>2019-05-12T12:16:54Z</time>
      </trkpt>
      <trkpt lat="45.004" lon="2.9016">
        <ele>1136.5</ele>
        <time>2019-05-12T12:17:19Z</time>
      </trkpt>
      <trkpt lat="45.00398" lon="2.90161">
        <ele>1136.7</ele>
        <time>2019-05-12T12:17:58Z</time>
      </trkpt>
      <trkpt lat="45.00395" lon="2.90158">
        <ele>1136.9</ele>
        <time>2019-05-12T12:18:05Z</time>
      </trkpt>
      <trkpt lat="45.00393" lon="2.90155">
        <ele>1137.2</ele>
        <time>2019-05-12T12:18:10Z</time>
      </trkpt>
      <trkpt lat="45.0039" lon="2.90153">
        <ele>1137.4</ele>
        <time>2019-05-12T12:18:13Z</time>
      </trkpt>
      <trkpt lat="45.00387" lon="2.90151">
        <ele>1137.6</ele>
        <time>2019-05-12T12:18:17Z</time>
      </trkpt>
      <trkpt lat="45.00387" lon="2.90147">
        <ele>1137.9</ele>
        <time>2019-05-12T12:18:21Z</time>
      </trkpt>
      <trkpt lat="45.00384" lon="2.90144">
        <ele>1138.2</ele>
        <time>2019-05-12T12:18:24Z</time>
      </trkpt>
      <trkpt lat="45.00382" lon="2.90141">
        <ele>1138.4</ele>
        <time>2019-05-12T12:18:28Z</time>
      </trkpt>
      <trkpt lat="45.00381" lon="2.90137">
        <ele>1138.6</ele>
        <time>2019-05-12T12:18:31Z</time>
      </trkpt>
      <trkpt lat="45.0038" lon="2.90133">
        <ele>1138.6</ele>
        <time>2019-05-12T12:18:34Z</time>
      </trkpt>
      <trkpt lat="45.00379" lon="2.9013">
        <ele>1138.6</ele>
        <time>2019-05-12T12:18:38Z</time>
      </trkpt>
      <trkpt lat="45.00376" lon="2.90128">
        <ele>1138.6</ele>
        <time>2019-05-12T12:18:42Z</time>
      </trkpt>
      <trkpt lat="45.00373" lon="2.90126">
        <ele>1138.6</ele>
        <time>2019-05-12T12:18:46Z</time>
      </trkpt>
      <trkpt lat="45.00371" lon="2.90122">
        <ele>1138.6</ele>
        <time>2019-05-12T12:18:51Z</time>
      </trkpt>
      <trkpt lat="45.00368" lon="2.90119">
        <ele>1138.6</ele>
        <time>2019-05-12T12:18:56Z</time>
      </trkpt>
      <trkpt lat="45.00365" lon="2.90119">
        <ele>1138.6</ele>
        <time>2019-05-12T12:19:00Z</time>
      </trkpt>
      <trkpt lat="45.00363" lon="2.90116">
        <ele>1138.7</ele>
        <time>2019-05-12T12:19:04Z</time>
      </trkpt>
      <trkpt lat="45.0036" lon="2.90113">
        <ele>1138.7</ele>
        <time>2019-05-12T12:19:08Z</time>
      </trkpt>
      <trkpt lat="45.00357" lon="2.90111">
        <ele>1138.8</ele>
        <time>2019-05-12T12:19:11Z</time>
      </trkpt>
      <trkpt lat="45.00354" lon="2.90109">
        <ele>1138.9</ele>
        <time>2019-05-12T12:19:16Z</time>
      </trkpt>
      <trkpt lat="45.00352" lon="2.90105">
        <ele>1139.1</ele>
        <time>2019-05-12T12:19:20Z</time>
      </trkpt>
      <trkpt lat="45.00349" lon="2.90102">
        <ele>1139.2</ele>
        <time>2019-05-12T12:19:23Z</time>
      </trkpt>
      <trkpt lat="45.00346" lon="2.90101">
        <ele>1139.3</ele>
        <time>2019-05-12T12:19:26Z</time>
      </trkpt>
      <trkpt lat="45.00343" lon="2.90098">
        <ele>1139.5</ele>
        <time>2019-05-12T12:19:29Z</time>
      </trkpt>
      <trkpt lat="45.0034" lon="2.90096">
        <ele>1139.6</ele>
        <time>2019-05-12T12:19:32Z</time>
      </trkpt>
      <trkpt lat="45.00341" lon="2.90092">
        <ele>1139.8</ele>
        <time>2019-05-12T12:19:37Z</time>
      </trkpt>
      <trkpt lat="45.00342" lon="2.90087">
        <ele>1139.9</ele>
        <time>2019-05-12T12:19:41Z</time>
      </trkpt>
      <trkpt lat="45.00341" lon="2.90084">
        <ele>1140</ele>
        <time>2019-05-12T12:19:45Z</time>
      </trkpt>
      <trkpt lat="45.0034" lon="2.9008">
        <ele>1140.1</ele>
        <time>2019-05-12T12:19:48Z</time>
      </trkpt>
      <trkpt lat="45.00338" lon="2.90077">
        <ele>1140.2</ele>
        <time>2019-05-12T12:19:51Z</time>
      </trkpt>
      <trkpt lat="45.00335" lon="2.90077">
        <ele>1140.3</ele>
        <time>2019-05-12T12:19:54Z</time>
      </trkpt>
      <trkpt lat="45.00332" lon="2.90075">
        <ele>1140.4</ele>
        <time>2019-05-12T12:19:57Z</time>
      </trkpt>
      <trkpt lat="45.00329" lon="2.90075">
        <ele>1140.4</ele>
        <time>2019-05-12T12:20:00Z</time>
      </trkpt>
      <trkpt lat="45.00326" lon="2.90072">
        <ele>1140.5</ele>
        <time>2019-05-12T12:20:04Z</time>
      </trkpt>
      <trkpt lat="45.00324" lon="2.90069">
        <ele>1140.5</ele>
        <time>2019-05-12T12:20:08Z</time>
      </trkpt>
      <trkpt lat="45.00324" lon="2.90064">
        <ele>1140.5</ele>
        <time>2019-05-12T12:20:13Z</time>
      </trkpt>
      <trkpt lat="45.00322" lon="2.90061">
        <ele>1140.5</ele>
        <time>2019-05-12T12:20:17Z</time>
      </trkpt>
      <trkpt lat="45.0032" lon="2.90057">
        <ele>1140.5</ele>
        <time>2019-05-12T12:20:22Z</time>
      </trkpt>
      <trkpt lat="45.00318" lon="2.90054">
        <ele>1140.5</ele>
        <time>2019-05-12T12:20:25Z</time>
      </trkpt>
      <trkpt lat="45.00315" lon="2.90051">
        <ele>1140.5</ele>
        <time>2019-05-12T12:20:28Z</time>
      </trkpt>
      <trkpt lat="45.00312" lon="2.90048">
        <ele>1140.5</ele>
        <time>2019-05-12T12:20:31Z</time>
      </trkpt>
      <trkpt lat="45.00309" lon="2.90045">
        <ele>1140.5</ele>
        <time>2019-05-12T12:20:34Z</time>
      </trkpt>
      <trkpt lat="45.00306" lon="2.90042">
        <ele>1140.5</ele>
        <time>2019-05-12T12:20:37Z</time>
      </trkpt>
      <trkpt lat="45.00303" lon="2.9004">
        <ele>1140.6</ele>
        <time>2019-05-12T12:20:40Z</time>
      </trkpt>
      <trkpt lat="45.003" lon="2.90038">
        <ele>1140.6</ele>
        <time>2019-05-12T12:20:43Z</time>
      </trkpt>
      <trkpt lat="45.00297" lon="2.90036">
        <ele>1140.6</ele>
        <time>2019-05-12T12:20:45Z</time>
      </trkpt>
      <trkpt lat="45.00294" lon="2.90034">
        <ele>1140.6</ele>
        <time>2019-05-12T12:20:48Z</time>
      </trkpt>
      <trkpt lat="45.00291" lon="2.90032">
        <ele>1140.6</ele>
        <time>2019-05-12T12:20:51Z</time>
      </trkpt>
      <trkpt lat="45.00287" lon="2.90031">
        <ele>1140.6</ele>
        <time>2019-05-12T12:20:54Z</time>
      </trkpt>
      <trkpt lat="45.00284" lon="2.9003">
        <ele>1140.6</ele>
        <time>2019-05-12T12:20:58Z</time>
      </trkpt>
      <trkpt lat="45.00281" lon="2.90029">
        <ele>1140.7</ele>
        <time>2019-05-12T12:21:01Z</time>
      </trkpt>
      <trkpt lat="45.00277" lon="2.90029">
        <ele>1140.7</ele>
        <time>2019-05-12T12:21:04Z</time>
      </trkpt>
      <trkpt lat="45.00274" lon="2.90028">
        <ele>1140.7</ele>
        <time>2019-05-12T12:21:07Z</time>
      </trkpt>
      <trkpt lat="45.00271" lon="2.90027">
        <ele>1140.7</ele>
        <time>2019-05-12T12:21:10Z</time>
      </trkpt>
      <trkpt lat="45.00268" lon="2.90026">
        <ele>1140.7</ele>
        <time>2019-05-12T12:21:13Z</time>
      </trkpt>
      <trkpt lat="45.00266" lon="2.90023">
        <ele>1140.7</ele>
        <time>2019-05-12T12:21:17Z</time>
      </trkpt>
      <trkpt lat="45.00263" lon="2.90022">
        <ele>1140.7</ele>
        <time>2019-05-12T12:21:21Z</time>
      </trkpt>
      <trkpt lat="45.0026" lon="2.90022">
        <ele>1140.8</ele>
        <time>2019-05-12T12:21:24Z</time>
      </trkpt>
      <trkpt lat="45.00258" lon="2.90021">
        <ele>1140.8</ele>
        <time>2019-05-12T12:21:27Z</time>
      </trkpt>
      <trkpt lat="45.00255" lon="2.90019">
        <ele>1140.9</ele>
        <time>2019-05-12T12:21:31Z</time>
      </trkpt>
      <trkpt lat="45.00253" lon="2.90015">
        <ele>1140.9</ele>
        <time>2019-05-12T12:21:35Z</time>
      </trkpt>
      <trkpt lat="45.0025" lon="2.90012">
        <ele>1141</ele>
        <time>2019-05-12T12:21:41Z</time>
      </trkpt>
      <trkpt lat="45.00247" lon="2.9001">
        <ele>1141</ele>
        <time>2019-05-12T12:21:44Z</time>
      </trkpt>
      <trkpt lat="45.00245" lon="2.90007">
        <ele>1141.1</ele>
        <time>2019-05-12T12:21:48Z</time>
      </trkpt>
      <trkpt lat="45.00242" lon="2.90004">
        <ele>1141.2</ele>
        <time>2019-05-12T12:21:57Z</time>
      </trkpt>
      <trkpt lat="45.00239" lon="2.90005">
        <ele>1141.3</ele>
        <time>2019-05-12T12:22:00Z</time>
      </trkpt>
      <trkpt lat="45.00237" lon="2.90002">
        <ele>1141.4</ele>
        <time>2019-05-12T12:22:15Z</time>
      </trkpt>
      <trkpt lat="45.00234" lon="2.89999">
        <ele>1141.5</ele>
        <time>2019-05-12T12:22:32Z</time>
      </trkpt>
      <trkpt lat="45.00231" lon="2.89996">
        <ele>1141.6</ele>
        <time>2019-05-12T12:22:38Z</time>
      </trkpt>
      <trkpt lat="45.00228" lon="2.89994">
        <ele>1141.6</ele>
        <time>2019-05-12T12:22:42Z</time>
      </trkpt>
      <trkpt lat="45.00226" lon="2.89992">
        <ele>1141.7</ele>
        <time>2019-05-12T12:22:45Z</time>
      </trkpt>
      <trkpt lat="45.00223" lon="2.89989">
        <ele>1141.8</ele>
        <time>2019-05-12T12:22:48Z</time>
      </trkpt>
      <trkpt lat="45.0022" lon="2.89987">
        <ele>1141.8</ele>
        <time>2019-05-12T12:22:52Z</time>
      </trkpt>
      <trkpt lat="45.00217" lon="2.89986">
        <ele>1141.9</ele>
        <time>2019-05-12T12:22:56Z</time>
      </trkpt>
      <trkpt lat="45.00215" lon="2.89985">
        <ele>1141.9</ele>
        <time>2019-05-12T12:23:04Z</time>
      </trkpt>
      <trkpt lat="45.00215" lon="2.89981">
        <ele>1141.9</ele>
        <time>2019-05-12T12:23:13Z</time>
      </trkpt>
      <trkpt lat="45.00211" lon="2.89979">
        <ele>1142</ele>
        <time>2019-05-12T12:23:16Z</time>
      </trkpt>
      <trkpt lat="45.00208" lon="2.89977">
        <ele>1142</ele>
        <time>2019-05-12T12:23:19Z</time>
      </trkpt>
      <trkpt lat="45.00206" lon="2.89974">
        <ele>1142.1</ele>
        <time>2019-05-12T12:23:24Z</time>
      </trkpt>
      <trkpt lat="45.00203" lon="2.89972">
        <ele>1142.1</ele>
        <time>2019-05-12T12:23:28Z</time>
      </trkpt>
      <trkpt lat="45.002" lon="2.89972">
        <ele>1142.2</ele>
        <time>2019-05-12T12:23:31Z</time>
      </trkpt>
      <trkpt lat="45.00197" lon="2.89972">
        <ele>1142.2</ele>
        <time>2019-05-12T12:23:34Z</time>
      </trkpt>
      <trkpt lat="45.00195" lon="2.89972">
        <ele>1142.3</ele>
        <time>2019-05-12T12:23:37Z</time>
      </trkpt>
      <trkpt lat="45.00192" lon="2.8997">
        <ele>1142.3</ele>
        <time>2019-05-12T12:23:41Z</time>
      </trkpt>
      <trkpt lat="45.0019" lon="2.89967">
        <ele>1142.4</ele>
        <time>2019-05-12T12:23:45Z</time>
      </trkpt>
      <trkpt lat="45.00189" lon="2.89963">
        <ele>1142.4</ele>
        <time>2019-05-12T12:23:49Z</time>
      </trkpt>
      <trkpt lat="45.00186" lon="2.8996">
        <ele>1142.5</ele>
        <time>2019-05-12T12:23:55Z</time>
      </trkpt>
      <trkpt lat="45.00183" lon="2.8996">
        <ele>1142.5</ele>
        <time>2019-05-12T12:23:58Z</time>
      </trkpt>
      <trkpt lat="45.00179" lon="2.8996">
        <ele>1142.6</ele>
        <time>2019-05-12T12:24:01Z</time>
      </trkpt>
      <trkpt lat="45.00176" lon="2.89958">
        <ele>1142.6</ele>
        <time>2019-05-12T12:24:06Z</time>
      </trkpt>
      <trkpt lat="45.00174" lon="2.89956">
        <ele>1142.6</ele>
        <time>2019-05-12T12:24:10Z</time>
      </trkpt>
      <trkpt lat="45.00176" lon="2.89956">
        <ele>1142.7</ele>
        <time>2019-05-12T12:24:48Z</time>
      </trkpt>
      <trkpt lat="45.00174" lon="2.89953">
        <ele>1142.7</ele>
        <time>2019-05-12T12:25:04Z</time>
      </trkpt>
      <trkpt lat="45.0017" lon="2.89952">
        <ele>1142.7</ele>
        <time>2019-05-12T12:25:07Z</time>
      </trkpt>
      <trkpt lat="45.00168" lon="2.8995">
        <ele>1142.8</ele>
        <time>2019-05-12T12:25:10Z</time>
      </trkpt>
      <trkpt lat="45.0017" lon="2.89946">
        <ele>1142.8</ele>
        <time>2019-05-12T12:25:14Z</time>
      </trkpt>
      <trkpt lat="45.00173" lon="2.89947">
        <ele>1142.9</ele>
        <time>2019-05-12T12:25:16Z</time>
      </trkpt>
      <trkpt lat="45.00177" lon="2.89949">
        <ele>1142.9</ele>
        <time>2019-05-12T12:25:19Z</time>
      </trkpt>
      <trkpt lat="45.0018" lon="2.89948">
        <ele>1143</ele>
        <time>2019-05-12T12:25:21Z</time>
      </trkpt>
      <trkpt lat="45.00183" lon="2.89949">
        <ele>1143</ele>
        <time>2019-05-12T12:25:23Z</time>
      </trkpt>
      <trkpt lat="45.00185" lon="2.89951">
        <ele>1143.1</ele>
        <time>2019-05-12T12:25:25Z</time>
      </trkpt>
      <trkpt lat="45.00188" lon="2.89953">
        <ele>1143.1</ele>
        <time>2019-05-12T12:25:28Z</time>
      </trkpt>
      <trkpt lat="45.00192" lon="2.89955">
        <ele>1143.2</ele>
        <time>2019-05-12T12:25:30Z</time>
      </trkpt>
      <trkpt lat="45.00197" lon="2.89957">
        <ele>1143.4</ele>
        <time>2019-05-12T12:25:32Z</time>
      </trkpt>
      <trkpt lat="45.00201" lon="2.89958">
        <ele>1143.5</ele>
        <time>2019-05-12T12:25:34Z</time>
      </trkpt>
      <trkpt lat="45.00204" lon="2.8996">
        <ele>1143.6</ele>
        <time>2019-05-12T12:25:37Z</time>
      </trkpt>
      <trkpt lat="45.00206" lon="2.89961">
        <ele>1143.6</ele>
        <time>2019-05-12T12:25:40Z</time>
      </trkpt>
      <trkpt lat="45.00209" lon="2.89963">
        <ele>1143.7</ele>
        <time>2019-05-12T12:25:42Z</time>
      </trkpt>
      <trkpt lat="45.00213" lon="2.89966">
        <ele>1143.8</ele>
        <time>2019-05-12T12:25:45Z</time>
      </trkpt>
      <trkpt lat="45.00215" lon="2.89969">
        <ele>1143.9</ele>
        <time>2019-05-12T12:25:47Z</time>
      </trkpt>
      <trkpt lat="45.00211" lon="2.8997">
        <ele>1144</ele>
        <time>2019-05-12T12:25:50Z</time>
      </trkpt>
      <trkpt lat="45.00208" lon="2.8997">
        <ele>1144</ele>
        <time>2019-05-12T12:26:12Z</time>
      </trkpt>
      <trkpt lat="45.00205" lon="2.89968">
        <ele>1144.1</ele>
        <time>2019-05-12T12:26:27Z</time>
      </trkpt>
      <trkpt lat="45.00202" lon="2.89966">
        <ele>1144.1</ele>
        <time>2019-05-12T12:26:30Z</time>
      </trkpt>
      <trkpt lat="45.002" lon="2.89964">
        <ele>1144.2</ele>
        <time>2019-05-12T12:26:34Z</time>
      </trkpt>
      <trkpt lat="45.00197" lon="2.89963">
        <ele>1144.2</ele>
        <time>2019-05-12T12:26:38Z</time>
      </trkpt>
      <trkpt lat="45.00194" lon="2.89963">
        <ele>1144.3</ele>
        <time>2019-05-12T12:26:51Z</time>
      </trkpt>
      <trkpt lat="45.00191" lon="2.8996">
        <ele>1144.4</ele>
        <time>2019-05-12T12:27:12Z</time>
      </trkpt>
      <trkpt lat="45.00188" lon="2.89958">
        <ele>1144.5</ele>
        <time>2019-05-12T12:27:16Z</time>
      </trkpt>
      <trkpt lat="45.00186" lon="2.89956">
        <ele>1144.5</ele>
        <time>2019-05-12T12:27:19Z</time>
      </trkpt>
      <trkpt lat="45.00182" lon="2.89956">
        <ele>1144.7</ele>
        <time>2019-05-12T12:27:22Z</time>
      </trkpt>
      <trkpt lat="45.0018" lon="2.89954">
        <ele>1144.8</ele>
        <time>2019-05-12T12:27:26Z</time>
      </trkpt>
      <trkpt lat="45.00177" lon="2.89952">
        <ele>1144.9</ele>
        <time>2019-05-12T12:27:29Z</time>
      </trkpt>
      <trkpt lat="45.00174" lon="2.89952">
        <ele>1145</ele>
        <time>2019-05-12T12:27:33Z</time>
      </trkpt>
      <trkpt lat="45.00171" lon="2.8995">
        <ele>1145.2</ele>
        <time>2019-05-12T12:27:39Z</time>
      </trkpt>
      <trkpt lat="45.00168" lon="2.89949">
        <ele>1145.3</ele>
        <time>2019-05-12T12:27:42Z</time>
      </trkpt>
      <trkpt lat="45.00165" lon="2.89949">
        <ele>1145.5</ele>
        <time>2019-05-12T12:27:45Z</time>
      </trkpt>
      <trkpt lat="45.00161" lon="2.89948">
        <ele>1145.7</ele>
        <time>2019-05-12T12:27:48Z</time>
      </trkpt>
      <trkpt lat="45.00158" lon="2.89946">
        <ele>1146</ele>
        <time>2019-05-12T12:27:52Z</time>
      </trkpt>
      <trkpt lat="45.00155" lon="2.89947">
        <ele>1146.1</ele>
        <time>2019-05-12T12:28:00Z</time>
      </trkpt>
      <trkpt lat="45.00152" lon="2.89949">
        <ele>1146.4</ele>
        <time>2019-05-12T12:28:05Z</time>
      </trkpt>
      <trkpt lat="45.00149" lon="2.89949">
        <ele>1146.5</ele>
        <time>2019-05-12T12:28:12Z</time>
      </trkpt>
      <trkpt lat="45.00146" lon="2.89946">
        <ele>1146.7</ele>
        <time>2019-05-12T12:28:15Z</time>
      </trkpt>
      <trkpt lat="45.00145" lon="2.89942">
        <ele>1146.9</ele>
        <time>2019-05-12T12:28:17Z</time>
      </trkpt>
      <trkpt lat="45.00143" lon="2.89938">
        <ele>1147.1</ele>
        <time>2019-05-12T12:28:20Z</time>
      </trkpt>
      <trkpt lat="45.0014" lon="2.89935">
        <ele>1147.3</ele>
        <time>2019-05-12T12:28:23Z</time>
      </trkpt>
      <trkpt lat="45.00136" lon="2.89935">
        <ele>1147.6</ele>
        <time>2019-05-12T12:28:26Z</time>
      </trkpt>
      <trkpt lat="45.00132" lon="2.89934">
        <ele>1147.8</ele>
        <time>2019-05-12T12:28:29Z</time>
      </trkpt>
      <trkpt lat="45.00129" lon="2.89933">
        <ele>1147.9</ele>
        <time>2019-05-12T12:28:31Z</time>
      </trkpt>
      <trkpt lat="45.00127" lon="2.89932">
        <ele>1148.1</ele>
        <time>2019-05-12T12:28:33Z</time>
      </trkpt>
      <trkpt lat="45.00123" lon="2.89931">
        <ele>1148.3</ele>
        <time>2019-05-12T12:28:36Z</time>
      </trkpt>
      <trkpt lat="45.00119" lon="2.89929">
        <ele>1148.5</ele>
        <time>2019-05-12T12:28:39Z</time>
      </trkpt>
      <trkpt lat="45.00115" lon="2.89928">
        <ele>1148.8</ele>
        <time>2019-05-12T12:28:42Z</time>
      </trkpt>
      <trkpt lat="45.00112" lon="2.89928">
        <ele>1148.9</ele>
        <time>2019-05-12T12:28:44Z</time>
      </trkpt>
      <trkpt lat="45.00109" lon="2.89925">
        <ele>1149.1</ele>
        <time>2019-05-12T12:28:47Z</time>
      </trkpt>
      <trkpt lat="45.00107" lon="2.89922">
        <ele>1149.3</ele>
        <time>2019-05-12T12:28:50Z</time>
      </trkpt>
      <trkpt lat="45.00103" lon="2.8992">
        <ele>1149.5</ele>
        <time>2019-05-12T12:28:53Z</time>
      </trkpt>
      <trkpt lat="45.001" lon="2.89919">
        <ele>1149.7</ele>
        <time>2019-05-12T12:28:56Z</time>
      </trkpt>
      <trkpt lat="45.00096" lon="2.89918">
        <ele>1149.9</ele>
        <time>2019-05-12T12:28:59Z</time>
      </trkpt>
      <trkpt lat="45.00093" lon="2.89917">
        <ele>1150</ele>
        <time>2019-05-12T12:29:02Z</time>
      </trkpt>
      <trkpt lat="45.0009" lon="2.89916">
        <ele>1150.2</ele>
        <time>2019-05-12T12:29:05Z</time>
      </trkpt>
      <trkpt lat="45.00087" lon="2.89915">
        <ele>1150.3</ele>
        <time>2019-05-12T12:29:08Z</time>
      </trkpt>
      <trkpt lat="45.00083" lon="2.89914">
        <ele>1150.5</ele>
        <time>2019-05-12T12:29:11Z</time>
      </trkpt>
      <trkpt lat="45.00081" lon="2.89911">
        <ele>1150.6</ele>
        <time>2019-05-12T12:29:14Z</time>
      </trkpt>
      <trkpt lat="45.00079" lon="2.89909">
        <ele>1150.8</ele>
        <time>2019-05-12T12:29:17Z</time>
      </trkpt>
      <trkpt lat="45.00076" lon="2.89906">
        <ele>1150.9</ele>
        <time>2019-05-12T12:29:21Z</time>
      </trkpt>
      <trkpt lat="45.00073" lon="2.89904">
        <ele>1151.1</ele>
        <time>2019-05-12T12:29:24Z</time>
      </trkpt>
      <trkpt lat="45.00071" lon="2.89901">
        <ele>1151.2</ele>
        <time>2019-05-12T12:29:27Z</time>
      </trkpt>
      <trkpt lat="45.00069" lon="2.89898">
        <ele>1151.3</ele>
        <time>2019-05-12T12:29:30Z</time>
      </trkpt>
      <trkpt lat="45.00066" lon="2.89895">
        <ele>1151.4</ele>
        <time>2019-05-12T12:29:33Z</time>
      </trkpt>
      <trkpt lat="45.00063" lon="2.89894">
        <ele>1151.5</ele>
        <time>2019-05-12T12:29:36Z</time>
      </trkpt>
      <trkpt lat="45.0006" lon="2.89893">
        <ele>1151.5</ele>
        <time>2019-05-12T12:29:39Z</time>
      </trkpt>
      <trkpt lat="45.00055" lon="2.89893">
        <ele>1151.6</ele>
        <time>2019-05-12T12:29:42Z</time>
      </trkpt>
      <trkpt lat="45.00052" lon="2.89892">
        <ele>1151.6</ele>
        <time>2019-05-12T12:29:45Z</time>
      </trkpt>
      <trkpt lat="45.00049" lon="2.89891">
        <ele>1151.6</ele>
        <time>2019-05-12T12:29:47Z</time>
      </trkpt>
      <trkpt lat="45.00046" lon="2.89888">
        <ele>1151.6</ele>
        <time>2019-05-12T12:29:50Z</time>
      </trkpt>
      <trkpt lat="45.00044" lon="2.89886">
        <ele>1151.7</ele>
        <time>2019-05-12T12:29:52Z</time>
      </trkpt>
      <trkpt lat="45.00041" lon="2.89884">
        <ele>1151.7</ele>
        <time>2019-05-12T12:29:54Z</time>
      </trkpt>
      <trkpt lat="45.00039" lon="2.89882">
        <ele>1151.7</ele>
        <time>2019-05-12T12:29:56Z</time>
      </trkpt>
      <trkpt lat="45.00035" lon="2.8988">
        <ele>1151.7</ele>
        <time>2019-05-12T12:29:59Z</time>
      </trkpt>
      <trkpt lat="45.00031" lon="2.89879">
        <ele>1151.7</ele>
        <time>2019-05-12T12:30:02Z</time>
      </trkpt>
      <trkpt lat="45.00029" lon="2.89878">
        <ele>1151.8</ele>
        <time>2019-05-12T12:30:05Z</time>
      </trkpt>
      <trkpt lat="45.00025" lon="2.89877">
        <ele>1151.8</ele>
        <time>2019-05-12T12:30:08Z</time>
      </trkpt>
      <trkpt lat="45.00022" lon="2.89875">
        <ele>1151.8</ele>
        <time>2019-05-12T12:30:11Z</time>
      </trkpt>
      <trkpt lat="45.00019" lon="2.89874">
        <ele>1151.9</ele>
        <time>2019-05-12T12:30:14Z</time>
      </trkpt>
      <trkpt lat="45.00015" lon="2.89872">
        <ele>1151.9</ele>
        <time>2019-05-12T12:30:17Z</time>
      </trkpt>
      <trkpt lat="45.00012" lon="2.8987">
        <ele>1151.9</ele>
        <time>2019-05-12T12:30:20Z</time>
      </trkpt>
      <trkpt lat="45.00009" lon="2.89867">
        <ele>1152</ele>
        <time>2019-05-12T12:30:23Z</time>
      </trkpt>
      <trkpt lat="45.00006" lon="2.89864">
        <ele>1152</ele>
        <time>2019-05-12T12:30:26Z</time>
      </trkpt>
      <trkpt lat="45.00004" lon="2.89862">
        <ele>1152</ele>
        <time>2019-05-12T12:30:28Z</time>
      </trkpt>
      <trkpt lat="45.00001" lon="2.89858">
        <ele>1152</ele>
        <time>2019-05-12T12:30:31Z</time>
      </trkpt>
      <trkpt lat="44.99998" lon="2.89855">
        <ele>1152</ele>
        <time>2019-05-12T12:30:34Z</time>
      </trkpt>
      <trkpt lat="44.99996" lon="2.89852">
        <ele>1152</ele>
        <time>2019-05-12T12:30:37Z</time>
      </trkpt>
      <trkpt lat="44.99993" lon="2.89848">
        <ele>1152</ele>
        <time>2019-05-12T12:30:40Z</time>
      </trkpt>
      <trkpt lat="44.9999" lon="2.89845">
        <ele>1152</ele>
        <time>2019-05-12T12:30:43Z</time>
      </trkpt>
      <trkpt lat="44.99988" lon="2.89842">
        <ele>1151.9</ele>
        <time>2019-05-12T12:30:46Z</time>
      </trkpt>
      <trkpt lat="44.99985" lon="2.89839">
        <ele>1151.9</ele>
        <time>2019-05-12T12:30:48Z</time>
      </trkpt>
      <trkpt lat="44.99983" lon="2.89836">
        <ele>1151.8</ele>
        <time>2019-05-12T12:30:51Z</time>
      </trkpt>
      <trkpt lat="44.99981" lon="2.89832">
        <ele>1151.8</ele>
        <time>2019-05-12T12:30:54Z</time>
      </trkpt>
      <trkpt lat="44.99978" lon="2.89828">
        <ele>1151.7</ele>
        <time>2019-05-12T12:30:57Z</time>
      </trkpt>
      <trkpt lat="44.99976" lon="2.89825">
        <ele>1151.6</ele>
        <time>2019-05-12T12:31:00Z</time>
      </trkpt>
      <trkpt lat="44.99973" lon="2.89822">
        <ele>1151.6</ele>
        <time>2019-05-12T12:31:03Z</time>
      </trkpt>
      <trkpt lat="44.99971" lon="2.89817">
        <ele>1151.5</ele>
        <time>2019-05-12T12:31:06Z</time>
      </trkpt>
      <trkpt lat="44.99969" lon="2.89813">
        <ele>1151.4</ele>
        <time>2019-05-12T12:31:09Z</time>
      </trkpt>
      <trkpt lat="44.99967" lon="2.89811">
        <ele>1151.3</ele>
        <time>2019-05-12T12:31:11Z</time>
      </trkpt>
      <trkpt lat="44.99966" lon="2.89807">
        <ele>1151.2</ele>
        <time>2019-05-12T12:31:14Z</time>
      </trkpt>
      <trkpt lat="44.99965" lon="2.89803">
        <ele>1151.1</ele>
        <time>2019-05-12T12:31:17Z</time>
      </trkpt>
      <trkpt lat="44.99964" lon="2.89799">
        <ele>1151</ele>
        <time>2019-05-12T12:31:20Z</time>
      </trkpt>
      <trkpt lat="44.99963" lon="2.89794">
        <ele>1150.9</ele>
        <time>2019-05-12T12:31:23Z</time>
      </trkpt>
      <trkpt lat="44.9996" lon="2.8979">
        <ele>1150.8</ele>
        <time>2019-05-12T12:31:26Z</time>
      </trkpt>
      <trkpt lat="44.99958" lon="2.89787">
        <ele>1150.7</ele>
        <time>2019-05-12T12:31:28Z</time>
      </trkpt>
      <trkpt lat="44.99957" lon="2.89783">
        <ele>1150.6</ele>
        <time>2019-05-12T12:31:31Z</time>
      </trkpt>
      <trkpt lat="44.99955" lon="2.89778">
        <ele>1150.6</ele>
        <time>2019-05-12T12:31:34Z</time>
      </trkpt>
      <trkpt lat="44.99953" lon="2.89773">
        <ele>1150.5</ele>
        <time>2019-05-12T12:31:37Z</time>
      </trkpt>
      <trkpt lat="44.99952" lon="2.8977">
        <ele>1150.4</ele>
        <time>2019-05-12T12:31:39Z</time>
      </trkpt>
      <trkpt lat="44.9995" lon="2.89766">
        <ele>1150.3</ele>
        <time>2019-05-12T12:31:41Z</time>
      </trkpt>
      <trkpt lat="44.99949" lon="2.89763">
        <ele>1150.2</ele>
        <time>2019-05-12T12:31:43Z</time>
      </trkpt>
      <trkpt lat="44.99948" lon="2.89759">
        <ele>1150</ele>
        <time>2019-05-12T12:31:45Z</time>
      </trkpt>
      <trkpt lat="44.99946" lon="2.89755">
        <ele>1149.9</ele>
        <time>2019-05-12T12:31:48Z</time>
      </trkpt>
      <trkpt lat="44.99943" lon="2.89751">
        <ele>1149.7</ele>
        <time>2019-05-12T12:31:51Z</time>
      </trkpt>
      <trkpt lat="44.99941" lon="2.89747">
        <ele>1149.5</ele>
        <time>2019-05-12T12:31:54Z</time>
      </trkpt>
      <trkpt lat="44.99939" lon="2.89744">
        <ele>1149.3</ele>
        <time>2019-05-12T12:31:56Z</time>
      </trkpt>
      <trkpt lat="44.99936" lon="2.8974">
        <ele>1149.1</ele>
        <time>2019-05-12T12:31:59Z</time>
      </trkpt>
      <trkpt lat="44.99934" lon="2.89736">
        <ele>1148.9</ele>
        <time>2019-05-12T12:32:02Z</time>
      </trkpt>
      <trkpt lat="44.99932" lon="2.89732">
        <ele>1148.7</ele>
        <time>2019-05-12T12:32:05Z</time>
      </trkpt>
      <trkpt lat="44.9993" lon="2.89729">
        <ele>1148.6</ele>
        <time>2019-05-12T12:32:07Z</time>
      </trkpt>
      <trkpt lat="44.99929" lon="2.89726">
        <ele>1148.5</ele>
        <time>2019-05-12T12:32:09Z</time>
      </trkpt>
      <trkpt lat="44.99926" lon="2.89722">
        <ele>1148.4</ele>
        <time>2019-05-12T12:32:12Z</time>
      </trkpt>
      <trkpt lat="44.99923" lon="2.89719">
        <ele>1148.2</ele>
        <time>2019-05-12T12:32:15Z</time>
      </trkpt>
      <trkpt lat="44.99922" lon="2.89715">
        <ele>1148.1</ele>
        <time>2019-05-12T12:32:19Z</time>
      </trkpt>
      <trkpt lat="44.9992" lon="2.89712">
        <ele>1148</ele>
        <time>2019-05-12T12:32:21Z</time>
      </trkpt>
      <trkpt lat="44.99919" lon="2.89707">
        <ele>1147.9</ele>
        <time>2019-05-12T12:32:23Z</time>
      </trkpt>
      <trkpt lat="44.99917" lon="2.89704">
        <ele>1147.8</ele>
        <time>2019-05-12T12:32:25Z</time>
      </trkpt>
      <trkpt lat="44.99915" lon="2.89701">
        <ele>1147.7</ele>
        <time>2019-05-12T12:32:27Z</time>
      </trkpt>
      <trkpt lat="44.99913" lon="2.89698">
        <ele>1147.6</ele>
        <time>2019-05-12T12:32:29Z</time>
      </trkpt>
      <trkpt lat="44.99912" lon="2.89694">
        <ele>1147.4</ele>
        <time>2019-05-12T12:32:31Z</time>
      </trkpt>
      <trkpt lat="44.99911" lon="2.8969">
        <ele>1147.2</ele>
        <time>2019-05-12T12:32:34Z</time>
      </trkpt>
      <trkpt lat="44.99909" lon="2.89687">
        <ele>1147.1</ele>
        <time>2019-05-12T12:32:36Z</time>
      </trkpt>
      <trkpt lat="44.99907" lon="2.89684">
        <ele>1146.9</ele>
        <time>2019-05-12T12:32:38Z</time>
      </trkpt>
      <trkpt lat="44.99905" lon="2.89681">
        <ele>1146.7</ele>
        <time>2019-05-12T12:32:40Z</time>
      </trkpt>
      <trkpt lat="44.99903" lon="2.89678">
        <ele>1146.5</ele>
        <time>2019-05-12T12:32:42Z</time>
      </trkpt>
      <trkpt lat="44.999" lon="2.89674">
        <ele>1146.3</ele>
        <time>2019-05-12T12:32:45Z</time>
      </trkpt>
      <trkpt lat="44.99899" lon="2.89671">
        <ele>1146.3</ele>
        <time>2019-05-12T12:32:48Z</time>
      </trkpt>
      <trkpt lat="44.99897" lon="2.89666">
        <ele>1146.3</ele>
        <time>2019-05-12T12:32:51Z</time>
      </trkpt>
      <trkpt lat="44.99895" lon="2.89662">
        <ele>1146.4</ele>
        <time>2019-05-12T12:32:54Z</time>
      </trkpt>
      <trkpt lat="44.99893" lon="2.89659">
        <ele>1146.5</ele>
        <time>2019-05-12T12:32:56Z</time>
      </trkpt>
      <trkpt lat="44.99892" lon="2.89654">
        <ele>1146.7</ele>
        <time>2019-05-12T12:32:59Z</time>
      </trkpt>
      <trkpt lat="44.99891" lon="2.89649">
        <ele>1146.8</ele>
        <time>2019-05-12T12:33:02Z</time>
      </trkpt>
      <trkpt lat="44.9989" lon="2.89644">
        <ele>1146.9</ele>
        <time>2019-05-12T12:33:05Z</time>
      </trkpt>
      <trkpt lat="44.99889" lon="2.89639">
        <ele>1147</ele>
        <time>2019-05-12T12:33:08Z</time>
      </trkpt>
      <trkpt lat="44.99887" lon="2.89634">
        <ele>1146.8</ele>
        <time>2019-05-12T12:33:12Z</time>
      </trkpt>
      <trkpt lat="44.99886" lon="2.89629">
        <ele>1146.6</ele>
        <time>2019-05-12T12:33:15Z</time>
      </trkpt>
      <trkpt lat="44.99885" lon="2.89626">
        <ele>1146.2</ele>
        <time>2019-05-12T12:33:17Z</time>
      </trkpt>
      <trkpt lat="44.99884" lon="2.89621">
        <ele>1145.7</ele>
        <time>2019-05-12T12:33:20Z</time>
      </trkpt>
      <trkpt lat="44.99883" lon="2.89615">
        <ele>1145.2</ele>
        <time>2019-05-12T12:33:23Z</time>
      </trkpt>
      <trkpt lat="44.99883" lon="2.89611">
        <ele>1144.8</ele>
        <time>2019-05-12T12:33:25Z</time>
      </trkpt>
      <trkpt lat="44.99882" lon="2.89607">
        <ele>1144.4</ele>
        <time>2019-05-12T12:33:27Z</time>
      </trkpt>
      <trkpt lat="44.99882" lon="2.89602">
        <ele>1144.2</ele>
        <time>2019-05-12T12:33:30Z</time>
      </trkpt>
      <trkpt lat="44.99882" lon="2.89597">
        <ele>1144.1</ele>
        <time>2019-05-12T12:33:33Z</time>
      </trkpt>
      <trkpt lat="44.99881" lon="2.89593">
        <ele>1143.9</ele>
        <time>2019-05-12T12:33:36Z</time>
      </trkpt>
      <trkpt lat="44.9988" lon="2.89588">
        <ele>1143.8</ele>
        <time>2019-05-12T12:33:40Z</time>
      </trkpt>
      <trkpt lat="44.9988" lon="2.89584">
        <ele>1143.6</ele>
        <time>2019-05-12T12:33:43Z</time>
      </trkpt>
      <trkpt lat="44.99879" lon="2.8958">
        <ele>1143.4</ele>
        <time>2019-05-12T12:33:45Z</time>
      </trkpt>
      <trkpt lat="44.99879" lon="2.89575">
        <ele>1143.1</ele>
        <time>2019-05-12T12:33:48Z</time>
      </trkpt>
      <trkpt lat="44.99879" lon="2.89569">
        <ele>1142.8</ele>
        <time>2019-05-12T12:33:51Z</time>
      </trkpt>
      <trkpt lat="44.99879" lon="2.89565">
        <ele>1142.5</ele>
        <time>2019-05-12T12:33:54Z</time>
      </trkpt>
      <trkpt lat="44.99878" lon="2.89559">
        <ele>1142.1</ele>
        <time>2019-05-12T12:33:57Z</time>
      </trkpt>
      <trkpt lat="44.99878" lon="2.89554">
        <ele>1141.5</ele>
        <time>2019-05-12T12:34:00Z</time>
      </trkpt>
      <trkpt lat="44.99877" lon="2.8955">
        <ele>1141.2</ele>
        <time>2019-05-12T12:34:02Z</time>
      </trkpt>
      <trkpt lat="44.99877" lon="2.89544">
        <ele>1140.7</ele>
        <time>2019-05-12T12:34:05Z</time>
      </trkpt>
      <trkpt lat="44.99877" lon="2.89539">
        <ele>1140.6</ele>
        <time>2019-05-12T12:34:08Z</time>
      </trkpt>
      <trkpt lat="44.99875" lon="2.89536">
        <ele>1140.4</ele>
        <time>2019-05-12T12:34:11Z</time>
      </trkpt>
      <trkpt lat="44.99875" lon="2.89531">
        <ele>1140.1</ele>
        <time>2019-05-12T12:34:26Z</time>
      </trkpt>
      <trkpt lat="44.99875" lon="2.89526">
        <ele>1139.9</ele>
        <time>2019-05-12T12:34:29Z</time>
      </trkpt>
      <trkpt lat="44.99875" lon="2.89521">
        <ele>1139.6</ele>
        <time>2019-05-12T12:34:32Z</time>
      </trkpt>
      <trkpt lat="44.99876" lon="2.89516">
        <ele>1139.2</ele>
        <time>2019-05-12T12:34:36Z</time>
      </trkpt>
      <trkpt lat="44.99875" lon="2.89511">
        <ele>1138.7</ele>
        <time>2019-05-12T12:34:39Z</time>
      </trkpt>
      <trkpt lat="44.99875" lon="2.89507">
        <ele>1138.4</ele>
        <time>2019-05-12T12:34:42Z</time>
      </trkpt>
      <trkpt lat="44.99875" lon="2.89503">
        <ele>1138.1</ele>
        <time>2019-05-12T12:34:45Z</time>
      </trkpt>
      <trkpt lat="44.99873" lon="2.895">
        <ele>1137.9</ele>
        <time>2019-05-12T12:34:51Z</time>
      </trkpt>
      <trkpt lat="44.99872" lon="2.89496">
        <ele>1137.7</ele>
        <time>2019-05-12T12:34:55Z</time>
      </trkpt>
      <trkpt lat="44.99872" lon="2.89491">
        <ele>1137.4</ele>
        <time>2019-05-12T12:34:58Z</time>
      </trkpt>
      <trkpt lat="44.99872" lon="2.89487">
        <ele>1137.1</ele>
        <time>2019-05-12T12:35:01Z</time>
      </trkpt>
      <trkpt lat="44.99874" lon="2.89481">
        <ele>1136.8</ele>
        <time>2019-05-12T12:35:04Z</time>
      </trkpt>
      <trkpt lat="44.99873" lon="2.89477">
        <ele>1136.7</ele>
        <time>2019-05-12T12:35:07Z</time>
      </trkpt>
      <trkpt lat="44.99874" lon="2.89472">
        <ele>1136.4</ele>
        <time>2019-05-12T12:35:11Z</time>
      </trkpt>
      <trkpt lat="44.99874" lon="2.89468">
        <ele>1136.2</ele>
        <time>2019-05-12T12:35:14Z</time>
      </trkpt>
      <trkpt lat="44.99875" lon="2.89463">
        <ele>1136</ele>
        <time>2019-05-12T12:35:20Z</time>
      </trkpt>
      <trkpt lat="44.99877" lon="2.89459">
        <ele>1135.7</ele>
        <time>2019-05-12T12:35:23Z</time>
      </trkpt>
      <trkpt lat="44.99878" lon="2.89454">
        <ele>1135.3</ele>
        <time>2019-05-12T12:35:26Z</time>
      </trkpt>
      <trkpt lat="44.9988" lon="2.8945">
        <ele>1135.1</ele>
        <time>2019-05-12T12:35:30Z</time>
      </trkpt>
      <trkpt lat="44.99881" lon="2.89446">
        <ele>1134.9</ele>
        <time>2019-05-12T12:35:34Z</time>
      </trkpt>
      <trkpt lat="44.9988" lon="2.89443">
        <ele>1134.7</ele>
        <time>2019-05-12T12:35:37Z</time>
      </trkpt>
      <trkpt lat="44.99879" lon="2.89438">
        <ele>1134.6</ele>
        <time>2019-05-12T12:35:43Z</time>
      </trkpt>
      <trkpt lat="44.99879" lon="2.89433">
        <ele>1134.4</ele>
        <time>2019-05-12T12:35:46Z</time>
      </trkpt>
      <trkpt lat="44.99878" lon="2.89427">
        <ele>1134.1</ele>
        <time>2019-05-12T12:35:50Z</time>
      </trkpt>
      <trkpt lat="44.99879" lon="2.89423">
        <ele>1133.7</ele>
        <time>2019-05-12T12:35:53Z</time>
      </trkpt>
      <trkpt lat="44.9988" lon="2.89419">
        <ele>1133.6</ele>
        <time>2019-05-12T12:35:55Z</time>
      </trkpt>
      <trkpt lat="44.99881" lon="2.89415">
        <ele>1133.5</ele>
        <time>2019-05-12T12:35:57Z</time>
      </trkpt>
      <trkpt lat="44.99884" lon="2.89412">
        <ele>1133.4</ele>
        <time>2019-05-12T12:36:01Z</time>
      </trkpt>
      <trkpt lat="44.99886" lon="2.8941">
        <ele>1133.2</ele>
        <time>2019-05-12T12:36:04Z</time>
      </trkpt>
      <trkpt lat="44.99886" lon="2.89406">
        <ele>1132.9</ele>
        <time>2019-05-12T12:36:14Z</time>
      </trkpt>
      <trkpt lat="44.99885" lon="2.89402">
        <ele>1132.7</ele>
        <time>2019-05-12T12:36:25Z</time>
      </trkpt>
      <trkpt lat="44.99884" lon="2.89397">
        <ele>1132.4</ele>
        <time>2019-05-12T12:36:29Z</time>
      </trkpt>
      <trkpt lat="44.99885" lon="2.89393">
        <ele>1132</ele>
        <time>2019-05-12T12:36:33Z</time>
      </trkpt>
      <trkpt lat="44.99884" lon="2.89388">
        <ele>1131.7</ele>
        <time>2019-05-12T12:36:36Z</time>
      </trkpt>
      <trkpt lat="44.99884" lon="2.89385">
        <ele>1131.5</ele>
        <time>2019-05-12T12:36:39Z</time>
      </trkpt>
      <trkpt lat="44.99885" lon="2.89381">
        <ele>1131.4</ele>
        <time>2019-05-12T12:36:43Z</time>
      </trkpt>
      <trkpt lat="44.99886" lon="2.89376">
        <ele>1131</ele>
        <time>2019-05-12T12:36:51Z</time>
      </trkpt>
      <trkpt lat="44.99886" lon="2.89373">
        <ele>1130.6</ele>
        <time>2019-05-12T12:36:54Z</time>
      </trkpt>
      <trkpt lat="44.99887" lon="2.89368">
        <ele>1130.2</ele>
        <time>2019-05-12T12:36:57Z</time>
      </trkpt>
      <trkpt lat="44.99887" lon="2.89363">
        <ele>1129.8</ele>
        <time>2019-05-12T12:37:01Z</time>
      </trkpt>
      <trkpt lat="44.99887" lon="2.89358">
        <ele>1129.4</ele>
        <time>2019-05-12T12:37:04Z</time>
      </trkpt>
      <trkpt lat="44.99886" lon="2.89354">
        <ele>1128.9</ele>
        <time>2019-05-12T12:37:07Z</time>
      </trkpt>
      <trkpt lat="44.99884" lon="2.8935">
        <ele>1128.1</ele>
        <time>2019-05-12T12:37:10Z</time>
      </trkpt>
      <trkpt lat="44.99884" lon="2.89346">
        <ele>1127.5</ele>
        <time>2019-05-12T12:37:12Z</time>
      </trkpt>
      <trkpt lat="44.99884" lon="2.89341">
        <ele>1127.1</ele>
        <time>2019-05-12T12:37:15Z</time>
      </trkpt>
      <trkpt lat="44.99883" lon="2.89336">
        <ele>1126.7</ele>
        <time>2019-05-12T12:37:18Z</time>
      </trkpt>
      <trkpt lat="44.99884" lon="2.89333">
        <ele>1126.3</ele>
        <time>2019-05-12T12:37:21Z</time>
      </trkpt>
      <trkpt lat="44.99884" lon="2.89329">
        <ele>1125.8</ele>
        <time>2019-05-12T12:37:23Z</time>
      </trkpt>
      <trkpt lat="44.99884" lon="2.89324">
        <ele>1125.3</ele>
        <time>2019-05-12T12:37:25Z</time>
      </trkpt>
      <trkpt lat="44.99883" lon="2.89319">
        <ele>1125.1</ele>
        <time>2019-05-12T12:37:27Z</time>
      </trkpt>
      <trkpt lat="44.99881" lon="2.89315">
        <ele>1125</ele>
        <time>2019-05-12T12:37:29Z</time>
      </trkpt>
      <trkpt lat="44.99878" lon="2.89311">
        <ele>1124.9</ele>
        <time>2019-05-12T12:37:31Z</time>
      </trkpt>
      <trkpt lat="44.99879" lon="2.89307">
        <ele>1124.8</ele>
        <time>2019-05-12T12:37:37Z</time>
      </trkpt>
      <trkpt lat="44.99878" lon="2.89303">
        <ele>1124.7</ele>
        <time>2019-05-12T12:37:40Z</time>
      </trkpt>
      <trkpt lat="44.99877" lon="2.89298">
        <ele>1124.5</ele>
        <time>2019-05-12T12:37:42Z</time>
      </trkpt>
      <trkpt lat="44.99876" lon="2.89294">
        <ele>1124.4</ele>
        <time>2019-05-12T12:37:45Z</time>
      </trkpt>
      <trkpt lat="44.99874" lon="2.89289">
        <ele>1124.3</ele>
        <time>2019-05-12T12:37:48Z</time>
      </trkpt>
      <trkpt lat="44.99873" lon="2.89284">
        <ele>1124.4</ele>
        <time>2019-05-12T12:37:52Z</time>
      </trkpt>
      <trkpt lat="44.99871" lon="2.8928">
        <ele>1124.4</ele>
        <time>2019-05-12T12:37:55Z</time>
      </trkpt>
      <trkpt lat="44.99871" lon="2.89275">
        <ele>1124.5</ele>
        <time>2019-05-12T12:37:59Z</time>
      </trkpt>
      <trkpt lat="44.99871" lon="2.89271">
        <ele>1124.5</ele>
        <time>2019-05-12T12:38:02Z</time>
      </trkpt>
      <trkpt lat="44.99871" lon="2.89266">
        <ele>1124.6</ele>
        <time>2019-05-12T12:38:05Z</time>
      </trkpt>
      <trkpt lat="44.9987" lon="2.89261">
        <ele>1124.6</ele>
        <time>2019-05-12T12:38:08Z</time>
      </trkpt>
      <trkpt lat="44.99869" lon="2.89257">
        <ele>1124.6</ele>
        <time>2019-05-12T12:38:10Z</time>
      </trkpt>
      <trkpt lat="44.99866" lon="2.89254">
        <ele>1124.6</ele>
        <time>2019-05-12T12:38:13Z</time>
      </trkpt>
      <trkpt lat="44.99865" lon="2.8925">
        <ele>1124.6</ele>
        <time>2019-05-12T12:38:17Z</time>
      </trkpt>
      <trkpt lat="44.99864" lon="2.89246">
        <ele>1124.6</ele>
        <time>2019-05-12T12:38:25Z</time>
      </trkpt>
      <trkpt lat="44.99862" lon="2.89242">
        <ele>1124.6</ele>
        <time>2019-05-12T12:38:31Z</time>
      </trkpt>
      <trkpt lat="44.99862" lon="2.89239">
        <ele>1124.6</ele>
        <time>2019-05-12T12:38:39Z</time>
      </trkpt>
      <trkpt lat="44.99863" lon="2.89235">
        <ele>1124.6</ele>
        <time>2019-05-12T12:38:44Z</time>
      </trkpt>
      <trkpt lat="44.99863" lon="2.8923">
        <ele>1124.8</ele>
        <time>2019-05-12T12:38:51Z</time>
      </trkpt>
      <trkpt lat="44.99862" lon="2.89226">
        <ele>1125.1</ele>
        <time>2019-05-12T12:38:54Z</time>
      </trkpt>
      <trkpt lat="44.99862" lon="2.8922">
        <ele>1125.3</ele>
        <time>2019-05-12T12:38:57Z</time>
      </trkpt>
      <trkpt lat="44.99861" lon="2.89215">
        <ele>1125.5</ele>
        <time>2019-05-12T12:38:59Z</time>
      </trkpt>
      <trkpt lat="44.99861" lon="2.8921">
        <ele>1125.6</ele>
        <time>2019-05-12T12:39:02Z</time>
      </trkpt>
      <trkpt lat="44.99861" lon="2.89204">
        <ele>1125.5</ele>
        <time>2019-05-12T12:39:06Z</time>
      </trkpt>
      <trkpt lat="44.9986" lon="2.89201">
        <ele>1125.4</ele>
        <time>2019-05-12T12:39:08Z</time>
      </trkpt>
      <trkpt lat="44.99859" lon="2.89197">
        <ele>1125.4</ele>
        <time>2019-05-12T12:39:10Z</time>
      </trkpt>
      <trkpt lat="44.9986" lon="2.89193">
        <ele>1125.4</ele>
        <time>2019-05-12T12:39:13Z</time>
      </trkpt>
      <trkpt lat="44.9986" lon="2.89187">
        <ele>1125.4</ele>
        <time>2019-05-12T12:39:16Z</time>
      </trkpt>
      <trkpt lat="44.99859" lon="2.89182">
        <ele>1125.4</ele>
        <time>2019-05-12T12:39:19Z</time>
      </trkpt>
      <trkpt lat="44.99859" lon="2.89178">
        <ele>1125.5</ele>
        <time>2019-05-12T12:39:21Z</time>
      </trkpt>
      <trkpt lat="44.9986" lon="2.89173">
        <ele>1125.6</ele>
        <time>2019-05-12T12:39:25Z</time>
      </trkpt>
      <trkpt lat="44.99861" lon="2.89169">
        <ele>1125.6</ele>
        <time>2019-05-12T12:39:28Z</time>
      </trkpt>
      <trkpt lat="44.99861" lon="2.89164">
        <ele>1125.6</ele>
        <time>2019-05-12T12:39:33Z</time>
      </trkpt>
      <trkpt lat="44.99862" lon="2.8916">
        <ele>1125.5</ele>
        <time>2019-05-12T12:39:38Z</time>
      </trkpt>
      <trkpt lat="44.99864" lon="2.89156">
        <ele>1125.3</ele>
        <time>2019-05-12T12:39:43Z</time>
      </trkpt>
      <trkpt lat="44.99863" lon="2.89151">
        <ele>1125.1</ele>
        <time>2019-05-12T12:39:48Z</time>
      </trkpt>
      <trkpt lat="44.99862" lon="2.89147">
        <ele>1124.8</ele>
        <time>2019-05-12T12:39:52Z</time>
      </trkpt>
      <trkpt lat="44.99861" lon="2.89143">
        <ele>1124.6</ele>
        <time>2019-05-12T12:39:58Z</time>
      </trkpt>
      <trkpt lat="44.99861" lon="2.89139">
        <ele>1124.4</ele>
        <time>2019-05-12T12:40:01Z</time>
      </trkpt>
      <trkpt lat="44.9986" lon="2.89135">
        <ele>1124.3</ele>
        <time>2019-05-12T12:40:03Z</time>
      </trkpt>
      <trkpt lat="44.9986" lon="2.8913">
        <ele>1124.1</ele>
        <time>2019-05-12T12:40:06Z</time>
      </trkpt>
      <trkpt lat="44.99859" lon="2.89126">
        <ele>1124.1</ele>
        <time>2019-05-12T12:40:08Z</time>
      </trkpt>
      <trkpt lat="44.99859" lon="2.89121">
        <ele>1124.1</ele>
        <time>2019-05-12T12:40:11Z</time>
      </trkpt>
      <trkpt lat="44.99858" lon="2.89116">
        <ele>1124.1</ele>
        <time>2019-05-12T12:40:14Z</time>
      </trkpt>
      <trkpt lat="44.99857" lon="2.89111">
        <ele>1123.9</ele>
        <time>2019-05-12T12:40:17Z</time>
      </trkpt>
      <trkpt lat="44.99857" lon="2.89107">
        <ele>1123.8</ele>
        <time>2019-05-12T12:40:21Z</time>
      </trkpt>
      <trkpt lat="44.99857" lon="2.89102">
        <ele>1123.8</ele>
        <time>2019-05-12T12:40:24Z</time>
      </trkpt>
      <trkpt lat="44.99856" lon="2.89098">
        <ele>1123.8</ele>
        <time>2019-05-12T12:40:27Z</time>
      </trkpt>
      <trkpt lat="44.99855" lon="2.89093">
        <ele>1123.8</ele>
        <time>2019-05-12T12:40:31Z</time>
      </trkpt>
      <trkpt lat="44.99852" lon="2.89089">
        <ele>1123.8</ele>
        <time>2019-05-12T12:40:34Z</time>
      </trkpt>
      <trkpt lat="44.99849" lon="2.89087">
        <ele>1123.6</ele>
        <time>2019-05-12T12:40:36Z</time>
      </trkpt>
      <trkpt lat="44.99847" lon="2.89084">
        <ele>1123.3</ele>
        <time>2019-05-12T12:40:39Z</time>
      </trkpt>
      <trkpt lat="44.99844" lon="2.89082">
        <ele>1122.9</ele>
        <time>2019-05-12T12:40:41Z</time>
      </trkpt>
      <trkpt lat="44.99841" lon="2.89079">
        <ele>1122.6</ele>
        <time>2019-05-12T12:40:44Z</time>
      </trkpt>
      <trkpt lat="44.99839" lon="2.89075">
        <ele>1122.2</ele>
        <time>2019-05-12T12:40:47Z</time>
      </trkpt>
      <trkpt lat="44.99838" lon="2.89071">
        <ele>1121.9</ele>
        <time>2019-05-12T12:40:50Z</time>
      </trkpt>
      <trkpt lat="44.99837" lon="2.89067">
        <ele>1121.4</ele>
        <time>2019-05-12T12:40:54Z</time>
      </trkpt>
      <trkpt lat="44.99836" lon="2.89063">
        <ele>1121</ele>
        <time>2019-05-12T12:40:57Z</time>
      </trkpt>
      <trkpt lat="44.99833" lon="2.8906">
        <ele>1120.6</ele>
        <time>2019-05-12T12:40:59Z</time>
      </trkpt>
      <trkpt lat="44.99832" lon="2.89056">
        <ele>1120.2</ele>
        <time>2019-05-12T12:41:03Z</time>
      </trkpt>
      <trkpt lat="44.99831" lon="2.89052">
        <ele>1119.8</ele>
        <time>2019-05-12T12:41:07Z</time>
      </trkpt>
      <trkpt lat="44.99829" lon="2.89049">
        <ele>1119.2</ele>
        <time>2019-05-12T12:41:11Z</time>
      </trkpt>
      <trkpt lat="44.99828" lon="2.89044">
        <ele>1118.5</ele>
        <time>2019-05-12T12:41:15Z</time>
      </trkpt>
      <trkpt lat="44.99828" lon="2.89039">
        <ele>1117.9</ele>
        <time>2019-05-12T12:41:20Z</time>
      </trkpt>
      <trkpt lat="44.99827" lon="2.89035">
        <ele>1117.5</ele>
        <time>2019-05-12T12:41:24Z</time>
      </trkpt>
      <trkpt lat="44.99826" lon="2.89031">
        <ele>1117.1</ele>
        <time>2019-05-12T12:41:26Z</time>
      </trkpt>
      <trkpt lat="44.99825" lon="2.89028">
        <ele>1116.7</ele>
        <time>2019-05-12T12:41:28Z</time>
      </trkpt>
      <trkpt lat="44.99822" lon="2.89023">
        <ele>1116</ele>
        <time>2019-05-12T12:41:31Z</time>
      </trkpt>
      <trkpt lat="44.99821" lon="2.89019">
        <ele>1115.6</ele>
        <time>2019-05-12T12:41:34Z</time>
      </trkpt>
      <trkpt lat="44.99819" lon="2.89013">
        <ele>1115.1</ele>
        <time>2019-05-12T12:41:38Z</time>
      </trkpt>
      <trkpt lat="44.99818" lon="2.8901">
        <ele>1114.9</ele>
        <time>2019-05-12T12:41:41Z</time>
      </trkpt>
      <trkpt lat="44.99818" lon="2.89006">
        <ele>1114.8</ele>
        <time>2019-05-12T12:41:44Z</time>
      </trkpt>
      <trkpt lat="44.99818" lon="2.89001">
        <ele>1114.7</ele>
        <time>2019-05-12T12:41:47Z</time>
      </trkpt>
      <trkpt lat="44.99817" lon="2.88997">
        <ele>1114.6</ele>
        <time>2019-05-12T12:41:50Z</time>
      </trkpt>
      <trkpt lat="44.99816" lon="2.88993">
        <ele>1114.2</ele>
        <time>2019-05-12T12:41:53Z</time>
      </trkpt>
      <trkpt lat="44.99815" lon="2.88989">
        <ele>1113.8</ele>
        <time>2019-05-12T12:41:55Z</time>
      </trkpt>
      <trkpt lat="44.99813" lon="2.88985">
        <ele>1113.4</ele>
        <time>2019-05-12T12:41:59Z</time>
      </trkpt>
      <trkpt lat="44.99812" lon="2.88981">
        <ele>1113.2</ele>
        <time>2019-05-12T12:42:02Z</time>
      </trkpt>
      <trkpt lat="44.9981" lon="2.88977">
        <ele>1113</ele>
        <time>2019-05-12T12:42:06Z</time>
      </trkpt>
      <trkpt lat="44.99809" lon="2.88973">
        <ele>1112.7</ele>
        <time>2019-05-12T12:42:10Z</time>
      </trkpt>
      <trkpt lat="44.9981" lon="2.88969">
        <ele>1112.4</ele>
        <time>2019-05-12T12:42:13Z</time>
      </trkpt>
      <trkpt lat="44.9981" lon="2.88964">
        <ele>1112.1</ele>
        <time>2019-05-12T12:42:16Z</time>
      </trkpt>
      <trkpt lat="44.9981" lon="2.88959">
        <ele>1111.9</ele>
        <time>2019-05-12T12:42:19Z</time>
      </trkpt>
      <trkpt lat="44.9981" lon="2.88955">
        <ele>1111.7</ele>
        <time>2019-05-12T12:42:21Z</time>
      </trkpt>
      <trkpt lat="44.9981" lon="2.88951">
        <ele>1111.4</ele>
        <time>2019-05-12T12:42:23Z</time>
      </trkpt>
      <trkpt lat="44.9981" lon="2.88945">
        <ele>1111.1</ele>
        <time>2019-05-12T12:42:26Z</time>
      </trkpt>
      <trkpt lat="44.9981" lon="2.88941">
        <ele>1110.8</ele>
        <time>2019-05-12T12:42:28Z</time>
      </trkpt>
      <trkpt lat="44.9981" lon="2.88937">
        <ele>1110.3</ele>
        <time>2019-05-12T12:42:31Z</time>
      </trkpt>
      <trkpt lat="44.9981" lon="2.88932">
        <ele>1109.8</ele>
        <time>2019-05-12T12:42:34Z</time>
      </trkpt>
      <trkpt lat="44.99812" lon="2.88928">
        <ele>1109.3</ele>
        <time>2019-05-12T12:42:37Z</time>
      </trkpt>
      <trkpt lat="44.99814" lon="2.88924">
        <ele>1108.9</ele>
        <time>2019-05-12T12:42:41Z</time>
      </trkpt>
      <trkpt lat="44.99815" lon="2.88921">
        <ele>1108.7</ele>
        <time>2019-05-12T12:42:45Z</time>
      </trkpt>
      <trkpt lat="44.99815" lon="2.88917">
        <ele>1108.4</ele>
        <time>2019-05-12T12:42:47Z</time>
      </trkpt>
      <trkpt lat="44.99815" lon="2.88911">
        <ele>1108</ele>
        <time>2019-05-12T12:42:50Z</time>
      </trkpt>
      <trkpt lat="44.99815" lon="2.88907">
        <ele>1107.7</ele>
        <time>2019-05-12T12:42:52Z</time>
      </trkpt>
      <trkpt lat="44.99815" lon="2.88903">
        <ele>1107.4</ele>
        <time>2019-05-12T12:42:54Z</time>
      </trkpt>
      <trkpt lat="44.99815" lon="2.88898">
        <ele>1107.1</ele>
        <time>2019-05-12T12:42:57Z</time>
      </trkpt>
      <trkpt lat="44.99816" lon="2.88894">
        <ele>1106.9</ele>
        <time>2019-05-12T12:43:00Z</time>
      </trkpt>
      <trkpt lat="44.99818" lon="2.88891">
        <ele>1107.4</ele>
        <time>2019-05-12T12:43:04Z</time>
      </trkpt>
      <trkpt lat="44.99819" lon="2.88886">
        <ele>1107.1</ele>
        <time>2019-05-12T12:43:08Z</time>
      </trkpt>
      <trkpt lat="44.99818" lon="2.88882">
        <ele>1106.8</ele>
        <time>2019-05-12T12:43:11Z</time>
      </trkpt>
      <trkpt lat="44.99819" lon="2.88876">
        <ele>1106.4</ele>
        <time>2019-05-12T12:43:14Z</time>
      </trkpt>
      <trkpt lat="44.99818" lon="2.88871">
        <ele>1105.4</ele>
        <time>2019-05-12T12:43:16Z</time>
      </trkpt>
      <trkpt lat="44.99818" lon="2.88866">
        <ele>1104.8</ele>
        <time>2019-05-12T12:43:18Z</time>
      </trkpt>
      <trkpt lat="44.99818" lon="2.88862">
        <ele>1104.3</ele>
        <time>2019-05-12T12:43:20Z</time>
      </trkpt>
      <trkpt lat="44.99819" lon="2.88857">
        <ele>1103.8</ele>
        <time>2019-05-12T12:43:23Z</time>
      </trkpt>
      <trkpt lat="44.99818" lon="2.88851">
        <ele>1103.3</ele>
        <time>2019-05-12T12:43:26Z</time>
      </trkpt>
      <trkpt lat="44.99817" lon="2.88846">
        <ele>1102.4</ele>
        <time>2019-05-12T12:43:29Z</time>
      </trkpt>
      <trkpt lat="44.99818" lon="2.88841">
        <ele>1101.8</ele>
        <time>2019-05-12T12:43:31Z</time>
      </trkpt>
      <trkpt lat="44.99818" lon="2.88837">
        <ele>1101.3</ele>
        <time>2019-05-12T12:43:34Z</time>
      </trkpt>
      <trkpt lat="44.99818" lon="2.88833">
        <ele>1100.6</ele>
        <time>2019-05-12T12:43:36Z</time>
      </trkpt>
      <trkpt lat="44.99818" lon="2.88828">
        <ele>1099.6</ele>
        <time>2019-05-12T12:43:39Z</time>
      </trkpt>
      <trkpt lat="44.99818" lon="2.88824">
        <ele>1098.8</ele>
        <time>2019-05-12T12:43:41Z</time>
      </trkpt>
      <trkpt lat="44.99818" lon="2.8882">
        <ele>1098.1</ele>
        <time>2019-05-12T12:43:44Z</time>
      </trkpt>
      <trkpt lat="44.99817" lon="2.88815">
        <ele>1097.3</ele>
        <time>2019-05-12T12:43:47Z</time>
      </trkpt>
      <trkpt lat="44.99817" lon="2.88811">
        <ele>1096.7</ele>
        <time>2019-05-12T12:43:50Z</time>
      </trkpt>
      <trkpt lat="44.99816" lon="2.88807">
        <ele>1096.1</ele>
        <time>2019-05-12T12:43:54Z</time>
      </trkpt>
      <trkpt lat="44.99815" lon="2.88802">
        <ele>1095.8</ele>
        <time>2019-05-12T12:43:57Z</time>
      </trkpt>
      <trkpt lat="44.99815" lon="2.88797">
        <ele>1095.8</ele>
        <time>2019-05-12T12:44:00Z</time>
      </trkpt>
      <trkpt lat="44.99817" lon="2.88794">
        <ele>1095.7</ele>
        <time>2019-05-12T12:44:03Z</time>
      </trkpt>
      <trkpt lat="44.99815" lon="2.88791">
        <ele>1095.4</ele>
        <time>2019-05-12T12:44:09Z</time>
      </trkpt>
      <trkpt lat="44.99813" lon="2.88787">
        <ele>1094.9</ele>
        <time>2019-05-12T12:44:18Z</time>
      </trkpt>
      <trkpt lat="44.99812" lon="2.88783">
        <ele>1094.6</ele>
        <time>2019-05-12T12:44:21Z</time>
      </trkpt>
      <trkpt lat="44.99811" lon="2.88779">
        <ele>1093.8</ele>
        <time>2019-05-12T12:44:24Z</time>
      </trkpt>
      <trkpt lat="44.9981" lon="2.88774">
        <ele>1092.8</ele>
        <time>2019-05-12T12:44:27Z</time>
      </trkpt>
      <trkpt lat="44.9981" lon="2.8877">
        <ele>1091.9</ele>
        <time>2019-05-12T12:44:30Z</time>
      </trkpt>
      <trkpt lat="44.9981" lon="2.88765">
        <ele>1091.4</ele>
        <time>2019-05-12T12:44:33Z</time>
      </trkpt>
      <trkpt lat="44.99809" lon="2.88761">
        <ele>1091.1</ele>
        <time>2019-05-12T12:44:49Z</time>
      </trkpt>
      <trkpt lat="44.99809" lon="2.88756">
        <ele>1090.7</ele>
        <time>2019-05-12T12:44:52Z</time>
      </trkpt>
      <trkpt lat="44.99809" lon="2.88751">
        <ele>1089.8</ele>
        <time>2019-05-12T12:44:55Z</time>
      </trkpt>
      <trkpt lat="44.99809" lon="2.88745">
        <ele>1088.6</ele>
        <time>2019-05-12T12:44:58Z</time>
      </trkpt>
      <trkpt lat="44.9981" lon="2.88741">
        <ele>1087.8</ele>
        <time>2019-05-12T12:45:00Z</time>
      </trkpt>
      <trkpt lat="44.9981" lon="2.88735">
        <ele>1087</ele>
        <time>2019-05-12T12:45:03Z</time>
      </trkpt>
      <trkpt lat="44.9981" lon="2.88731">
        <ele>1086.5</ele>
        <time>2019-05-12T12:45:05Z</time>
      </trkpt>
      <trkpt lat="44.99809" lon="2.88726">
        <ele>1086</ele>
        <time>2019-05-12T12:45:07Z</time>
      </trkpt>
      <trkpt lat="44.99809" lon="2.8872">
        <ele>1085.5</ele>
        <time>2019-05-12T12:45:10Z</time>
      </trkpt>
      <trkpt lat="44.9981" lon="2.88716">
        <ele>1085.6</ele>
        <time>2019-05-12T12:45:12Z</time>
      </trkpt>
      <trkpt lat="44.9981" lon="2.88711">
        <ele>1085.8</ele>
        <time>2019-05-12T12:45:15Z</time>
      </trkpt>
      <trkpt lat="44.99811" lon="2.88707">
        <ele>1085.9</ele>
        <time>2019-05-12T12:45:18Z</time>
      </trkpt>
      <trkpt lat="44.99812" lon="2.88703">
        <ele>1085.6</ele>
        <time>2019-05-12T12:45:21Z</time>
      </trkpt>
      <trkpt lat="44.99812" lon="2.88698">
        <ele>1085.3</ele>
        <time>2019-05-12T12:45:24Z</time>
      </trkpt>
      <trkpt lat="44.99813" lon="2.88694">
        <ele>1085.3</ele>
        <time>2019-05-12T12:45:27Z</time>
      </trkpt>
      <trkpt lat="44.99815" lon="2.8869">
        <ele>1085.5</ele>
        <time>2019-05-12T12:45:30Z</time>
      </trkpt>
      <trkpt lat="44.99817" lon="2.88686">
        <ele>1085.2</ele>
        <time>2019-05-12T12:45:33Z</time>
      </trkpt>
      <trkpt lat="44.99818" lon="2.88681">
        <ele>1084.5</ele>
        <time>2019-05-12T12:45:36Z</time>
      </trkpt>
      <trkpt lat="44.99818" lon="2.88677">
        <ele>1084</ele>
        <time>2019-05-12T12:45:54Z</time>
      </trkpt>
      <trkpt lat="44.99819" lon="2.88673">
        <ele>1084.2</ele>
        <time>2019-05-12T12:45:58Z</time>
      </trkpt>
      <trkpt lat="44.9982" lon="2.88669">
        <ele>1084.3</ele>
        <time>2019-05-12T12:46:00Z</time>
      </trkpt>
      <trkpt lat="44.99822" lon="2.88665">
        <ele>1084.4</ele>
        <time>2019-05-12T12:46:03Z</time>
      </trkpt>
      <trkpt lat="44.99823" lon="2.88661">
        <ele>1084.2</ele>
        <time>2019-05-12T12:46:07Z</time>
      </trkpt>
      <trkpt lat="44.99825" lon="2.88656">
        <ele>1084</ele>
        <time>2019-05-12T12:46:11Z</time>
      </trkpt>
      <trkpt lat="44.99825" lon="2.88652">
        <ele>1083.4</ele>
        <time>2019-05-12T12:46:14Z</time>
      </trkpt>
      <trkpt lat="44.99826" lon="2.88647">
        <ele>1082.8</ele>
        <time>2019-05-12T12:46:17Z</time>
      </trkpt>
      <trkpt lat="44.99828" lon="2.88643">
        <ele>1082.8</ele>
        <time>2019-05-12T12:46:20Z</time>
      </trkpt>
      <trkpt lat="44.99829" lon="2.88639">
        <ele>1082.7</ele>
        <time>2019-05-12T12:46:24Z</time>
      </trkpt>
      <trkpt lat="44.99831" lon="2.88635">
        <ele>1082.3</ele>
        <time>2019-05-12T12:46:27Z</time>
      </trkpt>
      <trkpt lat="44.99833" lon="2.88631">
        <ele>1081.8</ele>
        <time>2019-05-12T12:46:31Z</time>
      </trkpt>
      <trkpt lat="44.99834" lon="2.88627">
        <ele>1081.4</ele>
        <time>2019-05-12T12:46:34Z</time>
      </trkpt>
      <trkpt lat="44.99835" lon="2.88623">
        <ele>1081.2</ele>
        <time>2019-05-12T12:46:37Z</time>
      </trkpt>
      <trkpt lat="44.99837" lon="2.88619">
        <ele>1081</ele>
        <time>2019-05-12T12:46:40Z</time>
      </trkpt>
      <trkpt lat="44.9984" lon="2.88617">
        <ele>1080.2</ele>
        <time>2019-05-12T12:46:43Z</time>
      </trkpt>
      <trkpt lat="44.99842" lon="2.88613">
        <ele>1079.4</ele>
        <time>2019-05-12T12:46:46Z</time>
      </trkpt>
      <trkpt lat="44.99843" lon="2.88609">
        <ele>1079.2</ele>
        <time>2019-05-12T12:46:51Z</time>
      </trkpt>
      <trkpt lat="44.99845" lon="2.88606">
        <ele>1079.2</ele>
        <time>2019-05-12T12:46:54Z</time>
      </trkpt>
      <trkpt lat="44.99846" lon="2.88601">
        <ele>1079.3</ele>
        <time>2019-05-12T12:46:57Z</time>
      </trkpt>
      <trkpt lat="44.99848" lon="2.88598">
        <ele>1080.8</ele>
        <time>2019-05-12T12:47:00Z</time>
      </trkpt>
      <trkpt lat="44.99851" lon="2.88595">
        <ele>1081.1</ele>
        <time>2019-05-12T12:47:04Z</time>
      </trkpt>
      <trkpt lat="44.99853" lon="2.88592">
        <ele>1081.1</ele>
        <time>2019-05-12T12:47:07Z</time>
      </trkpt>
      <trkpt lat="44.99854" lon="2.88588">
        <ele>1080.2</ele>
        <time>2019-05-12T12:47:10Z</time>
      </trkpt>
      <trkpt lat="44.99857" lon="2.88585">
        <ele>1081.3</ele>
        <time>2019-05-12T12:47:13Z</time>
      </trkpt>
      <trkpt lat="44.99859" lon="2.88583">
        <ele>1081.6</ele>
        <time>2019-05-12T12:47:17Z</time>
      </trkpt>
      <trkpt lat="44.99862" lon="2.88581">
        <ele>1082.8</ele>
        <time>2019-05-12T12:47:20Z</time>
      </trkpt>
      <trkpt lat="44.99864" lon="2.88578">
        <ele>1082.1</ele>
        <time>2019-05-12T12:47:25Z</time>
      </trkpt>
      <trkpt lat="44.99866" lon="2.88575">
        <ele>1082.6</ele>
        <time>2019-05-12T12:47:28Z</time>
      </trkpt>
      <trkpt lat="44.99868" lon="2.8857">
        <ele>1083.2</ele>
        <time>2019-05-12T12:47:31Z</time>
      </trkpt>
      <trkpt lat="44.99869" lon="2.88567">
        <ele>1082.5</ele>
        <time>2019-05-12T12:47:34Z</time>
      </trkpt>
      <trkpt lat="44.9987" lon="2.88562">
        <ele>1081.8</ele>
        <time>2019-05-12T12:47:37Z</time>
      </trkpt>
      <trkpt lat="44.99873" lon="2.88562">
        <ele>1083.1</ele>
        <time>2019-05-12T12:47:43Z</time>
      </trkpt>
      <trkpt lat="44.99875" lon="2.88558">
        <ele>1083.4</ele>
        <time>2019-05-12T12:47:46Z</time>
      </trkpt>
      <trkpt lat="44.99876" lon="2.88554">
        <ele>1082.6</ele>
        <time>2019-05-12T12:47:50Z</time>
      </trkpt>
      <trkpt lat="44.99878" lon="2.8855">
        <ele>1082.6</ele>
        <time>2019-05-12T12:47:54Z</time>
      </trkpt>
      <trkpt lat="44.99878" lon="2.88546">
        <ele>1081.7</ele>
        <time>2019-05-12T12:47:55Z</time>
      </trkpt>
      <trkpt lat="44.99877" lon="2.88542">
        <ele>1081.7</ele>
        <time>2019-05-12T12:47:58Z</time>
      </trkpt>
      <trkpt lat="44.9988" lon="2.88542">
        <ele>1082.8</ele>
        <time>2019-05-12T12:48:01Z</time>
      </trkpt>
      <trkpt lat="44.99884" lon="2.88541">
        <ele>1082.8</ele>
        <time>2019-05-12T12:48:04Z</time>
      </trkpt>
      <trkpt lat="44.99885" lon="2.88538">
        <ele>1082.8</ele>
        <time>2019-05-12T12:48:07Z</time>
      </trkpt>
      <trkpt lat="44.99887" lon="2.88536">
        <ele>1082.9</ele>
        <time>2019-05-12T12:48:12Z</time>
      </trkpt>
      <trkpt lat="44.99889" lon="2.88532">
        <ele>1082.9</ele>
        <time>2019-05-12T12:48:18Z</time>
      </trkpt>
      <trkpt lat="44.99891" lon="2.88529">
        <ele>1083</ele>
        <time>2019-05-12T12:48:22Z</time>
      </trkpt>
      <trkpt lat="44.99894" lon="2.88527">
        <ele>1083</ele>
        <time>2019-05-12T12:48:25Z</time>
      </trkpt>
      <trkpt lat="44.99894" lon="2.88522">
        <ele>1082.3</ele>
        <time>2019-05-12T12:48:29Z</time>
      </trkpt>
      <trkpt lat="44.99895" lon="2.88518">
        <ele>1082.1</ele>
        <time>2019-05-12T12:48:34Z</time>
      </trkpt>
      <trkpt lat="44.99898" lon="2.88516">
        <ele>1082.1</ele>
        <time>2019-05-12T12:48:38Z</time>
      </trkpt>
      <trkpt lat="44.999" lon="2.88514">
        <ele>1081.7</ele>
        <time>2019-05-12T12:48:43Z</time>
      </trkpt>
      <trkpt lat="44.99901" lon="2.8851">
        <ele>1080.5</ele>
        <time>2019-05-12T12:48:47Z</time>
      </trkpt>
      <trkpt lat="44.99903" lon="2.88507">
        <ele>1080.3</ele>
        <time>2019-05-12T12:48:58Z</time>
      </trkpt>
      <trkpt lat="44.99906" lon="2.88505">
        <ele>1081.3</ele>
        <time>2019-05-12T12:49:02Z</time>
      </trkpt>
      <trkpt lat="44.99909" lon="2.88503">
        <ele>1082.3</ele>
        <time>2019-05-12T12:49:07Z</time>
      </trkpt>
      <trkpt lat="44.99911" lon="2.88501">
        <ele>1082.2</ele>
        <time>2019-05-12T12:49:11Z</time>
      </trkpt>
      <trkpt lat="44.99913" lon="2.88498">
        <ele>1081.3</ele>
        <time>2019-05-12T12:49:15Z</time>
      </trkpt>
      <trkpt lat="44.99916" lon="2.88495">
        <ele>1082.1</ele>
        <time>2019-05-12T12:49:19Z</time>
      </trkpt>
      <trkpt lat="44.99917" lon="2.88491">
        <ele>1081.9</ele>
        <time>2019-05-12T12:49:25Z</time>
      </trkpt>
      <trkpt lat="44.99919" lon="2.88487">
        <ele>1081.7</ele>
        <time>2019-05-12T12:49:28Z</time>
      </trkpt>
      <trkpt lat="44.99921" lon="2.88484">
        <ele>1080.7</ele>
        <time>2019-05-12T12:49:32Z</time>
      </trkpt>
      <trkpt lat="44.99924" lon="2.88482">
        <ele>1081.6</ele>
        <time>2019-05-12T12:49:35Z</time>
      </trkpt>
      <trkpt lat="44.99927" lon="2.8848">
        <ele>1081.7</ele>
        <time>2019-05-12T12:49:39Z</time>
      </trkpt>
      <trkpt lat="44.99928" lon="2.88476">
        <ele>1080.7</ele>
        <time>2019-05-12T12:49:42Z</time>
      </trkpt>
      <trkpt lat="44.99931" lon="2.88474">
        <ele>1081.7</ele>
        <time>2019-05-12T12:49:47Z</time>
      </trkpt>
      <trkpt lat="44.99934" lon="2.88474">
        <ele>1082.8</ele>
        <time>2019-05-12T12:49:50Z</time>
      </trkpt>
      <trkpt lat="44.99936" lon="2.88473">
        <ele>1083.8</ele>
        <time>2019-05-12T12:49:55Z</time>
      </trkpt>
      <trkpt lat="44.99938" lon="2.8847">
        <ele>1083.8</ele>
        <time>2019-05-12T12:49:58Z</time>
      </trkpt>
      <trkpt lat="44.99942" lon="2.8847">
        <ele>1084.8</ele>
        <time>2019-05-12T12:50:02Z</time>
      </trkpt>
      <trkpt lat="44.99945" lon="2.8847">
        <ele>1085.8</ele>
        <time>2019-05-12T12:50:05Z</time>
      </trkpt>
      <trkpt lat="44.99947" lon="2.88467">
        <ele>1085.7</ele>
        <time>2019-05-12T12:50:16Z</time>
      </trkpt>
      <trkpt lat="44.9995" lon="2.88465">
        <ele>1086.3</ele>
        <time>2019-05-12T12:50:31Z</time>
      </trkpt>
      <trkpt lat="44.99953" lon="2.88464">
        <ele>1086.9</ele>
        <time>2019-05-12T12:50:35Z</time>
      </trkpt>
      <trkpt lat="44.99957" lon="2.88463">
        <ele>1086.7</ele>
        <time>2019-05-12T12:50:40Z</time>
      </trkpt>
      <trkpt lat="44.9996" lon="2.88461">
        <ele>1087.3</ele>
        <time>2019-05-12T12:50:43Z</time>
      </trkpt>
      <trkpt lat="44.99963" lon="2.88459">
        <ele>1087.3</ele>
        <time>2019-05-12T12:50:48Z</time>
      </trkpt>
      <trkpt lat="44.99962" lon="2.88463">
        <ele>1087.4</ele>
        <time>2019-05-12T12:50:55Z</time>
      </trkpt>
      <trkpt lat="44.99964" lon="2.88466">
        <ele>1088.7</ele>
        <time>2019-05-12T12:51:10Z</time>
      </trkpt>
      <trkpt lat="44.99965" lon="2.88462">
        <ele>1088.7</ele>
        <time>2019-05-12T12:51:26Z</time>
      </trkpt>
      <trkpt lat="44.99968" lon="2.88459">
        <ele>1088.8</ele>
        <time>2019-05-12T12:51:29Z</time>
      </trkpt>
      <trkpt lat="44.9997" lon="2.88461">
        <ele>1089.3</ele>
        <time>2019-05-12T12:51:32Z</time>
      </trkpt>
      <trkpt lat="44.99973" lon="2.88463">
        <ele>1090</ele>
        <time>2019-05-12T12:51:34Z</time>
      </trkpt>
      <trkpt lat="44.99976" lon="2.88463">
        <ele>1090.7</ele>
        <time>2019-05-12T12:51:38Z</time>
      </trkpt>
      <trkpt lat="44.99979" lon="2.88461">
        <ele>1091.4</ele>
        <time>2019-05-12T12:51:41Z</time>
      </trkpt>
      <trkpt lat="44.99982" lon="2.8846">
        <ele>1092.1</ele>
        <time>2019-05-12T12:51:45Z</time>
      </trkpt>
      <trkpt lat="44.99985" lon="2.88459">
        <ele>1091.9</ele>
        <time>2019-05-12T12:51:48Z</time>
      </trkpt>
      <trkpt lat="44.99988" lon="2.88457">
        <ele>1092.3</ele>
        <time>2019-05-12T12:51:52Z</time>
      </trkpt>
      <trkpt lat="44.99992" lon="2.88456">
        <ele>1093</ele>
        <time>2019-05-12T12:51:56Z</time>
      </trkpt>
      <trkpt lat="44.99996" lon="2.88458">
        <ele>1093.2</ele>
        <time>2019-05-12T12:51:57Z</time>
      </trkpt>
      <trkpt lat="44.99998" lon="2.8846">
        <ele>1094.3</ele>
        <time>2019-05-12T12:52:03Z</time>
      </trkpt>
      <trkpt lat="45.00001" lon="2.8846">
        <ele>1093.4</ele>
        <time>2019-05-12T12:52:12Z</time>
      </trkpt>
      <trkpt lat="45.00002" lon="2.88463">
        <ele>1094.7</ele>
        <time>2019-05-12T12:52:21Z</time>
      </trkpt>
      <trkpt lat="45.00005" lon="2.88464">
        <ele>1094.9</ele>
        <time>2019-05-12T12:52:26Z</time>
      </trkpt>
      <trkpt lat="45.00008" lon="2.88465">
        <ele>1096.4</ele>
        <time>2019-05-12T12:52:30Z</time>
      </trkpt>
      <trkpt lat="45.0001" lon="2.88468">
        <ele>1096.7</ele>
        <time>2019-05-12T12:52:38Z</time>
      </trkpt>
      <trkpt lat="45.00013" lon="2.8847">
        <ele>1097.8</ele>
        <time>2019-05-12T12:52:48Z</time>
      </trkpt>
      <trkpt lat="45.00016" lon="2.88471">
        <ele>1098.1</ele>
        <time>2019-05-12T12:52:52Z</time>
      </trkpt>
      <trkpt lat="45.00017" lon="2.88475">
        <ele>1099.4</ele>
        <time>2019-05-12T12:55:36Z</time>
      </trkpt>
      <trkpt lat="45.00015" lon="2.88477">
        <ele>1099.1</ele>
        <time>2019-05-12T12:55:43Z</time>
      </trkpt>
      <trkpt lat="45.00017" lon="2.88475">
        <ele>1099.5</ele>
        <time>2019-05-12T12:56:10Z</time>
      </trkpt>
      <trkpt lat="45.00017" lon="2.88471">
        <ele>1098.5</ele>
        <time>2019-05-12T12:56:20Z</time>
      </trkpt>
      <trkpt lat="45.00014" lon="2.88471">
        <ele>1098.3</ele>
        <time>2019-05-12T12:56:22Z</time>
      </trkpt>
      <trkpt lat="45.00011" lon="2.88471">
        <ele>1098.1</ele>
        <time>2019-05-12T12:56:25Z</time>
      </trkpt>
      <trkpt lat="45.00009" lon="2.88469">
        <ele>1097.8</ele>
        <time>2019-05-12T12:56:30Z</time>
      </trkpt>
      <trkpt lat="45.00006" lon="2.88469">
        <ele>1097.6</ele>
        <time>2019-05-12T12:56:34Z</time>
      </trkpt>
      <trkpt lat="45.00006" lon="2.88465">
        <ele>1096.6</ele>
        <time>2019-05-12T12:56:39Z</time>
      </trkpt>
      <trkpt lat="45.00008" lon="2.88462">
        <ele>1095.7</ele>
        <time>2019-05-12T12:56:43Z</time>
      </trkpt>
      <trkpt lat="45.0001" lon="2.88459">
        <ele>1094.5</ele>
        <time>2019-05-12T12:56:47Z</time>
      </trkpt>
      <trkpt lat="45.0001" lon="2.88454">
        <ele>1093.3</ele>
        <time>2019-05-12T12:56:52Z</time>
      </trkpt>
      <trkpt lat="45.00012" lon="2.88451">
        <ele>1092.5</ele>
        <time>2019-05-12T12:56:58Z</time>
      </trkpt>
      <trkpt lat="45.00014" lon="2.88449">
        <ele>1092.8</ele>
        <time>2019-05-12T12:57:02Z</time>
      </trkpt>
      <trkpt lat="45.00015" lon="2.88444">
        <ele>1091.9</ele>
        <time>2019-05-12T12:57:05Z</time>
      </trkpt>
      <trkpt lat="45.00014" lon="2.8844">
        <ele>1091.1</ele>
        <time>2019-05-12T12:57:09Z</time>
      </trkpt>
      <trkpt lat="45.00017" lon="2.88437">
        <ele>1090.2</ele>
        <time>2019-05-12T12:57:19Z</time>
      </trkpt>
      <trkpt lat="45.00019" lon="2.88437">
        <ele>1090.4</ele>
        <time>2019-05-12T12:57:24Z</time>
      </trkpt>
      <trkpt lat="45.00019" lon="2.88431">
        <ele>1089.5</ele>
        <time>2019-05-12T12:57:31Z</time>
      </trkpt>
      <trkpt lat="45.00018" lon="2.88427">
        <ele>1088.7</ele>
        <time>2019-05-12T12:57:34Z</time>
      </trkpt>
      <trkpt lat="45.00019" lon="2.88422">
        <ele>1088</ele>
        <time>2019-05-12T12:57:38Z</time>
      </trkpt>
      <trkpt lat="45.0002" lon="2.88418">
        <ele>1087.3</ele>
        <time>2019-05-12T12:57:41Z</time>
      </trkpt>
      <trkpt lat="45.00021" lon="2.88414">
        <ele>1086.6</ele>
        <time>2019-05-12T12:57:43Z</time>
      </trkpt>
      <trkpt lat="45.00024" lon="2.88409">
        <ele>1085.9</ele>
        <time>2019-05-12T12:57:46Z</time>
      </trkpt>
      <trkpt lat="45.00024" lon="2.88406">
        <ele>1085.2</ele>
        <time>2019-05-12T12:57:48Z</time>
      </trkpt>
      <trkpt lat="45.00024" lon="2.88402">
        <ele>1084.5</ele>
        <time>2019-05-12T12:57:51Z</time>
      </trkpt>
      <trkpt lat="45.00023" lon="2.88399">
        <ele>1083.7</ele>
        <time>2019-05-12T12:57:55Z</time>
      </trkpt>
      <trkpt lat="45.00023" lon="2.88395">
        <ele>1082.9</ele>
        <time>2019-05-12T12:57:58Z</time>
      </trkpt>
      <trkpt lat="45.00023" lon="2.88392">
        <ele>1082.9</ele>
        <time>2019-05-12T12:58:00Z</time>
      </trkpt>
      <trkpt lat="45.00023" lon="2.88389">
        <ele>1082</ele>
        <time>2019-05-12T12:58:03Z</time>
      </trkpt>
      <trkpt lat="45.00023" lon="2.88385">
        <ele>1081.2</ele>
        <time>2019-05-12T12:58:08Z</time>
      </trkpt>
      <trkpt lat="45.00023" lon="2.88382">
        <ele>1080.4</ele>
        <time>2019-05-12T12:58:13Z</time>
      </trkpt>
      <trkpt lat="45.00023" lon="2.88379">
        <ele>1080.4</ele>
        <time>2019-05-12T12:58:18Z</time>
      </trkpt>
      <trkpt lat="45.00023" lon="2.88375">
        <ele>1079.7</ele>
        <time>2019-05-12T12:58:21Z</time>
      </trkpt>
      <trkpt lat="45.00022" lon="2.88372">
        <ele>1079</ele>
        <time>2019-05-12T12:58:24Z</time>
      </trkpt>
      <trkpt lat="45.00022" lon="2.88368">
        <ele>1078.3</ele>
        <time>2019-05-12T12:58:29Z</time>
      </trkpt>
      <trkpt lat="45.00022" lon="2.88365">
        <ele>1077.3</ele>
        <time>2019-05-12T12:58:36Z</time>
      </trkpt>
      <trkpt lat="45.00022" lon="2.88362">
        <ele>1077.4</ele>
        <time>2019-05-12T12:58:41Z</time>
      </trkpt>
      <trkpt lat="45.00022" lon="2.88358">
        <ele>1076.7</ele>
        <time>2019-05-12T12:58:49Z</time>
      </trkpt>
      <trkpt lat="45.00022" lon="2.88355">
        <ele>1076</ele>
        <time>2019-05-12T12:58:54Z</time>
      </trkpt>
      <trkpt lat="45.00022" lon="2.88352">
        <ele>1075.3</ele>
        <time>2019-05-12T13:03:51Z</time>
      </trkpt>
      <trkpt lat="45.00022" lon="2.88348">
        <ele>1074.7</ele>
        <time>2019-05-12T13:03:52Z</time>
      </trkpt>
      <trkpt lat="45.00017" lon="2.88346">
        <ele>1074.4</ele>
        <time>2019-05-12T13:03:53Z</time>
      </trkpt>
      <trkpt lat="45.00018" lon="2.88342">
        <ele>1074</ele>
        <time>2019-05-12T13:04:08Z</time>
      </trkpt>
      <trkpt lat="45.0002" lon="2.8834">
        <ele>1074.3</ele>
        <time>2019-05-12T13:04:16Z</time>
      </trkpt>
      <trkpt lat="45.00021" lon="2.88336">
        <ele>1073.8</ele>
        <time>2019-05-12T13:04:20Z</time>
      </trkpt>
      <trkpt lat="45.00021" lon="2.88332">
        <ele>1073.4</ele>
        <time>2019-05-12T13:04:23Z</time>
      </trkpt>
      <trkpt lat="45.00022" lon="2.88328">
        <ele>1072.8</ele>
        <time>2019-05-12T13:04:27Z</time>
      </trkpt>
      <trkpt lat="45.00025" lon="2.88326">
        <ele>1072.5</ele>
        <time>2019-05-12T13:04:31Z</time>
      </trkpt>
      <trkpt lat="45.00027" lon="2.88325">
        <ele>1072.9</ele>
        <time>2019-05-12T13:04:34Z</time>
      </trkpt>
      <trkpt lat="45.00029" lon="2.88321">
        <ele>1072.7</ele>
        <time>2019-05-12T13:04:37Z</time>
      </trkpt>
      <trkpt lat="45.00029" lon="2.88317">
        <ele>1072.2</ele>
        <time>2019-05-12T13:04:39Z</time>
      </trkpt>
      <trkpt lat="45.00028" lon="2.88312">
        <ele>1071.6</ele>
        <time>2019-05-12T13:04:42Z</time>
      </trkpt>
      <trkpt lat="45.00029" lon="2.88308">
        <ele>1070.9</ele>
        <time>2019-05-12T13:04:44Z</time>
      </trkpt>
      <trkpt lat="45.0003" lon="2.88304">
        <ele>1070.2</ele>
        <time>2019-05-12T13:04:48Z</time>
      </trkpt>
      <trkpt lat="45.00028" lon="2.88299">
        <ele>1069</ele>
        <time>2019-05-12T13:04:51Z</time>
      </trkpt>
      <trkpt lat="45.00029" lon="2.88295">
        <ele>1068.7</ele>
        <time>2019-05-12T13:04:58Z</time>
      </trkpt>
      <trkpt lat="45.00028" lon="2.88292">
        <ele>1067.4</ele>
        <time>2019-05-12T13:05:02Z</time>
      </trkpt>
      <trkpt lat="45.00026" lon="2.88288">
        <ele>1067.4</ele>
        <time>2019-05-12T13:05:06Z</time>
      </trkpt>
      <trkpt lat="45.00023" lon="2.88286">
        <ele>1066.2</ele>
        <time>2019-05-12T13:05:09Z</time>
      </trkpt>
      <trkpt lat="45.0002" lon="2.88283">
        <ele>1065.1</ele>
        <time>2019-05-12T13:05:12Z</time>
      </trkpt>
      <trkpt lat="45.00017" lon="2.88281">
        <ele>1064.9</ele>
        <time>2019-05-12T13:05:14Z</time>
      </trkpt>
      <trkpt lat="45.00014" lon="2.8828">
        <ele>1064.7</ele>
        <time>2019-05-12T13:05:17Z</time>
      </trkpt>
      <trkpt lat="45.00011" lon="2.88281">
        <ele>1064.5</ele>
        <time>2019-05-12T13:05:19Z</time>
      </trkpt>
      <trkpt lat="45.00008" lon="2.88281">
        <ele>1064.3</ele>
        <time>2019-05-12T13:05:22Z</time>
      </trkpt>
      <trkpt lat="45.00005" lon="2.88281">
        <ele>1064.1</ele>
        <time>2019-05-12T13:05:25Z</time>
      </trkpt>
      <trkpt lat="45.00001" lon="2.88281">
        <ele>1063.6</ele>
        <time>2019-05-12T13:05:28Z</time>
      </trkpt>
      <trkpt lat="44.99998" lon="2.88281">
        <ele>1063.6</ele>
        <time>2019-05-12T13:05:31Z</time>
      </trkpt>
      <trkpt lat="44.99995" lon="2.88283">
        <ele>1063.1</ele>
        <time>2019-05-12T13:05:34Z</time>
      </trkpt>
      <trkpt lat="44.99992" lon="2.88284">
        <ele>1063.4</ele>
        <time>2019-05-12T13:05:36Z</time>
      </trkpt>
      <trkpt lat="44.99989" lon="2.88288">
        <ele>1062.9</ele>
        <time>2019-05-12T13:05:39Z</time>
      </trkpt>
      <trkpt lat="44.99986" lon="2.88291">
        <ele>1063.7</ele>
        <time>2019-05-12T13:05:42Z</time>
      </trkpt>
      <trkpt lat="44.99983" lon="2.88294">
        <ele>1064</ele>
        <time>2019-05-12T13:05:45Z</time>
      </trkpt>
      <trkpt lat="44.99986" lon="2.88293">
        <ele>1064.5</ele>
        <time>2019-05-12T13:05:52Z</time>
      </trkpt>
      <trkpt lat="44.99988" lon="2.88291">
        <ele>1063.8</ele>
        <time>2019-05-12T13:05:55Z</time>
      </trkpt>
      <trkpt lat="44.99991" lon="2.88287">
        <ele>1063.6</ele>
        <time>2019-05-12T13:05:58Z</time>
      </trkpt>
      <trkpt lat="44.99994" lon="2.88284">
        <ele>1064.1</ele>
        <time>2019-05-12T13:06:02Z</time>
      </trkpt>
      <trkpt lat="44.99996" lon="2.88281">
        <ele>1063.8</ele>
        <time>2019-05-12T13:06:05Z</time>
      </trkpt>
      <trkpt lat="44.99999" lon="2.88278">
        <ele>1063.2</ele>
        <time>2019-05-12T13:06:08Z</time>
      </trkpt>
      <trkpt lat="45.00002" lon="2.88275">
        <ele>1062.5</ele>
        <time>2019-05-12T13:06:11Z</time>
      </trkpt>
      <trkpt lat="45.00004" lon="2.88272">
        <ele>1062.8</ele>
        <time>2019-05-12T13:06:13Z</time>
      </trkpt>
      <trkpt lat="45.00007" lon="2.8827">
        <ele>1062.1</ele>
        <time>2019-05-12T13:06:16Z</time>
      </trkpt>
      <trkpt lat="45.0001" lon="2.88269">
        <ele>1062.4</ele>
        <time>2019-05-12T13:06:19Z</time>
      </trkpt>
      <trkpt lat="45.00013" lon="2.88265">
        <ele>1061.5</ele>
        <time>2019-05-12T13:06:22Z</time>
      </trkpt>
      <trkpt lat="45.00013" lon="2.8826">
        <ele>1060.5</ele>
        <time>2019-05-12T13:06:25Z</time>
      </trkpt>
      <trkpt lat="45.00011" lon="2.88256">
        <ele>1059.5</ele>
        <time>2019-05-12T13:06:27Z</time>
      </trkpt>
      <trkpt lat="45.00009" lon="2.88253">
        <ele>1058.3</ele>
        <time>2019-05-12T13:06:29Z</time>
      </trkpt>
      <trkpt lat="45.00006" lon="2.88251">
        <ele>1058.7</ele>
        <time>2019-05-12T13:06:32Z</time>
      </trkpt>
      <trkpt lat="45.00003" lon="2.8825">
        <ele>1058.5</ele>
        <time>2019-05-12T13:06:35Z</time>
      </trkpt>
      <trkpt lat="45" lon="2.8825">
        <ele>1058.3</ele>
        <time>2019-05-12T13:06:39Z</time>
      </trkpt>
      <trkpt lat="44.99996" lon="2.88251">
        <ele>1058.1</ele>
        <time>2019-05-12T13:06:43Z</time>
      </trkpt>
      <trkpt lat="44.99993" lon="2.88251">
        <ele>1057.8</ele>
        <time>2019-05-12T13:06:46Z</time>
      </trkpt>
      <trkpt lat="44.99989" lon="2.88252">
        <ele>1057.3</ele>
        <time>2019-05-12T13:06:48Z</time>
      </trkpt>
      <trkpt lat="44.99986" lon="2.88252">
        <ele>1056.9</ele>
        <time>2019-05-12T13:06:51Z</time>
      </trkpt>
      <trkpt lat="44.99983" lon="2.88252">
        <ele>1056.4</ele>
        <time>2019-05-12T13:06:54Z</time>
      </trkpt>
      <trkpt lat="44.9998" lon="2.88252">
        <ele>1055.8</ele>
        <time>2019-05-12T13:06:58Z</time>
      </trkpt>
      <trkpt lat="44.99978" lon="2.88254">
        <ele>1055.1</ele>
        <time>2019-05-12T13:07:03Z</time>
      </trkpt>
      <trkpt lat="44.99976" lon="2.8825">
        <ele>1054.4</ele>
        <time>2019-05-12T13:07:10Z</time>
      </trkpt>
      <trkpt lat="44.99977" lon="2.88246">
        <ele>1053.7</ele>
        <time>2019-05-12T13:07:15Z</time>
      </trkpt>
      <trkpt lat="44.99978" lon="2.88242">
        <ele>1053.7</ele>
        <time>2019-05-12T13:07:18Z</time>
      </trkpt>
      <trkpt lat="44.99974" lon="2.88242">
        <ele>1053</ele>
        <time>2019-05-12T13:07:23Z</time>
      </trkpt>
      <trkpt lat="44.99971" lon="2.88245">
        <ele>1051.6</ele>
        <time>2019-05-12T13:07:25Z</time>
      </trkpt>
      <trkpt lat="44.99967" lon="2.88247">
        <ele>1051.7</ele>
        <time>2019-05-12T13:07:28Z</time>
      </trkpt>
      <trkpt lat="44.99964" lon="2.8825">
        <ele>1051.8</ele>
        <time>2019-05-12T13:07:31Z</time>
      </trkpt>
      <trkpt lat="44.99962" lon="2.88252">
        <ele>1051.9</ele>
        <time>2019-05-12T13:07:33Z</time>
      </trkpt>
      <trkpt lat="44.99959" lon="2.88255">
        <ele>1052.1</ele>
        <time>2019-05-12T13:07:36Z</time>
      </trkpt>
      <trkpt lat="44.99956" lon="2.88257">
        <ele>1052.3</ele>
        <time>2019-05-12T13:07:39Z</time>
      </trkpt>
      <trkpt lat="44.99953" lon="2.88258">
        <ele>1052.5</ele>
        <time>2019-05-12T13:07:43Z</time>
      </trkpt>
      <trkpt lat="44.99951" lon="2.88261">
        <ele>1052.8</ele>
        <time>2019-05-12T13:07:46Z</time>
      </trkpt>
      <trkpt lat="44.99949" lon="2.88265">
        <ele>1053.1</ele>
        <time>2019-05-12T13:07:49Z</time>
      </trkpt>
      <trkpt lat="44.99946" lon="2.88269">
        <ele>1053.3</ele>
        <time>2019-05-12T13:07:51Z</time>
      </trkpt>
      <trkpt lat="44.99945" lon="2.88275">
        <ele>1053.6</ele>
        <time>2019-05-12T13:07:53Z</time>
      </trkpt>
      <trkpt lat="44.99944" lon="2.88278">
        <ele>1053.6</ele>
        <time>2019-05-12T13:07:55Z</time>
      </trkpt>
      <trkpt lat="44.99941" lon="2.88281">
        <ele>1053.6</ele>
        <time>2019-05-12T13:07:58Z</time>
      </trkpt>
      <trkpt lat="44.99938" lon="2.88284">
        <ele>1053.6</ele>
        <time>2019-05-12T13:08:01Z</time>
      </trkpt>
      <trkpt lat="44.99935" lon="2.88286">
        <ele>1053.5</ele>
        <time>2019-05-12T13:08:04Z</time>
      </trkpt>
      <trkpt lat="44.99933" lon="2.88289">
        <ele>1053.5</ele>
        <time>2019-05-12T13:08:08Z</time>
      </trkpt>
      <trkpt lat="44.99931" lon="2.88293">
        <ele>1053.4</ele>
        <time>2019-05-12T13:08:13Z</time>
      </trkpt>
      <trkpt lat="44.99929" lon="2.88299">
        <ele>1053.3</ele>
        <time>2019-05-12T13:08:16Z</time>
      </trkpt>
      <trkpt lat="44.99929" lon="2.88304">
        <ele>1053.4</ele>
        <time>2019-05-12T13:08:18Z</time>
      </trkpt>
      <trkpt lat="44.99927" lon="2.88308">
        <ele>1053.8</ele>
        <time>2019-05-12T13:08:20Z</time>
      </trkpt>
      <trkpt lat="44.99924" lon="2.88311">
        <ele>1054.2</ele>
        <time>2019-05-12T13:08:23Z</time>
      </trkpt>
      <trkpt lat="44.99921" lon="2.88312">
        <ele>1054.4</ele>
        <time>2019-05-12T13:08:25Z</time>
      </trkpt>
      <trkpt lat="44.99917" lon="2.88311">
        <ele>1054.5</ele>
        <time>2019-05-12T13:08:27Z</time>
      </trkpt>
      <trkpt lat="44.99913" lon="2.88311">
        <ele>1054.6</ele>
        <time>2019-05-12T13:08:30Z</time>
      </trkpt>
      <trkpt lat="44.9991" lon="2.88315">
        <ele>1054.7</ele>
        <time>2019-05-12T13:08:33Z</time>
      </trkpt>
      <trkpt lat="44.99908" lon="2.88319">
        <ele>1054.7</ele>
        <time>2019-05-12T13:08:35Z</time>
      </trkpt>
      <trkpt lat="44.99907" lon="2.88324">
        <ele>1054.4</ele>
        <time>2019-05-12T13:08:37Z</time>
      </trkpt>
      <trkpt lat="44.99905" lon="2.88327">
        <ele>1054.1</ele>
        <time>2019-05-12T13:08:39Z</time>
      </trkpt>
      <trkpt lat="44.99902" lon="2.8833">
        <ele>1053.8</ele>
        <time>2019-05-12T13:08:41Z</time>
      </trkpt>
      <trkpt lat="44.999" lon="2.88332">
        <ele>1053.7</ele>
        <time>2019-05-12T13:08:43Z</time>
      </trkpt>
      <trkpt lat="44.99897" lon="2.88336">
        <ele>1053.6</ele>
        <time>2019-05-12T13:08:45Z</time>
      </trkpt>
      <trkpt lat="44.99895" lon="2.88339">
        <ele>1053.5</ele>
        <time>2019-05-12T13:08:48Z</time>
      </trkpt>
      <trkpt lat="44.99893" lon="2.88344">
        <ele>1053.4</ele>
        <time>2019-05-12T13:08:51Z</time>
      </trkpt>
      <trkpt lat="44.9989" lon="2.88345">
        <ele>1053.4</ele>
        <time>2019-05-12T13:08:54Z</time>
      </trkpt>
      <trkpt lat="44.99888" lon="2.88351">
        <ele>1053.1</ele>
        <time>2019-05-12T13:08:58Z</time>
      </trkpt>
      <trkpt lat="44.99887" lon="2.88356">
        <ele>1052.9</ele>
        <time>2019-05-12T13:09:00Z</time>
      </trkpt>
      <trkpt lat="44.99887" lon="2.88361">
        <ele>1052.8</ele>
        <time>2019-05-12T13:09:02Z</time>
      </trkpt>
      <trkpt lat="44.99885" lon="2.88366">
        <ele>1052.9</ele>
        <time>2019-05-12T13:09:04Z</time>
      </trkpt>
      <trkpt lat="44.99882" lon="2.88367">
        <ele>1052.9</ele>
        <time>2019-05-12T13:09:08Z</time>
      </trkpt>
      <trkpt lat="44.99879" lon="2.88371">
        <ele>1053.2</ele>
        <time>2019-05-12T13:09:12Z</time>
      </trkpt>
      <trkpt lat="44.99877" lon="2.88374">
        <ele>1053.4</ele>
        <time>2019-05-12T13:09:14Z</time>
      </trkpt>
      <trkpt lat="44.99873" lon="2.88378">
        <ele>1053.7</ele>
        <time>2019-05-12T13:09:17Z</time>
      </trkpt>
      <trkpt lat="44.99871" lon="2.88382">
        <ele>1053.9</ele>
        <time>2019-05-12T13:09:19Z</time>
      </trkpt>
      <trkpt lat="44.99869" lon="2.88386">
        <ele>1054.2</ele>
        <time>2019-05-12T13:09:22Z</time>
      </trkpt>
      <trkpt lat="44.99869" lon="2.88391">
        <ele>1054</ele>
        <time>2019-05-12T13:09:24Z</time>
      </trkpt>
      <trkpt lat="44.99865" lon="2.88392">
        <ele>1053.8</ele>
        <time>2019-05-12T13:09:27Z</time>
      </trkpt>
      <trkpt lat="44.99863" lon="2.88392">
        <ele>1053.7</ele>
        <time>2019-05-12T13:09:29Z</time>
      </trkpt>
      <trkpt lat="44.9986" lon="2.88395">
        <ele>1053.8</ele>
        <time>2019-05-12T13:09:31Z</time>
      </trkpt>
      <trkpt lat="44.99858" lon="2.88399">
        <ele>1053.9</ele>
        <time>2019-05-12T13:09:34Z</time>
      </trkpt>
      <trkpt lat="44.99856" lon="2.88401">
        <ele>1054</ele>
        <time>2019-05-12T13:09:36Z</time>
      </trkpt>
      <trkpt lat="44.99853" lon="2.88403">
        <ele>1054</ele>
        <time>2019-05-12T13:09:38Z</time>
      </trkpt>
      <trkpt lat="44.99849" lon="2.88404">
        <ele>1054.2</ele>
        <time>2019-05-12T13:09:40Z</time>
      </trkpt>
      <trkpt lat="44.99847" lon="2.88403">
        <ele>1054.2</ele>
        <time>2019-05-12T13:09:41Z</time>
      </trkpt>
      <trkpt lat="44.99844" lon="2.88404">
        <ele>1054.3</ele>
        <time>2019-05-12T13:09:43Z</time>
      </trkpt>
      <trkpt lat="44.99842" lon="2.88408">
        <ele>1054.4</ele>
        <time>2019-05-12T13:09:46Z</time>
      </trkpt>
      <trkpt lat="44.99841" lon="2.88413">
        <ele>1054.3</ele>
        <time>2019-05-12T13:09:48Z</time>
      </trkpt>
      <trkpt lat="44.99839" lon="2.88416">
        <ele>1054.2</ele>
        <time>2019-05-12T13:09:50Z</time>
      </trkpt>
      <trkpt lat="44.99836" lon="2.88418">
        <ele>1054</ele>
        <time>2019-05-12T13:09:53Z</time>
      </trkpt>
      <trkpt lat="44.99833" lon="2.88421">
        <ele>1053.4</ele>
        <time>2019-05-12T13:09:55Z</time>
      </trkpt>
      <trkpt lat="44.99831" lon="2.88425">
        <ele>1052.8</ele>
        <time>2019-05-12T13:09:58Z</time>
      </trkpt>
      <trkpt lat="44.99828" lon="2.88427">
        <ele>1052.3</ele>
        <time>2019-05-12T13:10:00Z</time>
      </trkpt>
      <trkpt lat="44.99825" lon="2.88429">
        <ele>1051.8</ele>
        <time>2019-05-12T13:10:03Z</time>
      </trkpt>
      <trkpt lat="44.99822" lon="2.88431">
        <ele>1051.3</ele>
        <time>2019-05-12T13:10:07Z</time>
      </trkpt>
      <trkpt lat="44.9982" lon="2.88436">
        <ele>1050.9</ele>
        <time>2019-05-12T13:10:11Z</time>
      </trkpt>
      <trkpt lat="44.99818" lon="2.88439">
        <ele>1050.5</ele>
        <time>2019-05-12T13:10:13Z</time>
      </trkpt>
      <trkpt lat="44.99817" lon="2.88443">
        <ele>1050.1</ele>
        <time>2019-05-12T13:10:16Z</time>
      </trkpt>
      <trkpt lat="44.99814" lon="2.88446">
        <ele>1049.8</ele>
        <time>2019-05-12T13:10:19Z</time>
      </trkpt>
      <trkpt lat="44.99811" lon="2.8845">
        <ele>1049.6</ele>
        <time>2019-05-12T13:10:22Z</time>
      </trkpt>
      <trkpt lat="44.99809" lon="2.88454">
        <ele>1049.3</ele>
        <time>2019-05-12T13:10:25Z</time>
      </trkpt>
      <trkpt lat="44.99807" lon="2.88458">
        <ele>1049</ele>
        <time>2019-05-12T13:10:27Z</time>
      </trkpt>
      <trkpt lat="44.99805" lon="2.8846">
        <ele>1048.7</ele>
        <time>2019-05-12T13:10:29Z</time>
      </trkpt>
      <trkpt lat="44.99802" lon="2.88461">
        <ele>1048.5</ele>
        <time>2019-05-12T13:10:31Z</time>
      </trkpt>
      <trkpt lat="44.99799" lon="2.88462">
        <ele>1048.4</ele>
        <time>2019-05-12T13:10:33Z</time>
      </trkpt>
      <trkpt lat="44.99796" lon="2.88465">
        <ele>1048.2</ele>
        <time>2019-05-12T13:10:36Z</time>
      </trkpt>
      <trkpt lat="44.99793" lon="2.88469">
        <ele>1048.1</ele>
        <time>2019-05-12T13:10:38Z</time>
      </trkpt>
      <trkpt lat="44.9979" lon="2.88471">
        <ele>1048</ele>
        <time>2019-05-12T13:10:41Z</time>
      </trkpt>
      <trkpt lat="44.99788" lon="2.88475">
        <ele>1047.9</ele>
        <time>2019-05-12T13:10:44Z</time>
      </trkpt>
      <trkpt lat="44.99786" lon="2.88479">
        <ele>1047.8</ele>
        <time>2019-05-12T13:10:47Z</time>
      </trkpt>
      <trkpt lat="44.99784" lon="2.88482">
        <ele>1047.7</ele>
        <time>2019-05-12T13:10:50Z</time>
      </trkpt>
      <trkpt lat="44.99782" lon="2.88485">
        <ele>1047.7</ele>
        <time>2019-05-12T13:10:52Z</time>
      </trkpt>
      <trkpt lat="44.99779" lon="2.88488">
        <ele>1047.6</ele>
        <time>2019-05-12T13:10:55Z</time>
      </trkpt>
      <trkpt lat="44.99776" lon="2.88491">
        <ele>1047.5</ele>
        <time>2019-05-12T13:10:58Z</time>
      </trkpt>
      <trkpt lat="44.99774" lon="2.88493">
        <ele>1047.7</ele>
        <time>2019-05-12T13:11:00Z</time>
      </trkpt>
      <trkpt lat="44.99771" lon="2.88495">
        <ele>1047.9</ele>
        <time>2019-05-12T13:11:03Z</time>
      </trkpt>
      <trkpt lat="44.99768" lon="2.88498">
        <ele>1048.2</ele>
        <time>2019-05-12T13:11:06Z</time>
      </trkpt>
      <trkpt lat="44.99767" lon="2.88502">
        <ele>1048.2</ele>
        <time>2019-05-12T13:11:08Z</time>
      </trkpt>
      <trkpt lat="44.99766" lon="2.88506">
        <ele>1048.3</ele>
        <time>2019-05-12T13:11:10Z</time>
      </trkpt>
      <trkpt lat="44.99766" lon="2.88511">
        <ele>1048.4</ele>
        <time>2019-05-12T13:11:12Z</time>
      </trkpt>
      <trkpt lat="44.99763" lon="2.88514">
        <ele>1048.8</ele>
        <time>2019-05-12T13:11:15Z</time>
      </trkpt>
      <trkpt lat="44.9976" lon="2.88515">
        <ele>1049.1</ele>
        <time>2019-05-12T13:11:19Z</time>
      </trkpt>
      <trkpt lat="44.99757" lon="2.88517">
        <ele>1049.2</ele>
        <time>2019-05-12T13:11:23Z</time>
      </trkpt>
      <trkpt lat="44.99756" lon="2.88522">
        <ele>1049.1</ele>
        <time>2019-05-12T13:11:26Z</time>
      </trkpt>
      <trkpt lat="44.99754" lon="2.88526">
        <ele>1048.9</ele>
        <time>2019-05-12T13:11:29Z</time>
      </trkpt>
      <trkpt lat="44.99751" lon="2.88527">
        <ele>1049.1</ele>
        <time>2019-05-12T13:11:32Z</time>
      </trkpt>
      <trkpt lat="44.9975" lon="2.88531">
        <ele>1049.4</ele>
        <time>2019-05-12T13:11:35Z</time>
      </trkpt>
      <trkpt lat="44.9975" lon="2.88536">
        <ele>1049.7</ele>
        <time>2019-05-12T13:11:37Z</time>
      </trkpt>
      <trkpt lat="44.9975" lon="2.88542">
        <ele>1050</ele>
        <time>2019-05-12T13:11:39Z</time>
      </trkpt>
      <trkpt lat="44.99747" lon="2.88544">
        <ele>1050.4</ele>
        <time>2019-05-12T13:11:43Z</time>
      </trkpt>
      <trkpt lat="44.99745" lon="2.88548">
        <ele>1050.6</ele>
        <time>2019-05-12T13:11:51Z</time>
      </trkpt>
      <trkpt lat="44.99744" lon="2.88552">
        <ele>1050.8</ele>
        <time>2019-05-12T13:11:53Z</time>
      </trkpt>
      <trkpt lat="44.99742" lon="2.88556">
        <ele>1051.1</ele>
        <time>2019-05-12T13:11:55Z</time>
      </trkpt>
      <trkpt lat="44.9974" lon="2.88559">
        <ele>1051.2</ele>
        <time>2019-05-12T13:11:57Z</time>
      </trkpt>
      <trkpt lat="44.99739" lon="2.88563">
        <ele>1051.2</ele>
        <time>2019-05-12T13:11:59Z</time>
      </trkpt>
      <trkpt lat="44.99737" lon="2.88567">
        <ele>1051.2</ele>
        <time>2019-05-12T13:12:01Z</time>
      </trkpt>
      <trkpt lat="44.99736" lon="2.88571">
        <ele>1051.2</ele>
        <time>2019-05-12T13:12:03Z</time>
      </trkpt>
      <trkpt lat="44.99734" lon="2.88575">
        <ele>1051.4</ele>
        <time>2019-05-12T13:12:07Z</time>
      </trkpt>
      <trkpt lat="44.99733" lon="2.88578">
        <ele>1051.5</ele>
        <time>2019-05-12T13:12:10Z</time>
      </trkpt>
      <trkpt lat="44.99732" lon="2.88582">
        <ele>1051.6</ele>
        <time>2019-05-12T13:12:13Z</time>
      </trkpt>
      <trkpt lat="44.99732" lon="2.88588">
        <ele>1051.6</ele>
        <time>2019-05-12T13:12:16Z</time>
      </trkpt>
      <trkpt lat="44.99731" lon="2.88593">
        <ele>1051.7</ele>
        <time>2019-05-12T13:12:19Z</time>
      </trkpt>
      <trkpt lat="44.9973" lon="2.88597">
        <ele>1051.8</ele>
        <time>2019-05-12T13:12:23Z</time>
      </trkpt>
      <trkpt lat="44.99729" lon="2.88601">
        <ele>1051.9</ele>
        <time>2019-05-12T13:12:26Z</time>
      </trkpt>
      <trkpt lat="44.99728" lon="2.88605">
        <ele>1052</ele>
        <time>2019-05-12T13:12:28Z</time>
      </trkpt>
      <trkpt lat="44.99729" lon="2.8861">
        <ele>1052.2</ele>
        <time>2019-05-12T13:12:30Z</time>
      </trkpt>
      <trkpt lat="44.99729" lon="2.88615">
        <ele>1052.4</ele>
        <time>2019-05-12T13:12:32Z</time>
      </trkpt>
      <trkpt lat="44.9973" lon="2.88619">
        <ele>1052.6</ele>
        <time>2019-05-12T13:12:34Z</time>
      </trkpt>
      <trkpt lat="44.99729" lon="2.88624">
        <ele>1052.8</ele>
        <time>2019-05-12T13:12:36Z</time>
      </trkpt>
      <trkpt lat="44.99729" lon="2.8863">
        <ele>1053.2</ele>
        <time>2019-05-12T13:12:39Z</time>
      </trkpt>
      <trkpt lat="44.99729" lon="2.88634">
        <ele>1053.3</ele>
        <time>2019-05-12T13:12:42Z</time>
      </trkpt>
      <trkpt lat="44.99729" lon="2.8864">
        <ele>1053.1</ele>
        <time>2019-05-12T13:12:45Z</time>
      </trkpt>
      <trkpt lat="44.99728" lon="2.88646">
        <ele>1052.9</ele>
        <time>2019-05-12T13:12:48Z</time>
      </trkpt>
      <trkpt lat="44.99727" lon="2.8865">
        <ele>1053</ele>
        <time>2019-05-12T13:12:50Z</time>
      </trkpt>
      <trkpt lat="44.99727" lon="2.88655">
        <ele>1053.1</ele>
        <time>2019-05-12T13:12:53Z</time>
      </trkpt>
      <trkpt lat="44.99727" lon="2.8866">
        <ele>1053.3</ele>
        <time>2019-05-12T13:12:55Z</time>
      </trkpt>
      <trkpt lat="44.99728" lon="2.88664">
        <ele>1053.5</ele>
        <time>2019-05-12T13:12:57Z</time>
      </trkpt>
      <trkpt lat="44.99728" lon="2.88669">
        <ele>1053.7</ele>
        <time>2019-05-12T13:12:59Z</time>
      </trkpt>
      <trkpt lat="44.99727" lon="2.88675">
        <ele>1053.9</ele>
        <time>2019-05-12T13:13:01Z</time>
      </trkpt>
      <trkpt lat="44.99727" lon="2.88681">
        <ele>1054.1</ele>
        <time>2019-05-12T13:13:03Z</time>
      </trkpt>
      <trkpt lat="44.99727" lon="2.88687">
        <ele>1054.2</ele>
        <time>2019-05-12T13:13:05Z</time>
      </trkpt>
      <trkpt lat="44.99726" lon="2.88691">
        <ele>1054.2</ele>
        <time>2019-05-12T13:13:09Z</time>
      </trkpt>
      <trkpt lat="44.99726" lon="2.88695">
        <ele>1054.2</ele>
        <time>2019-05-12T13:13:13Z</time>
      </trkpt>
      <trkpt lat="44.99723" lon="2.88698">
        <ele>1054.3</ele>
        <time>2019-05-12T13:13:17Z</time>
      </trkpt>
      <trkpt lat="44.99721" lon="2.88701">
        <ele>1054.5</ele>
        <time>2019-05-12T13:13:21Z</time>
      </trkpt>
      <trkpt lat="44.9972" lon="2.88706">
        <ele>1054.7</ele>
        <time>2019-05-12T13:13:24Z</time>
      </trkpt>
      <trkpt lat="44.99718" lon="2.88708">
        <ele>1054.9</ele>
        <time>2019-05-12T13:13:29Z</time>
      </trkpt>
      <trkpt lat="44.99716" lon="2.88713">
        <ele>1055.3</ele>
        <time>2019-05-12T13:13:32Z</time>
      </trkpt>
      <trkpt lat="44.99714" lon="2.88716">
        <ele>1055.6</ele>
        <time>2019-05-12T13:13:35Z</time>
      </trkpt>
      <trkpt lat="44.99712" lon="2.8872">
        <ele>1056</ele>
        <time>2019-05-12T13:13:39Z</time>
      </trkpt>
      <trkpt lat="44.99711" lon="2.88723">
        <ele>1056.3</ele>
        <time>2019-05-12T13:13:42Z</time>
      </trkpt>
      <trkpt lat="44.99709" lon="2.88726">
        <ele>1056.6</ele>
        <time>2019-05-12T13:13:46Z</time>
      </trkpt>
      <trkpt lat="44.99707" lon="2.88731">
        <ele>1057</ele>
        <time>2019-05-12T13:13:49Z</time>
      </trkpt>
      <trkpt lat="44.99705" lon="2.88736">
        <ele>1057.5</ele>
        <time>2019-05-12T13:13:51Z</time>
      </trkpt>
      <trkpt lat="44.99704" lon="2.8874">
        <ele>1057.8</ele>
        <time>2019-05-12T13:13:53Z</time>
      </trkpt>
      <trkpt lat="44.99703" lon="2.88745">
        <ele>1058.1</ele>
        <time>2019-05-12T13:13:57Z</time>
      </trkpt>
      <trkpt lat="44.99702" lon="2.8875">
        <ele>1058.3</ele>
        <time>2019-05-12T13:13:59Z</time>
      </trkpt>
      <trkpt lat="44.99702" lon="2.88756">
        <ele>1058.5</ele>
        <time>2019-05-12T13:14:02Z</time>
      </trkpt>
      <trkpt lat="44.99702" lon="2.88761">
        <ele>1058.6</ele>
        <time>2019-05-12T13:14:04Z</time>
      </trkpt>
      <trkpt lat="44.99701" lon="2.88767">
        <ele>1058.8</ele>
        <time>2019-05-12T13:14:07Z</time>
      </trkpt>
      <trkpt lat="44.99701" lon="2.88772">
        <ele>1059.3</ele>
        <time>2019-05-12T13:14:09Z</time>
      </trkpt>
      <trkpt lat="44.997" lon="2.88776">
        <ele>1059.6</ele>
        <time>2019-05-12T13:14:11Z</time>
      </trkpt>
      <trkpt lat="44.99699" lon="2.8878">
        <ele>1059.9</ele>
        <time>2019-05-12T13:14:14Z</time>
      </trkpt>
      <trkpt lat="44.99697" lon="2.88784">
        <ele>1059.9</ele>
        <time>2019-05-12T13:14:16Z</time>
      </trkpt>
      <trkpt lat="44.99696" lon="2.88787">
        <ele>1060</ele>
        <time>2019-05-12T13:14:19Z</time>
      </trkpt>
      <trkpt lat="44.99694" lon="2.8879">
        <ele>1060.1</ele>
        <time>2019-05-12T13:14:22Z</time>
      </trkpt>
      <trkpt lat="44.99692" lon="2.88794">
        <ele>1060.2</ele>
        <time>2019-05-12T13:14:26Z</time>
      </trkpt>
      <trkpt lat="44.99689" lon="2.88797">
        <ele>1060.3</ele>
        <time>2019-05-12T13:14:29Z</time>
      </trkpt>
      <trkpt lat="44.99687" lon="2.88801">
        <ele>1060.6</ele>
        <time>2019-05-12T13:14:32Z</time>
      </trkpt>
      <trkpt lat="44.99684" lon="2.88803">
        <ele>1061</ele>
        <time>2019-05-12T13:14:35Z</time>
      </trkpt>
      <trkpt lat="44.99682" lon="2.88807">
        <ele>1061.5</ele>
        <time>2019-05-12T13:14:38Z</time>
      </trkpt>
      <trkpt lat="44.9968" lon="2.88812">
        <ele>1062</ele>
        <time>2019-05-12T13:14:40Z</time>
      </trkpt>
      <trkpt lat="44.99678" lon="2.88815">
        <ele>1062.4</ele>
        <time>2019-05-12T13:14:43Z</time>
      </trkpt>
      <trkpt lat="44.99676" lon="2.88818">
        <ele>1062.6</ele>
        <time>2019-05-12T13:14:45Z</time>
      </trkpt>
      <trkpt lat="44.99675" lon="2.88821">
        <ele>1062.5</ele>
        <time>2019-05-12T13:14:47Z</time>
      </trkpt>
      <trkpt lat="44.99673" lon="2.88825">
        <ele>1062.3</ele>
        <time>2019-05-12T13:14:50Z</time>
      </trkpt>
      <trkpt lat="44.9967" lon="2.88829">
        <ele>1062.1</ele>
        <time>2019-05-12T13:14:53Z</time>
      </trkpt>
      <trkpt lat="44.99668" lon="2.88832">
        <ele>1061.8</ele>
        <time>2019-05-12T13:14:56Z</time>
      </trkpt>
      <trkpt lat="44.99665" lon="2.88834">
        <ele>1061.5</ele>
        <time>2019-05-12T13:14:59Z</time>
      </trkpt>
      <trkpt lat="44.99663" lon="2.88837">
        <ele>1061.5</ele>
        <time>2019-05-12T13:15:02Z</time>
      </trkpt>
      <trkpt lat="44.99662" lon="2.88841">
        <ele>1061.7</ele>
        <time>2019-05-12T13:15:04Z</time>
      </trkpt>
      <trkpt lat="44.99659" lon="2.88843">
        <ele>1061.8</ele>
        <time>2019-05-12T13:15:06Z</time>
      </trkpt>
      <trkpt lat="44.99656" lon="2.88846">
        <ele>1061.9</ele>
        <time>2019-05-12T13:15:09Z</time>
      </trkpt>
      <trkpt lat="44.99654" lon="2.8885">
        <ele>1062</ele>
        <time>2019-05-12T13:15:11Z</time>
      </trkpt>
      <trkpt lat="44.99651" lon="2.88854">
        <ele>1062.1</ele>
        <time>2019-05-12T13:15:14Z</time>
      </trkpt>
      <trkpt lat="44.9965" lon="2.88858">
        <ele>1062.3</ele>
        <time>2019-05-12T13:15:17Z</time>
      </trkpt>
      <trkpt lat="44.99648" lon="2.88863">
        <ele>1062.4</ele>
        <time>2019-05-12T13:15:20Z</time>
      </trkpt>
      <trkpt lat="44.99645" lon="2.88865">
        <ele>1062.6</ele>
        <time>2019-05-12T13:15:22Z</time>
      </trkpt>
      <trkpt lat="44.99643" lon="2.88868">
        <ele>1062.8</ele>
        <time>2019-05-12T13:15:24Z</time>
      </trkpt>
      <trkpt lat="44.99641" lon="2.88871">
        <ele>1063.1</ele>
        <time>2019-05-12T13:15:27Z</time>
      </trkpt>
      <trkpt lat="44.99639" lon="2.88874">
        <ele>1063.3</ele>
        <time>2019-05-12T13:15:29Z</time>
      </trkpt>
      <trkpt lat="44.99638" lon="2.88879">
        <ele>1063.6</ele>
        <time>2019-05-12T13:15:32Z</time>
      </trkpt>
      <trkpt lat="44.99637" lon="2.88883">
        <ele>1063.8</ele>
        <time>2019-05-12T13:15:34Z</time>
      </trkpt>
      <trkpt lat="44.99634" lon="2.88886">
        <ele>1064.2</ele>
        <time>2019-05-12T13:15:39Z</time>
      </trkpt>
      <trkpt lat="44.99631" lon="2.88889">
        <ele>1064.5</ele>
        <time>2019-05-12T13:15:42Z</time>
      </trkpt>
      <trkpt lat="44.99629" lon="2.88891">
        <ele>1064.8</ele>
        <time>2019-05-12T13:15:44Z</time>
      </trkpt>
      <trkpt lat="44.99626" lon="2.88895">
        <ele>1065.3</ele>
        <time>2019-05-12T13:15:47Z</time>
      </trkpt>
      <trkpt lat="44.99625" lon="2.88899">
        <ele>1065.7</ele>
        <time>2019-05-12T13:15:49Z</time>
      </trkpt>
      <trkpt lat="44.99622" lon="2.88902">
        <ele>1066.2</ele>
        <time>2019-05-12T13:15:52Z</time>
      </trkpt>
      <trkpt lat="44.99619" lon="2.88905">
        <ele>1066.6</ele>
        <time>2019-05-12T13:15:55Z</time>
      </trkpt>
      <trkpt lat="44.99617" lon="2.88908">
        <ele>1067</ele>
        <time>2019-05-12T13:15:58Z</time>
      </trkpt>
      <trkpt lat="44.99614" lon="2.8891">
        <ele>1067.4</ele>
        <time>2019-05-12T13:16:00Z</time>
      </trkpt>
      <trkpt lat="44.99612" lon="2.88912">
        <ele>1067.8</ele>
        <time>2019-05-12T13:16:02Z</time>
      </trkpt>
      <trkpt lat="44.99611" lon="2.88916">
        <ele>1068.2</ele>
        <time>2019-05-12T13:16:04Z</time>
      </trkpt>
      <trkpt lat="44.99609" lon="2.88921">
        <ele>1068.6</ele>
        <time>2019-05-12T13:16:07Z</time>
      </trkpt>
      <trkpt lat="44.99608" lon="2.88924">
        <ele>1068.7</ele>
        <time>2019-05-12T13:16:10Z</time>
      </trkpt>
      <trkpt lat="44.99607" lon="2.88928">
        <ele>1068.9</ele>
        <time>2019-05-12T13:16:13Z</time>
      </trkpt>
      <trkpt lat="44.99607" lon="2.88932">
        <ele>1069.3</ele>
        <time>2019-05-12T13:16:17Z</time>
      </trkpt>
      <trkpt lat="44.99605" lon="2.88935">
        <ele>1069.9</ele>
        <time>2019-05-12T13:16:21Z</time>
      </trkpt>
      <trkpt lat="44.99603" lon="2.88939">
        <ele>1070.6</ele>
        <time>2019-05-12T13:16:24Z</time>
      </trkpt>
      <trkpt lat="44.996" lon="2.88943">
        <ele>1070.7</ele>
        <time>2019-05-12T13:16:28Z</time>
      </trkpt>
      <trkpt lat="44.99599" lon="2.88946">
        <ele>1070.8</ele>
        <time>2019-05-12T13:16:31Z</time>
      </trkpt>
      <trkpt lat="44.99596" lon="2.88949">
        <ele>1070.9</ele>
        <time>2019-05-12T13:16:34Z</time>
      </trkpt>
      <trkpt lat="44.99594" lon="2.88952">
        <ele>1071.4</ele>
        <time>2019-05-12T13:16:37Z</time>
      </trkpt>
      <trkpt lat="44.99593" lon="2.88956">
        <ele>1071.9</ele>
        <time>2019-05-12T13:16:40Z</time>
      </trkpt>
      <trkpt lat="44.9959" lon="2.88958">
        <ele>1072.4</ele>
        <time>2019-05-12T13:16:43Z</time>
      </trkpt>
      <trkpt lat="44.99589" lon="2.88962">
        <ele>1072.5</ele>
        <time>2019-05-12T13:16:46Z</time>
      </trkpt>
      <trkpt lat="44.99586" lon="2.88966">
        <ele>1072.6</ele>
        <time>2019-05-12T13:16:49Z</time>
      </trkpt>
      <trkpt lat="44.99585" lon="2.8897">
        <ele>1072.6</ele>
        <time>2019-05-12T13:16:51Z</time>
      </trkpt>
      <trkpt lat="44.99583" lon="2.88974">
        <ele>1072.7</ele>
        <time>2019-05-12T13:16:54Z</time>
      </trkpt>
      <trkpt lat="44.99582" lon="2.88978">
        <ele>1072.8</ele>
        <time>2019-05-12T13:16:57Z</time>
      </trkpt>
      <trkpt lat="44.99579" lon="2.88983">
        <ele>1072.9</ele>
        <time>2019-05-12T13:17:00Z</time>
      </trkpt>
      <trkpt lat="44.99578" lon="2.88986">
        <ele>1073</ele>
        <time>2019-05-12T13:17:03Z</time>
      </trkpt>
      <trkpt lat="44.99576" lon="2.88989">
        <ele>1073.1</ele>
        <time>2019-05-12T13:17:06Z</time>
      </trkpt>
      <trkpt lat="44.99574" lon="2.88993">
        <ele>1073.2</ele>
        <time>2019-05-12T13:17:09Z</time>
      </trkpt>
      <trkpt lat="44.99573" lon="2.88998">
        <ele>1073.3</ele>
        <time>2019-05-12T13:17:13Z</time>
      </trkpt>
      <trkpt lat="44.99572" lon="2.89003">
        <ele>1073.4</ele>
        <time>2019-05-12T13:17:16Z</time>
      </trkpt>
      <trkpt lat="44.99571" lon="2.89007">
        <ele>1073.5</ele>
        <time>2019-05-12T13:17:20Z</time>
      </trkpt>
      <trkpt lat="44.9957" lon="2.89011">
        <ele>1073.6</ele>
        <time>2019-05-12T13:17:23Z</time>
      </trkpt>
      <trkpt lat="44.9957" lon="2.89015">
        <ele>1073.7</ele>
        <time>2019-05-12T13:17:25Z</time>
      </trkpt>
      <trkpt lat="44.9957" lon="2.8902">
        <ele>1073.8</ele>
        <time>2019-05-12T13:17:27Z</time>
      </trkpt>
      <trkpt lat="44.99571" lon="2.89024">
        <ele>1073.9</ele>
        <time>2019-05-12T13:17:30Z</time>
      </trkpt>
      <trkpt lat="44.9957" lon="2.89027">
        <ele>1074</ele>
        <time>2019-05-12T13:17:33Z</time>
      </trkpt>
      <trkpt lat="44.99569" lon="2.89032">
        <ele>1074.1</ele>
        <time>2019-05-12T13:17:36Z</time>
      </trkpt>
      <trkpt lat="44.99568" lon="2.89035">
        <ele>1074.1</ele>
        <time>2019-05-12T13:17:38Z</time>
      </trkpt>
      <trkpt lat="44.99567" lon="2.89041">
        <ele>1074.3</ele>
        <time>2019-05-12T13:17:40Z</time>
      </trkpt>
      <trkpt lat="44.99568" lon="2.89045">
        <ele>1074.4</ele>
        <time>2019-05-12T13:17:42Z</time>
      </trkpt>
      <trkpt lat="44.99568" lon="2.8905">
        <ele>1074.5</ele>
        <time>2019-05-12T13:17:44Z</time>
      </trkpt>
      <trkpt lat="44.99569" lon="2.89054">
        <ele>1074.5</ele>
        <time>2019-05-12T13:17:46Z</time>
      </trkpt>
      <trkpt lat="44.99568" lon="2.8906">
        <ele>1074.7</ele>
        <time>2019-05-12T13:17:50Z</time>
      </trkpt>
      <trkpt lat="44.99566" lon="2.89065">
        <ele>1074.8</ele>
        <time>2019-05-12T13:17:52Z</time>
      </trkpt>
      <trkpt lat="44.99566" lon="2.89069">
        <ele>1074.9</ele>
        <time>2019-05-12T13:17:57Z</time>
      </trkpt>
      <trkpt lat="44.99563" lon="2.89072">
        <ele>1075</ele>
        <time>2019-05-12T13:18:01Z</time>
      </trkpt>
      <trkpt lat="44.99561" lon="2.89076">
        <ele>1075.1</ele>
        <time>2019-05-12T13:18:04Z</time>
      </trkpt>
      <trkpt lat="44.99561" lon="2.89081">
        <ele>1075.2</ele>
        <time>2019-05-12T13:18:09Z</time>
      </trkpt>
      <trkpt lat="44.99561" lon="2.89085">
        <ele>1075.3</ele>
        <time>2019-05-12T13:18:12Z</time>
      </trkpt>
      <trkpt lat="44.9956" lon="2.8909">
        <ele>1075.4</ele>
        <time>2019-05-12T13:18:16Z</time>
      </trkpt>
      <trkpt lat="44.99559" lon="2.89095">
        <ele>1075.5</ele>
        <time>2019-05-12T13:18:20Z</time>
      </trkpt>
      <trkpt lat="44.9956" lon="2.89099">
        <ele>1075.6</ele>
        <time>2019-05-12T13:18:24Z</time>
      </trkpt>
      <trkpt lat="44.9956" lon="2.89104">
        <ele>1075.7</ele>
        <time>2019-05-12T13:18:27Z</time>
      </trkpt>
      <trkpt lat="44.99558" lon="2.89109">
        <ele>1075.8</ele>
        <time>2019-05-12T13:18:31Z</time>
      </trkpt>
      <trkpt lat="44.99557" lon="2.89113">
        <ele>1075.9</ele>
        <time>2019-05-12T13:18:34Z</time>
      </trkpt>
      <trkpt lat="44.99556" lon="2.89117">
        <ele>1076</ele>
        <time>2019-05-12T13:18:37Z</time>
      </trkpt>
      <trkpt lat="44.99555" lon="2.8912">
        <ele>1076.1</ele>
        <time>2019-05-12T13:18:41Z</time>
      </trkpt>
      <trkpt lat="44.99556" lon="2.89125">
        <ele>1076.2</ele>
        <time>2019-05-12T13:18:44Z</time>
      </trkpt>
      <trkpt lat="44.99558" lon="2.89128">
        <ele>1076.3</ele>
        <time>2019-05-12T13:18:46Z</time>
      </trkpt>
      <trkpt lat="44.99559" lon="2.89134">
        <ele>1076.5</ele>
        <time>2019-05-12T13:18:48Z</time>
      </trkpt>
      <trkpt lat="44.99559" lon="2.89138">
        <ele>1076.6</ele>
        <time>2019-05-12T13:18:50Z</time>
      </trkpt>
      <trkpt lat="44.99558" lon="2.89142">
        <ele>1076.7</ele>
        <time>2019-05-12T13:18:53Z</time>
      </trkpt>
      <trkpt lat="44.99557" lon="2.89146">
        <ele>1076.8</ele>
        <time>2019-05-12T13:18:57Z</time>
      </trkpt>
      <trkpt lat="44.99557" lon="2.8915">
        <ele>1076.9</ele>
        <time>2019-05-12T13:18:59Z</time>
      </trkpt>
      <trkpt lat="44.99557" lon="2.89155">
        <ele>1077</ele>
        <time>2019-05-12T13:19:01Z</time>
      </trkpt>
      <trkpt lat="44.99558" lon="2.8916">
        <ele>1077.1</ele>
        <time>2019-05-12T13:19:04Z</time>
      </trkpt>
      <trkpt lat="44.99558" lon="2.89165">
        <ele>1077.2</ele>
        <time>2019-05-12T13:19:07Z</time>
      </trkpt>
      <trkpt lat="44.99557" lon="2.89169">
        <ele>1077.3</ele>
        <time>2019-05-12T13:19:11Z</time>
      </trkpt>
      <trkpt lat="44.99555" lon="2.89174">
        <ele>1077.4</ele>
        <time>2019-05-12T13:19:15Z</time>
      </trkpt>
      <trkpt lat="44.99554" lon="2.89178">
        <ele>1077.5</ele>
        <time>2019-05-12T13:19:18Z</time>
      </trkpt>
      <trkpt lat="44.99553" lon="2.89182">
        <ele>1077.6</ele>
        <time>2019-05-12T13:19:23Z</time>
      </trkpt>
      <trkpt lat="44.99552" lon="2.89186">
        <ele>1077.6</ele>
        <time>2019-05-12T13:19:27Z</time>
      </trkpt>
      <trkpt lat="44.99551" lon="2.8919">
        <ele>1077.7</ele>
        <time>2019-05-12T13:19:30Z</time>
      </trkpt>
      <trkpt lat="44.9955" lon="2.89194">
        <ele>1077.8</ele>
        <time>2019-05-12T13:19:33Z</time>
      </trkpt>
      <trkpt lat="44.99548" lon="2.89199">
        <ele>1077.9</ele>
        <time>2019-05-12T13:19:36Z</time>
      </trkpt>
      <trkpt lat="44.99547" lon="2.89202">
        <ele>1078</ele>
        <time>2019-05-12T13:19:38Z</time>
      </trkpt>
      <trkpt lat="44.99545" lon="2.89205">
        <ele>1078.1</ele>
        <time>2019-05-12T13:19:40Z</time>
      </trkpt>
      <trkpt lat="44.99542" lon="2.89208">
        <ele>1078.2</ele>
        <time>2019-05-12T13:19:42Z</time>
      </trkpt>
      <trkpt lat="44.99541" lon="2.89212">
        <ele>1078.2</ele>
        <time>2019-05-12T13:19:44Z</time>
      </trkpt>
      <trkpt lat="44.99539" lon="2.89215">
        <ele>1078.3</ele>
        <time>2019-05-12T13:19:48Z</time>
      </trkpt>
      <trkpt lat="44.99538" lon="2.89221">
        <ele>1078.4</ele>
        <time>2019-05-12T13:19:52Z</time>
      </trkpt>
      <trkpt lat="44.99538" lon="2.89227">
        <ele>1078.6</ele>
        <time>2019-05-12T13:19:55Z</time>
      </trkpt>
      <trkpt lat="44.99537" lon="2.89232">
        <ele>1078.7</ele>
        <time>2019-05-12T13:19:58Z</time>
      </trkpt>
      <trkpt lat="44.99534" lon="2.89234">
        <ele>1078.7</ele>
        <time>2019-05-12T13:20:02Z</time>
      </trkpt>
      <trkpt lat="44.99531" lon="2.89237">
        <ele>1078.8</ele>
        <time>2019-05-12T13:20:04Z</time>
      </trkpt>
      <trkpt lat="44.9953" lon="2.8924">
        <ele>1078.9</ele>
        <time>2019-05-12T13:20:07Z</time>
      </trkpt>
      <trkpt lat="44.99529" lon="2.89244">
        <ele>1079</ele>
        <time>2019-05-12T13:20:11Z</time>
      </trkpt>
      <trkpt lat="44.99528" lon="2.89249">
        <ele>1079.1</ele>
        <time>2019-05-12T13:20:19Z</time>
      </trkpt>
      <trkpt lat="44.99527" lon="2.89254">
        <ele>1079.2</ele>
        <time>2019-05-12T13:20:22Z</time>
      </trkpt>
      <trkpt lat="44.99526" lon="2.89258">
        <ele>1079.3</ele>
        <time>2019-05-12T13:20:24Z</time>
      </trkpt>
      <trkpt lat="44.99526" lon="2.89263">
        <ele>1079.4</ele>
        <time>2019-05-12T13:20:27Z</time>
      </trkpt>
      <trkpt lat="44.99524" lon="2.89265">
        <ele>1079.4</ele>
        <time>2019-05-12T13:20:30Z</time>
      </trkpt>
      <trkpt lat="44.99522" lon="2.89269">
        <ele>1079.5</ele>
        <time>2019-05-12T13:20:33Z</time>
      </trkpt>
      <trkpt lat="44.99521" lon="2.89273">
        <ele>1079.6</ele>
        <time>2019-05-12T13:20:36Z</time>
      </trkpt>
      <trkpt lat="44.99518" lon="2.89277">
        <ele>1079.7</ele>
        <time>2019-05-12T13:20:39Z</time>
      </trkpt>
      <trkpt lat="44.99515" lon="2.89281">
        <ele>1079.8</ele>
        <time>2019-05-12T13:20:43Z</time>
      </trkpt>
      <trkpt lat="44.99513" lon="2.89284">
        <ele>1079.9</ele>
        <time>2019-05-12T13:20:46Z</time>
      </trkpt>
      <trkpt lat="44.99511" lon="2.89287">
        <ele>1080</ele>
        <time>2019-05-12T13:20:49Z</time>
      </trkpt>
      <trkpt lat="44.99509" lon="2.89291">
        <ele>1080.1</ele>
        <time>2019-05-12T13:20:51Z</time>
      </trkpt>
      <trkpt lat="44.99509" lon="2.89296">
        <ele>1080.2</ele>
        <time>2019-05-12T13:20:54Z</time>
      </trkpt>
      <trkpt lat="44.99508" lon="2.89301">
        <ele>1080.3</ele>
        <time>2019-05-12T13:20:57Z</time>
      </trkpt>
      <trkpt lat="44.99505" lon="2.89304">
        <ele>1080.4</ele>
        <time>2019-05-12T13:21:00Z</time>
      </trkpt>
      <trkpt lat="44.99504" lon="2.89308">
        <ele>1080.5</ele>
        <time>2019-05-12T13:21:02Z</time>
      </trkpt>
      <trkpt lat="44.99503" lon="2.89313">
        <ele>1080.6</ele>
        <time>2019-05-12T13:21:05Z</time>
      </trkpt>
      <trkpt lat="44.99501" lon="2.89317">
        <ele>1080.7</ele>
        <time>2019-05-12T13:21:08Z</time>
      </trkpt>
      <trkpt lat="44.99498" lon="2.8932">
        <ele>1080.8</ele>
        <time>2019-05-12T13:21:11Z</time>
      </trkpt>
      <trkpt lat="44.99498" lon="2.89324">
        <ele>1080.9</ele>
        <time>2019-05-12T13:21:14Z</time>
      </trkpt>
      <trkpt lat="44.99497" lon="2.89329">
        <ele>1080.9</ele>
        <time>2019-05-12T13:21:16Z</time>
      </trkpt>
      <trkpt lat="44.99496" lon="2.89334">
        <ele>1081</ele>
        <time>2019-05-12T13:21:20Z</time>
      </trkpt>
      <trkpt lat="44.99495" lon="2.89338">
        <ele>1081.1</ele>
        <time>2019-05-12T13:21:22Z</time>
      </trkpt>
      <trkpt lat="44.99494" lon="2.89341">
        <ele>1081.2</ele>
        <time>2019-05-12T13:21:25Z</time>
      </trkpt>
      <trkpt lat="44.99495" lon="2.89346">
        <ele>1081.3</ele>
        <time>2019-05-12T13:21:27Z</time>
      </trkpt>
      <trkpt lat="44.99495" lon="2.89349">
        <ele>1081.4</ele>
        <time>2019-05-12T13:21:32Z</time>
      </trkpt>
      <trkpt lat="44.99493" lon="2.89354">
        <ele>1081.5</ele>
        <time>2019-05-12T13:21:36Z</time>
      </trkpt>
      <trkpt lat="44.99494" lon="2.89359">
        <ele>1081.6</ele>
        <time>2019-05-12T13:21:39Z</time>
      </trkpt>
      <trkpt lat="44.99493" lon="2.89364">
        <ele>1081.7</ele>
        <time>2019-05-12T13:21:42Z</time>
      </trkpt>
      <trkpt lat="44.99492" lon="2.89368">
        <ele>1081.8</ele>
        <time>2019-05-12T13:21:44Z</time>
      </trkpt>
      <trkpt lat="44.99491" lon="2.89372">
        <ele>1081.9</ele>
        <time>2019-05-12T13:21:46Z</time>
      </trkpt>
      <trkpt lat="44.99488" lon="2.89376">
        <ele>1082</ele>
        <time>2019-05-12T13:21:50Z</time>
      </trkpt>
      <trkpt lat="44.99486" lon="2.8938">
        <ele>1082.1</ele>
        <time>2019-05-12T13:21:54Z</time>
      </trkpt>
      <trkpt lat="44.99485" lon="2.89384">
        <ele>1082.1</ele>
        <time>2019-05-12T13:21:56Z</time>
      </trkpt>
      <trkpt lat="44.99485" lon="2.89387">
        <ele>1082.2</ele>
        <time>2019-05-12T13:21:58Z</time>
      </trkpt>
      <trkpt lat="44.99485" lon="2.89392">
        <ele>1082.3</ele>
        <time>2019-05-12T13:22:00Z</time>
      </trkpt>
      <trkpt lat="44.99485" lon="2.89398">
        <ele>1082.4</ele>
        <time>2019-05-12T13:22:03Z</time>
      </trkpt>
      <trkpt lat="44.99484" lon="2.89403">
        <ele>1082.5</ele>
        <time>2019-05-12T13:22:06Z</time>
      </trkpt>
      <trkpt lat="44.99484" lon="2.89408">
        <ele>1082.6</ele>
        <time>2019-05-12T13:22:09Z</time>
      </trkpt>
      <trkpt lat="44.99483" lon="2.89412">
        <ele>1082.7</ele>
        <time>2019-05-12T13:22:12Z</time>
      </trkpt>
      <trkpt lat="44.99482" lon="2.89417">
        <ele>1082.8</ele>
        <time>2019-05-12T13:22:14Z</time>
      </trkpt>
      <trkpt lat="44.9948" lon="2.8942">
        <ele>1082.9</ele>
        <time>2019-05-12T13:22:15Z</time>
      </trkpt>
      <trkpt lat="44.99479" lon="2.89423">
        <ele>1083</ele>
        <time>2019-05-12T13:22:17Z</time>
      </trkpt>
      <trkpt lat="44.99477" lon="2.89427">
        <ele>1083.1</ele>
        <time>2019-05-12T13:22:19Z</time>
      </trkpt>
      <trkpt lat="44.99475" lon="2.8943">
        <ele>1083.2</ele>
        <time>2019-05-12T13:22:21Z</time>
      </trkpt>
      <trkpt lat="44.99474" lon="2.89434">
        <ele>1083.2</ele>
        <time>2019-05-12T13:22:24Z</time>
      </trkpt>
      <trkpt lat="44.99474" lon="2.89437">
        <ele>1083.3</ele>
        <time>2019-05-12T13:22:26Z</time>
      </trkpt>
      <trkpt lat="44.99473" lon="2.89443">
        <ele>1083.4</ele>
        <time>2019-05-12T13:22:30Z</time>
      </trkpt>
      <trkpt lat="44.99473" lon="2.89448">
        <ele>1083.5</ele>
        <time>2019-05-12T13:22:34Z</time>
      </trkpt>
      <trkpt lat="44.99473" lon="2.89452">
        <ele>1083.6</ele>
        <time>2019-05-12T13:22:36Z</time>
      </trkpt>
      <trkpt lat="44.99474" lon="2.89457">
        <ele>1083.7</ele>
        <time>2019-05-12T13:22:38Z</time>
      </trkpt>
      <trkpt lat="44.99473" lon="2.89461">
        <ele>1083.8</ele>
        <time>2019-05-12T13:22:41Z</time>
      </trkpt>
      <trkpt lat="44.99472" lon="2.89466">
        <ele>1083.9</ele>
        <time>2019-05-12T13:22:44Z</time>
      </trkpt>
      <trkpt lat="44.99471" lon="2.89469">
        <ele>1084</ele>
        <time>2019-05-12T13:22:47Z</time>
      </trkpt>
      <trkpt lat="44.99469" lon="2.89473">
        <ele>1084.1</ele>
        <time>2019-05-12T13:22:49Z</time>
      </trkpt>
      <trkpt lat="44.99468" lon="2.89479">
        <ele>1084.2</ele>
        <time>2019-05-12T13:22:52Z</time>
      </trkpt>
      <trkpt lat="44.99467" lon="2.89484">
        <ele>1084.3</ele>
        <time>2019-05-12T13:22:55Z</time>
      </trkpt>
      <trkpt lat="44.99465" lon="2.89488">
        <ele>1084.4</ele>
        <time>2019-05-12T13:22:58Z</time>
      </trkpt>
      <trkpt lat="44.99464" lon="2.89492">
        <ele>1084.5</ele>
        <time>2019-05-12T13:23:03Z</time>
      </trkpt>
      <trkpt lat="44.99462" lon="2.89497">
        <ele>1084.6</ele>
        <time>2019-05-12T13:23:06Z</time>
      </trkpt>
      <trkpt lat="44.9946" lon="2.89502">
        <ele>1084.7</ele>
        <time>2019-05-12T13:23:09Z</time>
      </trkpt>
      <trkpt lat="44.99458" lon="2.89506">
        <ele>1084.8</ele>
        <time>2019-05-12T13:23:12Z</time>
      </trkpt>
      <trkpt lat="44.99457" lon="2.89511">
        <ele>1084.9</ele>
        <time>2019-05-12T13:23:15Z</time>
      </trkpt>
      <trkpt lat="44.99455" lon="2.89515">
        <ele>1085</ele>
        <time>2019-05-12T13:23:17Z</time>
      </trkpt>
      <trkpt lat="44.99454" lon="2.89518">
        <ele>1085.1</ele>
        <time>2019-05-12T13:23:19Z</time>
      </trkpt>
      <trkpt lat="44.99451" lon="2.89522">
        <ele>1085.2</ele>
        <time>2019-05-12T13:23:22Z</time>
      </trkpt>
      <trkpt lat="44.99448" lon="2.89525">
        <ele>1085.3</ele>
        <time>2019-05-12T13:23:25Z</time>
      </trkpt>
      <trkpt lat="44.99445" lon="2.89526">
        <ele>1085.4</ele>
        <time>2019-05-12T13:23:30Z</time>
      </trkpt>
      <trkpt lat="44.99443" lon="2.8953">
        <ele>1085.5</ele>
        <time>2019-05-12T13:23:33Z</time>
      </trkpt>
      <trkpt lat="44.99441" lon="2.89533">
        <ele>1085.6</ele>
        <time>2019-05-12T13:23:36Z</time>
      </trkpt>
      <trkpt lat="44.99438" lon="2.89536">
        <ele>1085.6</ele>
        <time>2019-05-12T13:23:39Z</time>
      </trkpt>
      <trkpt lat="44.99436" lon="2.8954">
        <ele>1085.6</ele>
        <time>2019-05-12T13:23:42Z</time>
      </trkpt>
      <trkpt lat="44.99435" lon="2.89544">
        <ele>1085.7</ele>
        <time>2019-05-12T13:23:46Z</time>
      </trkpt>
      <trkpt lat="44.99433" lon="2.89548">
        <ele>1085.9</ele>
        <time>2019-05-12T13:23:48Z</time>
      </trkpt>
      <trkpt lat="44.99431" lon="2.89551">
        <ele>1086.1</ele>
        <time>2019-05-12T13:23:50Z</time>
      </trkpt>
      <trkpt lat="44.99429" lon="2.89555">
        <ele>1086.3</ele>
        <time>2019-05-12T13:23:53Z</time>
      </trkpt>
      <trkpt lat="44.99428" lon="2.89559">
        <ele>1086.5</ele>
        <time>2019-05-12T13:23:55Z</time>
      </trkpt>
      <trkpt lat="44.99427" lon="2.89563">
        <ele>1086.6</ele>
        <time>2019-05-12T13:23:58Z</time>
      </trkpt>
      <trkpt lat="44.99426" lon="2.89567">
        <ele>1086.8</ele>
        <time>2019-05-12T13:24:00Z</time>
      </trkpt>
      <trkpt lat="44.99424" lon="2.8957">
        <ele>1087</ele>
        <time>2019-05-12T13:24:05Z</time>
      </trkpt>
      <trkpt lat="44.99422" lon="2.89574">
        <ele>1087.2</ele>
        <time>2019-05-12T13:24:09Z</time>
      </trkpt>
      <trkpt lat="44.99421" lon="2.89579">
        <ele>1087.4</ele>
        <time>2019-05-12T13:24:11Z</time>
      </trkpt>
      <trkpt lat="44.9942" lon="2.89582">
        <ele>1087.5</ele>
        <time>2019-05-12T13:24:14Z</time>
      </trkpt>
      <trkpt lat="44.99418" lon="2.89586">
        <ele>1087.7</ele>
        <time>2019-05-12T13:24:19Z</time>
      </trkpt>
      <trkpt lat="44.99416" lon="2.89589">
        <ele>1087.9</ele>
        <time>2019-05-12T13:24:22Z</time>
      </trkpt>
      <trkpt lat="44.99415" lon="2.89593">
        <ele>1088.1</ele>
        <time>2019-05-12T13:24:24Z</time>
      </trkpt>
      <trkpt lat="44.99415" lon="2.89597">
        <ele>1088.3</ele>
        <time>2019-05-12T13:24:26Z</time>
      </trkpt>
      <trkpt lat="44.99414" lon="2.89602">
        <ele>1088.5</ele>
        <time>2019-05-12T13:24:29Z</time>
      </trkpt>
      <trkpt lat="44.99412" lon="2.89607">
        <ele>1088.7</ele>
        <time>2019-05-12T13:24:32Z</time>
      </trkpt>
      <trkpt lat="44.9941" lon="2.89611">
        <ele>1088.9</ele>
        <time>2019-05-12T13:24:36Z</time>
      </trkpt>
      <trkpt lat="44.99408" lon="2.89615">
        <ele>1089.1</ele>
        <time>2019-05-12T13:24:39Z</time>
      </trkpt>
      <trkpt lat="44.99407" lon="2.8962">
        <ele>1089.3</ele>
        <time>2019-05-12T13:24:42Z</time>
      </trkpt>
      <trkpt lat="44.99406" lon="2.89624">
        <ele>1089.5</ele>
        <time>2019-05-12T13:24:44Z</time>
      </trkpt>
      <trkpt lat="44.99404" lon="2.89628">
        <ele>1089.7</ele>
        <time>2019-05-12T13:24:47Z</time>
      </trkpt>
      <trkpt lat="44.99403" lon="2.89632">
        <ele>1089.9</ele>
        <time>2019-05-12T13:24:51Z</time>
      </trkpt>
      <trkpt lat="44.99401" lon="2.89635">
        <ele>1090</ele>
        <time>2019-05-12T13:24:54Z</time>
      </trkpt>
      <trkpt lat="44.99399" lon="2.89639">
        <ele>1090.3</ele>
        <time>2019-05-12T13:24:57Z</time>
      </trkpt>
      <trkpt lat="44.99397" lon="2.89644">
        <ele>1090.5</ele>
        <time>2019-05-12T13:25:00Z</time>
      </trkpt>
      <trkpt lat="44.99396" lon="2.89647">
        <ele>1090.7</ele>
        <time>2019-05-12T13:25:03Z</time>
      </trkpt>
      <trkpt lat="44.99393" lon="2.89651">
        <ele>1090.9</ele>
        <time>2019-05-12T13:25:06Z</time>
      </trkpt>
      <trkpt lat="44.99391" lon="2.89655">
        <ele>1091.1</ele>
        <time>2019-05-12T13:25:09Z</time>
      </trkpt>
      <trkpt lat="44.9939" lon="2.8966">
        <ele>1091.3</ele>
        <time>2019-05-12T13:25:12Z</time>
      </trkpt>
      <trkpt lat="44.99389" lon="2.89664">
        <ele>1091.5</ele>
        <time>2019-05-12T13:25:15Z</time>
      </trkpt>
      <trkpt lat="44.99388" lon="2.89668">
        <ele>1091.7</ele>
        <time>2019-05-12T13:25:18Z</time>
      </trkpt>
      <trkpt lat="44.99386" lon="2.89671">
        <ele>1091.9</ele>
        <time>2019-05-12T13:25:21Z</time>
      </trkpt>
      <trkpt lat="44.99386" lon="2.89676">
        <ele>1092.1</ele>
        <time>2019-05-12T13:25:24Z</time>
      </trkpt>
      <trkpt lat="44.99385" lon="2.89681">
        <ele>1092.3</ele>
        <time>2019-05-12T13:25:27Z</time>
      </trkpt>
      <trkpt lat="44.99384" lon="2.89685">
        <ele>1092.5</ele>
        <time>2019-05-12T13:25:31Z</time>
      </trkpt>
      <trkpt lat="44.99382" lon="2.8969">
        <ele>1092.7</ele>
        <time>2019-05-12T13:25:34Z</time>
      </trkpt>
      <trkpt lat="44.99381" lon="2.89693">
        <ele>1092.9</ele>
        <time>2019-05-12T13:25:37Z</time>
      </trkpt>
      <trkpt lat="44.99382" lon="2.89698">
        <ele>1093</ele>
        <time>2019-05-12T13:25:40Z</time>
      </trkpt>
      <trkpt lat="44.99381" lon="2.89703">
        <ele>1093.2</ele>
        <time>2019-05-12T13:25:43Z</time>
      </trkpt>
      <trkpt lat="44.99381" lon="2.89706">
        <ele>1093.4</ele>
        <time>2019-05-12T13:25:45Z</time>
      </trkpt>
      <trkpt lat="44.9938" lon="2.89711">
        <ele>1093.6</ele>
        <time>2019-05-12T13:25:47Z</time>
      </trkpt>
      <trkpt lat="44.9938" lon="2.89715">
        <ele>1093.8</ele>
        <time>2019-05-12T13:25:51Z</time>
      </trkpt>
      <trkpt lat="44.9938" lon="2.89719">
        <ele>1094</ele>
        <time>2019-05-12T13:25:54Z</time>
      </trkpt>
      <trkpt lat="44.9938" lon="2.89723">
        <ele>1094.1</ele>
        <time>2019-05-12T13:25:57Z</time>
      </trkpt>
      <trkpt lat="44.9938" lon="2.89727">
        <ele>1094.3</ele>
        <time>2019-05-12T13:25:59Z</time>
      </trkpt>
      <trkpt lat="44.9938" lon="2.89732">
        <ele>1094.5</ele>
        <time>2019-05-12T13:26:02Z</time>
      </trkpt>
      <trkpt lat="44.99379" lon="2.89736">
        <ele>1094.7</ele>
        <time>2019-05-12T13:26:05Z</time>
      </trkpt>
      <trkpt lat="44.99378" lon="2.8974">
        <ele>1094.9</ele>
        <time>2019-05-12T13:26:08Z</time>
      </trkpt>
      <trkpt lat="44.99377" lon="2.89745">
        <ele>1095.1</ele>
        <time>2019-05-12T13:26:11Z</time>
      </trkpt>
      <trkpt lat="44.99376" lon="2.89749">
        <ele>1095.3</ele>
        <time>2019-05-12T13:26:14Z</time>
      </trkpt>
      <trkpt lat="44.99375" lon="2.89755">
        <ele>1095.5</ele>
        <time>2019-05-12T13:26:17Z</time>
      </trkpt>
      <trkpt lat="44.99376" lon="2.8976">
        <ele>1095.7</ele>
        <time>2019-05-12T13:26:19Z</time>
      </trkpt>
      <trkpt lat="44.99376" lon="2.89765">
        <ele>1095.9</ele>
        <time>2019-05-12T13:26:22Z</time>
      </trkpt>
      <trkpt lat="44.99374" lon="2.89769">
        <ele>1096.1</ele>
        <time>2019-05-12T13:26:24Z</time>
      </trkpt>
      <trkpt lat="44.99374" lon="2.89774">
        <ele>1096.3</ele>
        <time>2019-05-12T13:26:27Z</time>
      </trkpt>
      <trkpt lat="44.99373" lon="2.89778">
        <ele>1096.5</ele>
        <time>2019-05-12T13:26:30Z</time>
      </trkpt>
      <trkpt lat="44.99372" lon="2.89783">
        <ele>1096.7</ele>
        <time>2019-05-12T13:26:33Z</time>
      </trkpt>
      <trkpt lat="44.99372" lon="2.89788">
        <ele>1096.9</ele>
        <time>2019-05-12T13:26:36Z</time>
      </trkpt>
      <trkpt lat="44.99371" lon="2.89792">
        <ele>1097.1</ele>
        <time>2019-05-12T13:26:39Z</time>
      </trkpt>
      <trkpt lat="44.9937" lon="2.89797">
        <ele>1097.3</ele>
        <time>2019-05-12T13:26:42Z</time>
      </trkpt>
      <trkpt lat="44.9937" lon="2.89801">
        <ele>1097.5</ele>
        <time>2019-05-12T13:26:45Z</time>
      </trkpt>
      <trkpt lat="44.99369" lon="2.89805">
        <ele>1097.7</ele>
        <time>2019-05-12T13:26:48Z</time>
      </trkpt>
      <trkpt lat="44.99368" lon="2.8981">
        <ele>1097.9</ele>
        <time>2019-05-12T13:26:52Z</time>
      </trkpt>
      <trkpt lat="44.99367" lon="2.89815">
        <ele>1098.1</ele>
        <time>2019-05-12T13:26:56Z</time>
      </trkpt>
      <trkpt lat="44.99367" lon="2.89819">
        <ele>1098.3</ele>
        <time>2019-05-12T13:26:58Z</time>
      </trkpt>
      <trkpt lat="44.99367" lon="2.89823">
        <ele>1098.5</ele>
        <time>2019-05-12T13:27:00Z</time>
      </trkpt>
      <trkpt lat="44.99366" lon="2.89827">
        <ele>1098.7</ele>
        <time>2019-05-12T13:27:03Z</time>
      </trkpt>
      <trkpt lat="44.99366" lon="2.89833">
        <ele>1098.9</ele>
        <time>2019-05-12T13:27:06Z</time>
      </trkpt>
      <trkpt lat="44.99366" lon="2.89836">
        <ele>1099.1</ele>
        <time>2019-05-12T13:27:08Z</time>
      </trkpt>
      <trkpt lat="44.99366" lon="2.89842">
        <ele>1099.3</ele>
        <time>2019-05-12T13:27:11Z</time>
      </trkpt>
      <trkpt lat="44.99366" lon="2.89846">
        <ele>1099.5</ele>
        <time>2019-05-12T13:27:14Z</time>
      </trkpt>
      <trkpt lat="44.99366" lon="2.89851">
        <ele>1099.7</ele>
        <time>2019-05-12T13:27:17Z</time>
      </trkpt>
      <trkpt lat="44.99365" lon="2.89855">
        <ele>1099.9</ele>
        <time>2019-05-12T13:27:21Z</time>
      </trkpt>
      <trkpt lat="44.99365" lon="2.8986">
        <ele>1100.1</ele>
        <time>2019-05-12T13:27:24Z</time>
      </trkpt>
      <trkpt lat="44.99364" lon="2.89865">
        <ele>1100.3</ele>
        <time>2019-05-12T13:27:27Z</time>
      </trkpt>
      <trkpt lat="44.99363" lon="2.8987">
        <ele>1100.5</ele>
        <time>2019-05-12T13:27:30Z</time>
      </trkpt>
      <trkpt lat="44.99363" lon="2.89874">
        <ele>1100.6</ele>
        <time>2019-05-12T13:27:33Z</time>
      </trkpt>
      <trkpt lat="44.99363" lon="2.89878">
        <ele>1100.6</ele>
        <time>2019-05-12T13:27:36Z</time>
      </trkpt>
      <trkpt lat="44.99363" lon="2.89883">
        <ele>1100.6</ele>
        <time>2019-05-12T13:27:39Z</time>
      </trkpt>
      <trkpt lat="44.99363" lon="2.89887">
        <ele>1100.5</ele>
        <time>2019-05-12T13:27:42Z</time>
      </trkpt>
      <trkpt lat="44.99364" lon="2.89892">
        <ele>1100.3</ele>
        <time>2019-05-12T13:27:46Z</time>
      </trkpt>
      <trkpt lat="44.99366" lon="2.89892">
        <ele>1100.1</ele>
        <time>2019-05-12T13:28:02Z</time>
      </trkpt>
      <trkpt lat="44.99366" lon="2.89896">
        <ele>1100</ele>
        <time>2019-05-12T13:28:12Z</time>
      </trkpt>
      <trkpt lat="44.99366" lon="2.89901">
        <ele>1099.9</ele>
        <time>2019-05-12T13:28:24Z</time>
      </trkpt>
      <trkpt lat="44.99365" lon="2.89905">
        <ele>1099.8</ele>
        <time>2019-05-12T13:28:26Z</time>
      </trkpt>
      <trkpt lat="44.99366" lon="2.8991">
        <ele>1099.8</ele>
        <time>2019-05-12T13:28:29Z</time>
      </trkpt>
      <trkpt lat="44.99368" lon="2.89914">
        <ele>1099.8</ele>
        <time>2019-05-12T13:28:32Z</time>
      </trkpt>
      <trkpt lat="44.99367" lon="2.89918">
        <ele>1099.7</ele>
        <time>2019-05-12T13:28:35Z</time>
      </trkpt>
      <trkpt lat="44.99367" lon="2.89923">
        <ele>1099.8</ele>
        <time>2019-05-12T13:28:38Z</time>
      </trkpt>
      <trkpt lat="44.99368" lon="2.89927">
        <ele>1099.8</ele>
        <time>2019-05-12T13:28:40Z</time>
      </trkpt>
      <trkpt lat="44.99367" lon="2.89931">
        <ele>1099.8</ele>
        <time>2019-05-12T13:28:44Z</time>
      </trkpt>
      <trkpt lat="44.99366" lon="2.89936">
        <ele>1099.8</ele>
        <time>2019-05-12T13:28:48Z</time>
      </trkpt>
      <trkpt lat="44.99367" lon="2.8994">
        <ele>1099.7</ele>
        <time>2019-05-12T13:28:55Z</time>
      </trkpt>
      <trkpt lat="44.99367" lon="2.89946">
        <ele>1099.7</ele>
        <time>2019-05-12T13:28:58Z</time>
      </trkpt>
      <trkpt lat="44.99367" lon="2.89951">
        <ele>1099.6</ele>
        <time>2019-05-12T13:29:01Z</time>
      </trkpt>
      <trkpt lat="44.99367" lon="2.89956">
        <ele>1099.5</ele>
        <time>2019-05-12T13:29:03Z</time>
      </trkpt>
      <trkpt lat="44.99368" lon="2.8996">
        <ele>1099.3</ele>
        <time>2019-05-12T13:29:05Z</time>
      </trkpt>
      <trkpt lat="44.9937" lon="2.89965">
        <ele>1099</ele>
        <time>2019-05-12T13:29:07Z</time>
      </trkpt>
      <trkpt lat="44.99371" lon="2.89969">
        <ele>1098.7</ele>
        <time>2019-05-12T13:29:09Z</time>
      </trkpt>
      <trkpt lat="44.99371" lon="2.89974">
        <ele>1098.4</ele>
        <time>2019-05-12T13:29:12Z</time>
      </trkpt>
      <trkpt lat="44.99372" lon="2.89978">
        <ele>1098</ele>
        <time>2019-05-12T13:29:14Z</time>
      </trkpt>
      <trkpt lat="44.99373" lon="2.89982">
        <ele>1097.7</ele>
        <time>2019-05-12T13:29:17Z</time>
      </trkpt>
      <trkpt lat="44.99375" lon="2.89987">
        <ele>1097.3</ele>
        <time>2019-05-12T13:29:19Z</time>
      </trkpt>
      <trkpt lat="44.99377" lon="2.8999">
        <ele>1097</ele>
        <time>2019-05-12T13:29:21Z</time>
      </trkpt>
      <trkpt lat="44.99378" lon="2.89995">
        <ele>1096.6</ele>
        <time>2019-05-12T13:29:24Z</time>
      </trkpt>
      <trkpt lat="44.99379" lon="2.89999">
        <ele>1096.3</ele>
        <time>2019-05-12T13:29:28Z</time>
      </trkpt>
      <trkpt lat="44.99379" lon="2.90003">
        <ele>1096</ele>
        <time>2019-05-12T13:29:32Z</time>
      </trkpt>
      <trkpt lat="44.99379" lon="2.90008">
        <ele>1095.7</ele>
        <time>2019-05-12T13:29:35Z</time>
      </trkpt>
      <trkpt lat="44.99379" lon="2.90012">
        <ele>1095.5</ele>
        <time>2019-05-12T13:29:38Z</time>
      </trkpt>
      <trkpt lat="44.9938" lon="2.90017">
        <ele>1095.2</ele>
        <time>2019-05-12T13:29:41Z</time>
      </trkpt>
      <trkpt lat="44.99379" lon="2.90022">
        <ele>1095</ele>
        <time>2019-05-12T13:29:45Z</time>
      </trkpt>
      <trkpt lat="44.99378" lon="2.90027">
        <ele>1094.8</ele>
        <time>2019-05-12T13:29:49Z</time>
      </trkpt>
      <trkpt lat="44.99378" lon="2.90032">
        <ele>1094.5</ele>
        <time>2019-05-12T13:29:52Z</time>
      </trkpt>
      <trkpt lat="44.99377" lon="2.90036">
        <ele>1094.3</ele>
        <time>2019-05-12T13:29:55Z</time>
      </trkpt>
      <trkpt lat="44.99376" lon="2.9004">
        <ele>1094.2</ele>
        <time>2019-05-12T13:29:59Z</time>
      </trkpt>
      <trkpt lat="44.99376" lon="2.90045">
        <ele>1094</ele>
        <time>2019-05-12T13:30:02Z</time>
      </trkpt>
      <trkpt lat="44.99375" lon="2.9005">
        <ele>1093.8</ele>
        <time>2019-05-12T13:30:05Z</time>
      </trkpt>
      <trkpt lat="44.99374" lon="2.90054">
        <ele>1093.6</ele>
        <time>2019-05-12T13:30:08Z</time>
      </trkpt>
      <trkpt lat="44.99372" lon="2.90057">
        <ele>1093.4</ele>
        <time>2019-05-12T13:30:12Z</time>
      </trkpt>
      <trkpt lat="44.99371" lon="2.90061">
        <ele>1093.2</ele>
        <time>2019-05-12T13:30:14Z</time>
      </trkpt>
      <trkpt lat="44.9937" lon="2.90066">
        <ele>1092.9</ele>
        <time>2019-05-12T13:30:17Z</time>
      </trkpt>
      <trkpt lat="44.9937" lon="2.9007">
        <ele>1092.7</ele>
        <time>2019-05-12T13:30:19Z</time>
      </trkpt>
      <trkpt lat="44.9937" lon="2.90074">
        <ele>1092.5</ele>
        <time>2019-05-12T13:30:21Z</time>
      </trkpt>
      <trkpt lat="44.9937" lon="2.90079">
        <ele>1092.1</ele>
        <time>2019-05-12T13:30:24Z</time>
      </trkpt>
      <trkpt lat="44.99369" lon="2.90083">
        <ele>1091.8</ele>
        <time>2019-05-12T13:30:26Z</time>
      </trkpt>
      <trkpt lat="44.99369" lon="2.9009">
        <ele>1091.2</ele>
        <time>2019-05-12T13:30:28Z</time>
      </trkpt>
      <trkpt lat="44.9937" lon="2.90095">
        <ele>1090.7</ele>
        <time>2019-05-12T13:30:30Z</time>
      </trkpt>
      <trkpt lat="44.99371" lon="2.90099">
        <ele>1090.3</ele>
        <time>2019-05-12T13:30:32Z</time>
      </trkpt>
      <trkpt lat="44.9937" lon="2.90104">
        <ele>1090</ele>
        <time>2019-05-12T13:30:34Z</time>
      </trkpt>
      <trkpt lat="44.9937" lon="2.90109">
        <ele>1089.5</ele>
        <time>2019-05-12T13:30:37Z</time>
      </trkpt>
      <trkpt lat="44.99371" lon="2.90114">
        <ele>1089.1</ele>
        <time>2019-05-12T13:30:39Z</time>
      </trkpt>
      <trkpt lat="44.99371" lon="2.90117">
        <ele>1088.8</ele>
        <time>2019-05-12T13:30:41Z</time>
      </trkpt>
      <trkpt lat="44.99371" lon="2.90122">
        <ele>1088.5</ele>
        <time>2019-05-12T13:30:44Z</time>
      </trkpt>
      <trkpt lat="44.99372" lon="2.90126">
        <ele>1088.2</ele>
        <time>2019-05-12T13:30:47Z</time>
      </trkpt>
      <trkpt lat="44.99373" lon="2.9013">
        <ele>1087.8</ele>
        <time>2019-05-12T13:30:50Z</time>
      </trkpt>
      <trkpt lat="44.99373" lon="2.90135">
        <ele>1087.5</ele>
        <time>2019-05-12T13:30:53Z</time>
      </trkpt>
      <trkpt lat="44.99375" lon="2.90138">
        <ele>1087.3</ele>
        <time>2019-05-12T13:30:56Z</time>
      </trkpt>
      <trkpt lat="44.99375" lon="2.90143">
        <ele>1087.1</ele>
        <time>2019-05-12T13:30:58Z</time>
      </trkpt>
      <trkpt lat="44.99375" lon="2.90147">
        <ele>1086.8</ele>
        <time>2019-05-12T13:31:00Z</time>
      </trkpt>
      <trkpt lat="44.99374" lon="2.90151">
        <ele>1086.6</ele>
        <time>2019-05-12T13:31:02Z</time>
      </trkpt>
      <trkpt lat="44.99374" lon="2.90157">
        <ele>1086.2</ele>
        <time>2019-05-12T13:31:05Z</time>
      </trkpt>
      <trkpt lat="44.99374" lon="2.90161">
        <ele>1086</ele>
        <time>2019-05-12T13:31:07Z</time>
      </trkpt>
      <trkpt lat="44.99374" lon="2.90167">
        <ele>1085.8</ele>
        <time>2019-05-12T13:31:10Z</time>
      </trkpt>
      <trkpt lat="44.99373" lon="2.90171">
        <ele>1085.5</ele>
        <time>2019-05-12T13:31:12Z</time>
      </trkpt>
      <trkpt lat="44.99373" lon="2.90176">
        <ele>1085.3</ele>
        <time>2019-05-12T13:31:15Z</time>
      </trkpt>
      <trkpt lat="44.99373" lon="2.90181">
        <ele>1085.1</ele>
        <time>2019-05-12T13:31:18Z</time>
      </trkpt>
      <trkpt lat="44.99375" lon="2.90185">
        <ele>1084.9</ele>
        <time>2019-05-12T13:31:21Z</time>
      </trkpt>
      <trkpt lat="44.99376" lon="2.90189">
        <ele>1084.7</ele>
        <time>2019-05-12T13:31:23Z</time>
      </trkpt>
      <trkpt lat="44.99377" lon="2.90193">
        <ele>1084.5</ele>
        <time>2019-05-12T13:31:25Z</time>
      </trkpt>
      <trkpt lat="44.99376" lon="2.90198">
        <ele>1084.3</ele>
        <time>2019-05-12T13:31:28Z</time>
      </trkpt>
      <trkpt lat="44.99377" lon="2.90203">
        <ele>1084.1</ele>
        <time>2019-05-12T13:31:31Z</time>
      </trkpt>
      <trkpt lat="44.99377" lon="2.90207">
        <ele>1083.9</ele>
        <time>2019-05-12T13:31:34Z</time>
      </trkpt>
      <trkpt lat="44.99378" lon="2.90211">
        <ele>1083.7</ele>
        <time>2019-05-12T13:31:38Z</time>
      </trkpt>
      <trkpt lat="44.99378" lon="2.90216">
        <ele>1083.5</ele>
        <time>2019-05-12T13:31:41Z</time>
      </trkpt>
      <trkpt lat="44.99377" lon="2.90221">
        <ele>1083.3</ele>
        <time>2019-05-12T13:31:44Z</time>
      </trkpt>
      <trkpt lat="44.99376" lon="2.90226">
        <ele>1083</ele>
        <time>2019-05-12T13:31:47Z</time>
      </trkpt>
      <trkpt lat="44.99376" lon="2.90232">
        <ele>1082.8</ele>
        <time>2019-05-12T13:31:50Z</time>
      </trkpt>
      <trkpt lat="44.99376" lon="2.90235">
        <ele>1082.6</ele>
        <time>2019-05-12T13:31:52Z</time>
      </trkpt>
      <trkpt lat="44.99377" lon="2.90239">
        <ele>1082.3</ele>
        <time>2019-05-12T13:31:54Z</time>
      </trkpt>
      <trkpt lat="44.99376" lon="2.90243">
        <ele>1082.1</ele>
        <time>2019-05-12T13:31:56Z</time>
      </trkpt>
      <trkpt lat="44.99376" lon="2.90247">
        <ele>1081.9</ele>
        <time>2019-05-12T13:31:58Z</time>
      </trkpt>
      <trkpt lat="44.99376" lon="2.90252">
        <ele>1081.6</ele>
        <time>2019-05-12T13:32:01Z</time>
      </trkpt>
      <trkpt lat="44.99376" lon="2.90256">
        <ele>1081.4</ele>
        <time>2019-05-12T13:32:04Z</time>
      </trkpt>
      <trkpt lat="44.99376" lon="2.90261">
        <ele>1081.3</ele>
        <time>2019-05-12T13:32:07Z</time>
      </trkpt>
      <trkpt lat="44.99376" lon="2.90265">
        <ele>1081.1</ele>
        <time>2019-05-12T13:32:09Z</time>
      </trkpt>
      <trkpt lat="44.99374" lon="2.90268">
        <ele>1081</ele>
        <time>2019-05-12T13:32:12Z</time>
      </trkpt>
      <trkpt lat="44.99373" lon="2.90272">
        <ele>1080.9</ele>
        <time>2019-05-12T13:32:14Z</time>
      </trkpt>
      <trkpt lat="44.99372" lon="2.90276">
        <ele>1080.7</ele>
        <time>2019-05-12T13:32:17Z</time>
      </trkpt>
      <trkpt lat="44.9937" lon="2.90279">
        <ele>1080.5</ele>
        <time>2019-05-12T13:32:19Z</time>
      </trkpt>
      <trkpt lat="44.99368" lon="2.90283">
        <ele>1080.4</ele>
        <time>2019-05-12T13:32:23Z</time>
      </trkpt>
      <trkpt lat="44.99367" lon="2.90287">
        <ele>1080.2</ele>
        <time>2019-05-12T13:32:25Z</time>
      </trkpt>
      <trkpt lat="44.99364" lon="2.90291">
        <ele>1080.1</ele>
        <time>2019-05-12T13:32:28Z</time>
      </trkpt>
      <trkpt lat="44.99362" lon="2.90294">
        <ele>1079.9</ele>
        <time>2019-05-12T13:32:30Z</time>
      </trkpt>
      <trkpt lat="44.9936" lon="2.90297">
        <ele>1079.4</ele>
        <time>2019-05-12T13:32:32Z</time>
      </trkpt>
      <trkpt lat="44.99357" lon="2.90301">
        <ele>1079.3</ele>
        <time>2019-05-12T13:32:37Z</time>
      </trkpt>
      <trkpt lat="44.99354" lon="2.90303">
        <ele>1079.2</ele>
        <time>2019-05-12T13:32:40Z</time>
      </trkpt>
      <trkpt lat="44.99352" lon="2.90306">
        <ele>1079.1</ele>
        <time>2019-05-12T13:32:42Z</time>
      </trkpt>
      <trkpt lat="44.99349" lon="2.90307">
        <ele>1079</ele>
        <time>2019-05-12T13:32:44Z</time>
      </trkpt>
      <trkpt lat="44.99346" lon="2.90308">
        <ele>1078.8</ele>
        <time>2019-05-12T13:32:46Z</time>
      </trkpt>
      <trkpt lat="44.99343" lon="2.90308">
        <ele>1078.7</ele>
        <time>2019-05-12T13:32:48Z</time>
      </trkpt>
      <trkpt lat="44.9934" lon="2.9031">
        <ele>1078.6</ele>
        <time>2019-05-12T13:32:50Z</time>
      </trkpt>
      <trkpt lat="44.99337" lon="2.90312">
        <ele>1078.6</ele>
        <time>2019-05-12T13:32:52Z</time>
      </trkpt>
      <trkpt lat="44.99333" lon="2.90313">
        <ele>1078.4</ele>
        <time>2019-05-12T13:32:56Z</time>
      </trkpt>
      <trkpt lat="44.9933" lon="2.90314">
        <ele>1078.4</ele>
        <time>2019-05-12T13:32:58Z</time>
      </trkpt>
      <trkpt lat="44.99327" lon="2.90313">
        <ele>1078.3</ele>
        <time>2019-05-12T13:33:01Z</time>
      </trkpt>
      <trkpt lat="44.99324" lon="2.90314">
        <ele>1078.2</ele>
        <time>2019-05-12T13:33:04Z</time>
      </trkpt>
      <trkpt lat="44.9932" lon="2.90315">
        <ele>1078</ele>
        <time>2019-05-12T13:33:08Z</time>
      </trkpt>
      <trkpt lat="44.99317" lon="2.90315">
        <ele>1077.9</ele>
        <time>2019-05-12T13:33:11Z</time>
      </trkpt>
      <trkpt lat="44.99314" lon="2.90314">
        <ele>1077.8</ele>
        <time>2019-05-12T13:33:14Z</time>
      </trkpt>
      <trkpt lat="44.9931" lon="2.90315">
        <ele>1077.6</ele>
        <time>2019-05-12T13:33:17Z</time>
      </trkpt>
      <trkpt lat="44.99308" lon="2.90317">
        <ele>1077.5</ele>
        <time>2019-05-12T13:33:19Z</time>
      </trkpt>
      <trkpt lat="44.99305" lon="2.90319">
        <ele>1077.4</ele>
        <time>2019-05-12T13:33:21Z</time>
      </trkpt>
      <trkpt lat="44.99302" lon="2.90322">
        <ele>1077.3</ele>
        <time>2019-05-12T13:33:23Z</time>
      </trkpt>
      <trkpt lat="44.99299" lon="2.90324">
        <ele>1077.2</ele>
        <time>2019-05-12T13:33:25Z</time>
      </trkpt>
      <trkpt lat="44.99296" lon="2.90326">
        <ele>1077.1</ele>
        <time>2019-05-12T13:33:28Z</time>
      </trkpt>
      <trkpt lat="44.99293" lon="2.90326">
        <ele>1077</ele>
        <time>2019-05-12T13:33:31Z</time>
      </trkpt>
      <trkpt lat="44.9929" lon="2.90324">
        <ele>1076.9</ele>
        <time>2019-05-12T13:33:34Z</time>
      </trkpt>
      <trkpt lat="44.99286" lon="2.90324">
        <ele>1076.7</ele>
        <time>2019-05-12T13:33:37Z</time>
      </trkpt>
      <trkpt lat="44.99283" lon="2.90326">
        <ele>1076.5</ele>
        <time>2019-05-12T13:33:41Z</time>
      </trkpt>
      <trkpt lat="44.9928" lon="2.90329">
        <ele>1076.4</ele>
        <time>2019-05-12T13:33:46Z</time>
      </trkpt>
      <trkpt lat="44.99276" lon="2.90329">
        <ele>1076.3</ele>
        <time>2019-05-12T13:33:50Z</time>
      </trkpt>
      <trkpt lat="44.99273" lon="2.90328">
        <ele>1076.2</ele>
        <time>2019-05-12T13:33:53Z</time>
      </trkpt>
      <trkpt lat="44.99269" lon="2.90327">
        <ele>1076</ele>
        <time>2019-05-12T13:33:56Z</time>
      </trkpt>
      <trkpt lat="44.99266" lon="2.90326">
        <ele>1075.9</ele>
        <time>2019-05-12T13:33:59Z</time>
      </trkpt>
      <trkpt lat="44.99262" lon="2.90326">
        <ele>1075.7</ele>
        <time>2019-05-12T13:34:02Z</time>
      </trkpt>
      <trkpt lat="44.99258" lon="2.90327">
        <ele>1075.3</ele>
        <time>2019-05-12T13:34:04Z</time>
      </trkpt>
      <trkpt lat="44.99255" lon="2.9033">
        <ele>1074.9</ele>
        <time>2019-05-12T13:34:06Z</time>
      </trkpt>
      <trkpt lat="44.99252" lon="2.90331">
        <ele>1074.4</ele>
        <time>2019-05-12T13:34:08Z</time>
      </trkpt>
      <trkpt lat="44.9925" lon="2.90332">
        <ele>1074.1</ele>
        <time>2019-05-12T13:34:10Z</time>
      </trkpt>
      <trkpt lat="44.99246" lon="2.90333">
        <ele>1073.6</ele>
        <time>2019-05-12T13:34:13Z</time>
      </trkpt>
      <trkpt lat="44.99242" lon="2.90333">
        <ele>1073.3</ele>
        <time>2019-05-12T13:34:16Z</time>
      </trkpt>
      <trkpt lat="44.99239" lon="2.90334">
        <ele>1073</ele>
        <time>2019-05-12T13:34:19Z</time>
      </trkpt>
      <trkpt lat="44.99236" lon="2.90334">
        <ele>1072.8</ele>
        <time>2019-05-12T13:34:22Z</time>
      </trkpt>
      <trkpt lat="44.99232" lon="2.90337">
        <ele>1072.5</ele>
        <time>2019-05-12T13:34:25Z</time>
      </trkpt>
      <trkpt lat="44.99229" lon="2.90338">
        <ele>1072.4</ele>
        <time>2019-05-12T13:34:27Z</time>
      </trkpt>
      <trkpt lat="44.99226" lon="2.90339">
        <ele>1072.3</ele>
        <time>2019-05-12T13:34:30Z</time>
      </trkpt>
      <trkpt lat="44.99224" lon="2.90341">
        <ele>1072.2</ele>
        <time>2019-05-12T13:34:33Z</time>
      </trkpt>
      <trkpt lat="44.9922" lon="2.90343">
        <ele>1072.2</ele>
        <time>2019-05-12T13:34:36Z</time>
      </trkpt>
      <trkpt lat="44.99217" lon="2.90344">
        <ele>1072.2</ele>
        <time>2019-05-12T13:34:39Z</time>
      </trkpt>
      <trkpt lat="44.99214" lon="2.90346">
        <ele>1071.6</ele>
        <time>2019-05-12T13:34:42Z</time>
      </trkpt>
      <trkpt lat="44.99212" lon="2.9035">
        <ele>1071.3</ele>
        <time>2019-05-12T13:34:45Z</time>
      </trkpt>
      <trkpt lat="44.99211" lon="2.90355">
        <ele>1071.1</ele>
        <time>2019-05-12T13:34:49Z</time>
      </trkpt>
      <trkpt lat="44.99209" lon="2.90358">
        <ele>1070.9</ele>
        <time>2019-05-12T13:34:52Z</time>
      </trkpt>
      <trkpt lat="44.99208" lon="2.90364">
        <ele>1070.5</ele>
        <time>2019-05-12T13:34:55Z</time>
      </trkpt>
      <trkpt lat="44.99207" lon="2.90369">
        <ele>1070.3</ele>
        <time>2019-05-12T13:34:58Z</time>
      </trkpt>
      <trkpt lat="44.99206" lon="2.90374">
        <ele>1070</ele>
        <time>2019-05-12T13:35:01Z</time>
      </trkpt>
      <trkpt lat="44.99204" lon="2.90378">
        <ele>1069.8</ele>
        <time>2019-05-12T13:35:04Z</time>
      </trkpt>
      <trkpt lat="44.99202" lon="2.9038">
        <ele>1069.6</ele>
        <time>2019-05-12T13:35:07Z</time>
      </trkpt>
      <trkpt lat="44.992" lon="2.90384">
        <ele>1069.4</ele>
        <time>2019-05-12T13:35:09Z</time>
      </trkpt>
      <trkpt lat="44.99199" lon="2.90389">
        <ele>1069.2</ele>
        <time>2019-05-12T13:35:13Z</time>
      </trkpt>
      <trkpt lat="44.99198" lon="2.90394">
        <ele>1068.9</ele>
        <time>2019-05-12T13:35:16Z</time>
      </trkpt>
      <trkpt lat="44.99197" lon="2.90398">
        <ele>1068.7</ele>
        <time>2019-05-12T13:35:19Z</time>
      </trkpt>
      <trkpt lat="44.99195" lon="2.90402">
        <ele>1068.6</ele>
        <time>2019-05-12T13:35:22Z</time>
      </trkpt>
      <trkpt lat="44.99194" lon="2.90407">
        <ele>1068.4</ele>
        <time>2019-05-12T13:35:25Z</time>
      </trkpt>
      <trkpt lat="44.99193" lon="2.9041">
        <ele>1068.2</ele>
        <time>2019-05-12T13:35:28Z</time>
      </trkpt>
      <trkpt lat="44.99192" lon="2.90414">
        <ele>1068.1</ele>
        <time>2019-05-12T13:35:30Z</time>
      </trkpt>
      <trkpt lat="44.99191" lon="2.90418">
        <ele>1068</ele>
        <time>2019-05-12T13:35:32Z</time>
      </trkpt>
      <trkpt lat="44.99189" lon="2.90423">
        <ele>1067.8</ele>
        <time>2019-05-12T13:35:35Z</time>
      </trkpt>
      <trkpt lat="44.99189" lon="2.90427">
        <ele>1067.7</ele>
        <time>2019-05-12T13:35:37Z</time>
      </trkpt>
      <trkpt lat="44.99187" lon="2.90431">
        <ele>1067.6</ele>
        <time>2019-05-12T13:35:39Z</time>
      </trkpt>
      <trkpt lat="44.99185" lon="2.90434">
        <ele>1067.5</ele>
        <time>2019-05-12T13:35:41Z</time>
      </trkpt>
      <trkpt lat="44.99184" lon="2.90438">
        <ele>1067.4</ele>
        <time>2019-05-12T13:35:43Z</time>
      </trkpt>
      <trkpt lat="44.99181" lon="2.90442">
        <ele>1067.3</ele>
        <time>2019-05-12T13:35:45Z</time>
      </trkpt>
      <trkpt lat="44.9918" lon="2.90446">
        <ele>1067.2</ele>
        <time>2019-05-12T13:35:48Z</time>
      </trkpt>
      <trkpt lat="44.9918" lon="2.9045">
        <ele>1067.1</ele>
        <time>2019-05-12T13:35:50Z</time>
      </trkpt>
      <trkpt lat="44.99179" lon="2.90454">
        <ele>1066.9</ele>
        <time>2019-05-12T13:35:52Z</time>
      </trkpt>
      <trkpt lat="44.99178" lon="2.90458">
        <ele>1066.8</ele>
        <time>2019-05-12T13:35:54Z</time>
      </trkpt>
      <trkpt lat="44.99177" lon="2.90461">
        <ele>1066.7</ele>
        <time>2019-05-12T13:35:56Z</time>
      </trkpt>
      <trkpt lat="44.99175" lon="2.90466">
        <ele>1066.6</ele>
        <time>2019-05-12T13:36:00Z</time>
      </trkpt>
      <trkpt lat="44.99173" lon="2.90471">
        <ele>1066.5</ele>
        <time>2019-05-12T13:36:03Z</time>
      </trkpt>
      <trkpt lat="44.99171" lon="2.90475">
        <ele>1066.4</ele>
        <time>2019-05-12T13:36:05Z</time>
      </trkpt>
      <trkpt lat="44.9917" lon="2.90479">
        <ele>1066.2</ele>
        <time>2019-05-12T13:36:09Z</time>
      </trkpt>
      <trkpt lat="44.99169" lon="2.90484">
        <ele>1066.1</ele>
        <time>2019-05-12T13:36:12Z</time>
      </trkpt>
      <trkpt lat="44.99167" lon="2.90488">
        <ele>1066</ele>
        <time>2019-05-12T13:36:15Z</time>
      </trkpt>
      <trkpt lat="44.99167" lon="2.90492">
        <ele>1065.9</ele>
        <time>2019-05-12T13:36:25Z</time>
      </trkpt>
      <trkpt lat="44.99167" lon="2.90498">
        <ele>1065.7</ele>
        <time>2019-05-12T13:36:28Z</time>
      </trkpt>
      <trkpt lat="44.99167" lon="2.90502">
        <ele>1065.5</ele>
        <time>2019-05-12T13:36:31Z</time>
      </trkpt>
      <trkpt lat="44.99167" lon="2.90506">
        <ele>1065.4</ele>
        <time>2019-05-12T13:36:33Z</time>
      </trkpt>
      <trkpt lat="44.99167" lon="2.90511">
        <ele>1065.3</ele>
        <time>2019-05-12T13:36:35Z</time>
      </trkpt>
      <trkpt lat="44.99167" lon="2.90515">
        <ele>1065.2</ele>
        <time>2019-05-12T13:36:37Z</time>
      </trkpt>
      <trkpt lat="44.99167" lon="2.90519">
        <ele>1065.1</ele>
        <time>2019-05-12T13:36:39Z</time>
      </trkpt>
      <trkpt lat="44.99169" lon="2.90522">
        <ele>1065</ele>
        <time>2019-05-12T13:36:41Z</time>
      </trkpt>
      <trkpt lat="44.99171" lon="2.90526">
        <ele>1064.8</ele>
        <time>2019-05-12T13:36:45Z</time>
      </trkpt>
      <trkpt lat="44.99171" lon="2.9053">
        <ele>1064.7</ele>
        <time>2019-05-12T13:36:48Z</time>
      </trkpt>
      <trkpt lat="44.9917" lon="2.90534">
        <ele>1064.5</ele>
        <time>2019-05-12T13:36:51Z</time>
      </trkpt>
      <trkpt lat="44.99169" lon="2.9054">
        <ele>1064.3</ele>
        <time>2019-05-12T13:36:54Z</time>
      </trkpt>
      <trkpt lat="44.99169" lon="2.90544">
        <ele>1064.1</ele>
        <time>2019-05-12T13:36:56Z</time>
      </trkpt>
      <trkpt lat="44.99169" lon="2.90548">
        <ele>1063.9</ele>
        <time>2019-05-12T13:36:58Z</time>
      </trkpt>
      <trkpt lat="44.99169" lon="2.90552">
        <ele>1063.7</ele>
        <time>2019-05-12T13:37:00Z</time>
      </trkpt>
      <trkpt lat="44.99168" lon="2.90556">
        <ele>1063.6</ele>
        <time>2019-05-12T13:37:03Z</time>
      </trkpt>
      <trkpt lat="44.99168" lon="2.9056">
        <ele>1063.4</ele>
        <time>2019-05-12T13:37:06Z</time>
      </trkpt>
      <trkpt lat="44.99167" lon="2.90565">
        <ele>1063.2</ele>
        <time>2019-05-12T13:37:08Z</time>
      </trkpt>
      <trkpt lat="44.99167" lon="2.90569">
        <ele>1063</ele>
        <time>2019-05-12T13:37:10Z</time>
      </trkpt>
      <trkpt lat="44.99165" lon="2.90572">
        <ele>1062.9</ele>
        <time>2019-05-12T13:37:13Z</time>
      </trkpt>
      <trkpt lat="44.99163" lon="2.90577">
        <ele>1062.7</ele>
        <time>2019-05-12T13:37:16Z</time>
      </trkpt>
      <trkpt lat="44.99161" lon="2.90581">
        <ele>1062.4</ele>
        <time>2019-05-12T13:37:19Z</time>
      </trkpt>
      <trkpt lat="44.99161" lon="2.90586">
        <ele>1062.2</ele>
        <time>2019-05-12T13:37:21Z</time>
      </trkpt>
      <trkpt lat="44.9916" lon="2.90591">
        <ele>1061.9</ele>
        <time>2019-05-12T13:37:24Z</time>
      </trkpt>
      <trkpt lat="44.99159" lon="2.90596">
        <ele>1061.7</ele>
        <time>2019-05-12T13:37:26Z</time>
      </trkpt>
      <trkpt lat="44.99158" lon="2.90599">
        <ele>1061.5</ele>
        <time>2019-05-12T13:37:28Z</time>
      </trkpt>
      <trkpt lat="44.99155" lon="2.90603">
        <ele>1061.2</ele>
        <time>2019-05-12T13:37:32Z</time>
      </trkpt>
      <trkpt lat="44.99154" lon="2.90607">
        <ele>1061</ele>
        <time>2019-05-12T13:37:36Z</time>
      </trkpt>
      <trkpt lat="44.99151" lon="2.90608">
        <ele>1060.8</ele>
        <time>2019-05-12T13:37:38Z</time>
      </trkpt>
      <trkpt lat="44.99149" lon="2.90611">
        <ele>1060.6</ele>
        <time>2019-05-12T13:37:42Z</time>
      </trkpt>
      <trkpt lat="44.99148" lon="2.90617">
        <ele>1060.3</ele>
        <time>2019-05-12T13:37:45Z</time>
      </trkpt>
      <trkpt lat="44.99148" lon="2.90622">
        <ele>1060</ele>
        <time>2019-05-12T13:37:48Z</time>
      </trkpt>
      <trkpt lat="44.99147" lon="2.90627">
        <ele>1059.8</ele>
        <time>2019-05-12T13:37:51Z</time>
      </trkpt>
      <trkpt lat="44.99146" lon="2.90632">
        <ele>1059.5</ele>
        <time>2019-05-12T13:37:53Z</time>
      </trkpt>
      <trkpt lat="44.99145" lon="2.90636">
        <ele>1059.4</ele>
        <time>2019-05-12T13:37:55Z</time>
      </trkpt>
      <trkpt lat="44.99144" lon="2.9064">
        <ele>1059.2</ele>
        <time>2019-05-12T13:37:57Z</time>
      </trkpt>
      <trkpt lat="44.99142" lon="2.90644">
        <ele>1059.1</ele>
        <time>2019-05-12T13:38:00Z</time>
      </trkpt>
      <trkpt lat="44.9914" lon="2.90647">
        <ele>1058.9</ele>
        <time>2019-05-12T13:38:02Z</time>
      </trkpt>
      <trkpt lat="44.99139" lon="2.9065">
        <ele>1058.8</ele>
        <time>2019-05-12T13:38:04Z</time>
      </trkpt>
      <trkpt lat="44.99137" lon="2.90654">
        <ele>1058.7</ele>
        <time>2019-05-12T13:38:06Z</time>
      </trkpt>
      <trkpt lat="44.99136" lon="2.90658">
        <ele>1058.6</ele>
        <time>2019-05-12T13:38:08Z</time>
      </trkpt>
      <trkpt lat="44.99134" lon="2.90662">
        <ele>1058.4</ele>
        <time>2019-05-12T13:38:10Z</time>
      </trkpt>
      <trkpt lat="44.99132" lon="2.90667">
        <ele>1058.3</ele>
        <time>2019-05-12T13:38:13Z</time>
      </trkpt>
      <trkpt lat="44.99131" lon="2.90671">
        <ele>1058.2</ele>
        <time>2019-05-12T13:38:15Z</time>
      </trkpt>
      <trkpt lat="44.99129" lon="2.90675">
        <ele>1058.1</ele>
        <time>2019-05-12T13:38:17Z</time>
      </trkpt>
      <trkpt lat="44.99127" lon="2.90679">
        <ele>1058</ele>
        <time>2019-05-12T13:38:19Z</time>
      </trkpt>
      <trkpt lat="44.99126" lon="2.90684">
        <ele>1057.9</ele>
        <time>2019-05-12T13:38:22Z</time>
      </trkpt>
      <trkpt lat="44.99123" lon="2.90686">
        <ele>1057.8</ele>
        <time>2019-05-12T13:38:25Z</time>
      </trkpt>
      <trkpt lat="44.9912" lon="2.9069">
        <ele>1057.6</ele>
        <time>2019-05-12T13:38:28Z</time>
      </trkpt>
      <trkpt lat="44.99118" lon="2.90693">
        <ele>1057.5</ele>
        <time>2019-05-12T13:38:30Z</time>
      </trkpt>
      <trkpt lat="44.99116" lon="2.90697">
        <ele>1057.3</ele>
        <time>2019-05-12T13:38:32Z</time>
      </trkpt>
      <trkpt lat="44.99114" lon="2.907">
        <ele>1057.1</ele>
        <time>2019-05-12T13:38:36Z</time>
      </trkpt>
      <trkpt lat="44.99112" lon="2.90704">
        <ele>1056.9</ele>
        <time>2019-05-12T13:38:38Z</time>
      </trkpt>
      <trkpt lat="44.9911" lon="2.90708">
        <ele>1056.6</ele>
        <time>2019-05-12T13:38:40Z</time>
      </trkpt>
      <trkpt lat="44.99108" lon="2.9071">
        <ele>1056.4</ele>
        <time>2019-05-12T13:38:42Z</time>
      </trkpt>
      <trkpt lat="44.99106" lon="2.90713">
        <ele>1056.2</ele>
        <time>2019-05-12T13:38:44Z</time>
      </trkpt>
      <trkpt lat="44.99104" lon="2.90717">
        <ele>1056</ele>
        <time>2019-05-12T13:38:46Z</time>
      </trkpt>
      <trkpt lat="44.99102" lon="2.90721">
        <ele>1055.8</ele>
        <time>2019-05-12T13:38:48Z</time>
      </trkpt>
      <trkpt lat="44.991" lon="2.90725">
        <ele>1055.6</ele>
        <time>2019-05-12T13:38:50Z</time>
      </trkpt>
      <trkpt lat="44.99097" lon="2.90729">
        <ele>1055.4</ele>
        <time>2019-05-12T13:38:53Z</time>
      </trkpt>
      <trkpt lat="44.99094" lon="2.90733">
        <ele>1055.3</ele>
        <time>2019-05-12T13:38:56Z</time>
      </trkpt>
      <trkpt lat="44.99092" lon="2.90736">
        <ele>1055.1</ele>
        <time>2019-05-12T13:38:59Z</time>
      </trkpt>
      <trkpt lat="44.99091" lon="2.90739">
        <ele>1055</ele>
        <time>2019-05-12T13:39:01Z</time>
      </trkpt>
      <trkpt lat="44.99087" lon="2.90743">
        <ele>1054.9</ele>
        <time>2019-05-12T13:39:04Z</time>
      </trkpt>
      <trkpt lat="44.99085" lon="2.90746">
        <ele>1054.7</ele>
        <time>2019-05-12T13:39:06Z</time>
      </trkpt>
      <trkpt lat="44.99083" lon="2.9075">
        <ele>1054.6</ele>
        <time>2019-05-12T13:39:08Z</time>
      </trkpt>
      <trkpt lat="44.99081" lon="2.90753">
        <ele>1054.4</ele>
        <time>2019-05-12T13:39:10Z</time>
      </trkpt>
      <trkpt lat="44.99079" lon="2.90756">
        <ele>1054.3</ele>
        <time>2019-05-12T13:39:13Z</time>
      </trkpt>
      <trkpt lat="44.99076" lon="2.90758">
        <ele>1054.1</ele>
        <time>2019-05-12T13:39:17Z</time>
      </trkpt>
      <trkpt lat="44.99073" lon="2.90762">
        <ele>1053.8</ele>
        <time>2019-05-12T13:39:20Z</time>
      </trkpt>
      <trkpt lat="44.9907" lon="2.90764">
        <ele>1053.7</ele>
        <time>2019-05-12T13:39:22Z</time>
      </trkpt>
      <trkpt lat="44.99067" lon="2.90764">
        <ele>1053.5</ele>
        <time>2019-05-12T13:39:26Z</time>
      </trkpt>
      <trkpt lat="44.99064" lon="2.90765">
        <ele>1053.4</ele>
        <time>2019-05-12T13:39:28Z</time>
      </trkpt>
      <trkpt lat="44.99061" lon="2.90768">
        <ele>1053.2</ele>
        <time>2019-05-12T13:39:30Z</time>
      </trkpt>
      <trkpt lat="44.99059" lon="2.90765">
        <ele>1053</ele>
        <time>2019-05-12T13:39:32Z</time>
      </trkpt>
      <trkpt lat="44.99056" lon="2.90768">
        <ele>1052.8</ele>
        <time>2019-05-12T13:39:35Z</time>
      </trkpt>
      <trkpt lat="44.99053" lon="2.90768">
        <ele>1052.7</ele>
        <time>2019-05-12T13:39:37Z</time>
      </trkpt>
      <trkpt lat="44.99051" lon="2.90771">
        <ele>1052.5</ele>
        <time>2019-05-12T13:39:39Z</time>
      </trkpt>
      <trkpt lat="44.9905" lon="2.90775">
        <ele>1052.3</ele>
        <time>2019-05-12T13:39:41Z</time>
      </trkpt>
      <trkpt lat="44.99048" lon="2.9078">
        <ele>1052.1</ele>
        <time>2019-05-12T13:39:44Z</time>
      </trkpt>
      <trkpt lat="44.99047" lon="2.90784">
        <ele>1052</ele>
        <time>2019-05-12T13:39:47Z</time>
      </trkpt>
      <trkpt lat="44.99047" lon="2.90791">
        <ele>1051.9</ele>
        <time>2019-05-12T13:39:50Z</time>
      </trkpt>
      <trkpt lat="44.99048" lon="2.90797">
        <ele>1051.8</ele>
        <time>2019-05-12T13:39:52Z</time>
      </trkpt>
      <trkpt lat="44.99049" lon="2.90803">
        <ele>1051.6</ele>
        <time>2019-05-12T13:39:54Z</time>
      </trkpt>
      <trkpt lat="44.99051" lon="2.90808">
        <ele>1051.6</ele>
        <time>2019-05-12T13:39:56Z</time>
      </trkpt>
      <trkpt lat="44.99053" lon="2.90811">
        <ele>1051.5</ele>
        <time>2019-05-12T13:39:58Z</time>
      </trkpt>
      <trkpt lat="44.99056" lon="2.90814">
        <ele>1051.5</ele>
        <time>2019-05-12T13:40:00Z</time>
      </trkpt>
      <trkpt lat="44.99059" lon="2.90817">
        <ele>1051.4</ele>
        <time>2019-05-12T13:40:03Z</time>
      </trkpt>
      <trkpt lat="44.99061" lon="2.9082">
        <ele>1051.3</ele>
        <time>2019-05-12T13:40:08Z</time>
      </trkpt>
      <trkpt lat="44.99063" lon="2.90823">
        <ele>1051.3</ele>
        <time>2019-05-12T13:40:12Z</time>
      </trkpt>
      <trkpt lat="44.99066" lon="2.90825">
        <ele>1051.3</ele>
        <time>2019-05-12T13:40:14Z</time>
      </trkpt>
      <trkpt lat="44.99068" lon="2.90825">
        <ele>1051.2</ele>
        <time>2019-05-12T13:40:17Z</time>
      </trkpt>
      <trkpt lat="44.99072" lon="2.90826">
        <ele>1051.2</ele>
        <time>2019-05-12T13:40:21Z</time>
      </trkpt>
      <trkpt lat="44.99075" lon="2.90828">
        <ele>1051.2</ele>
        <time>2019-05-12T13:40:24Z</time>
      </trkpt>
      <trkpt lat="44.99077" lon="2.9083">
        <ele>1051.2</ele>
        <time>2019-05-12T13:40:26Z</time>
      </trkpt>
      <trkpt lat="44.9908" lon="2.90833">
        <ele>1051.2</ele>
        <time>2019-05-12T13:40:29Z</time>
      </trkpt>
      <trkpt lat="44.99083" lon="2.90834">
        <ele>1051.1</ele>
        <time>2019-05-12T13:40:32Z</time>
      </trkpt>
      <trkpt lat="44.99086" lon="2.90837">
        <ele>1051.1</ele>
        <time>2019-05-12T13:40:35Z</time>
      </trkpt>
      <trkpt lat="44.99089" lon="2.90838">
        <ele>1051.1</ele>
        <time>2019-05-12T13:40:37Z</time>
      </trkpt>
      <trkpt lat="44.99092" lon="2.9084">
        <ele>1051.1</ele>
        <time>2019-05-12T13:40:39Z</time>
      </trkpt>
      <trkpt lat="44.99095" lon="2.90842">
        <ele>1051</ele>
        <time>2019-05-12T13:40:41Z</time>
      </trkpt>
      <trkpt lat="44.99099" lon="2.90843">
        <ele>1051</ele>
        <time>2019-05-12T13:40:43Z</time>
      </trkpt>
      <trkpt lat="44.99103" lon="2.90845">
        <ele>1050.9</ele>
        <time>2019-05-12T13:40:45Z</time>
      </trkpt>
      <trkpt lat="44.99105" lon="2.90849">
        <ele>1050.9</ele>
        <time>2019-05-12T13:40:48Z</time>
      </trkpt>
      <trkpt lat="44.99108" lon="2.90851">
        <ele>1050.8</ele>
        <time>2019-05-12T13:40:50Z</time>
      </trkpt>
      <trkpt lat="44.99111" lon="2.90852">
        <ele>1050.8</ele>
        <time>2019-05-12T13:40:53Z</time>
      </trkpt>
      <trkpt lat="44.99113" lon="2.90853">
        <ele>1050.8</ele>
        <time>2019-05-12T13:41:05Z</time>
      </trkpt>
      <trkpt lat="44.99117" lon="2.90855">
        <ele>1050.8</ele>
        <time>2019-05-12T13:41:09Z</time>
      </trkpt>
      <trkpt lat="44.9912" lon="2.90856">
        <ele>1050.9</ele>
        <time>2019-05-12T13:41:12Z</time>
      </trkpt>
      <trkpt lat="44.99122" lon="2.90859">
        <ele>1050.9</ele>
        <time>2019-05-12T13:41:15Z</time>
      </trkpt>
      <trkpt lat="44.99124" lon="2.90864">
        <ele>1051</ele>
        <time>2019-05-12T13:41:18Z</time>
      </trkpt>
      <trkpt lat="44.99126" lon="2.90867">
        <ele>1051</ele>
        <time>2019-05-12T13:41:21Z</time>
      </trkpt>
      <trkpt lat="44.99128" lon="2.90869">
        <ele>1051.1</ele>
        <time>2019-05-12T13:41:23Z</time>
      </trkpt>
      <trkpt lat="44.99132" lon="2.90871">
        <ele>1051.2</ele>
        <time>2019-05-12T13:41:26Z</time>
      </trkpt>
      <trkpt lat="44.99136" lon="2.90872">
        <ele>1051.2</ele>
        <time>2019-05-12T13:41:30Z</time>
      </trkpt>
      <trkpt lat="44.99139" lon="2.90874">
        <ele>1051.3</ele>
        <time>2019-05-12T13:41:33Z</time>
      </trkpt>
      <trkpt lat="44.99142" lon="2.90877">
        <ele>1051.3</ele>
        <time>2019-05-12T13:41:35Z</time>
      </trkpt>
      <trkpt lat="44.99145" lon="2.90879">
        <ele>1051.4</ele>
        <time>2019-05-12T13:41:37Z</time>
      </trkpt>
      <trkpt lat="44.99147" lon="2.9088">
        <ele>1051.4</ele>
        <time>2019-05-12T13:41:39Z</time>
      </trkpt>
      <trkpt lat="44.99151" lon="2.90882">
        <ele>1051.4</ele>
        <time>2019-05-12T13:41:42Z</time>
      </trkpt>
      <trkpt lat="44.99153" lon="2.90885">
        <ele>1051.5</ele>
        <time>2019-05-12T13:41:44Z</time>
      </trkpt>
      <trkpt lat="44.99156" lon="2.90886">
        <ele>1051.5</ele>
        <time>2019-05-12T13:41:46Z</time>
      </trkpt>
      <trkpt lat="44.99159" lon="2.90887">
        <ele>1051.5</ele>
        <time>2019-05-12T13:41:48Z</time>
      </trkpt>
      <trkpt lat="44.99162" lon="2.90889">
        <ele>1051.5</ele>
        <time>2019-05-12T13:41:50Z</time>
      </trkpt>
      <trkpt lat="44.99165" lon="2.90891">
        <ele>1051.6</ele>
        <time>2019-05-12T13:41:52Z</time>
      </trkpt>
      <trkpt lat="44.99168" lon="2.90894">
        <ele>1051.6</ele>
        <time>2019-05-12T13:41:55Z</time>
      </trkpt>
      <trkpt lat="44.99171" lon="2.90896">
        <ele>1051.6</ele>
        <time>2019-05-12T13:41:57Z</time>
      </trkpt>
      <trkpt lat="44.99174" lon="2.90901">
        <ele>1051.6</ele>
        <time>2019-05-12T13:42:00Z</time>
      </trkpt>
      <trkpt lat="44.99175" lon="2.90905">
        <ele>1051.7</ele>
        <time>2019-05-12T13:42:04Z</time>
      </trkpt>
      <trkpt lat="44.99177" lon="2.9091">
        <ele>1051.7</ele>
        <time>2019-05-12T13:42:07Z</time>
      </trkpt>
      <trkpt lat="44.9918" lon="2.90914">
        <ele>1051.7</ele>
        <time>2019-05-12T13:42:10Z</time>
      </trkpt>
      <trkpt lat="44.99182" lon="2.90916">
        <ele>1051.8</ele>
        <time>2019-05-12T13:42:12Z</time>
      </trkpt>
      <trkpt lat="44.99184" lon="2.90919">
        <ele>1051.8</ele>
        <time>2019-05-12T13:42:15Z</time>
      </trkpt>
      <trkpt lat="44.99187" lon="2.90923">
        <ele>1051.8</ele>
        <time>2019-05-12T13:42:18Z</time>
      </trkpt>
      <trkpt lat="44.9919" lon="2.90926">
        <ele>1051.8</ele>
        <time>2019-05-12T13:42:21Z</time>
      </trkpt>
      <trkpt lat="44.99193" lon="2.90929">
        <ele>1051.8</ele>
        <time>2019-05-12T13:42:24Z</time>
      </trkpt>
      <trkpt lat="44.99194" lon="2.90933">
        <ele>1051.8</ele>
        <time>2019-05-12T13:42:28Z</time>
      </trkpt>
      <trkpt lat="44.99197" lon="2.90936">
        <ele>1051.8</ele>
        <time>2019-05-12T13:42:31Z</time>
      </trkpt>
      <trkpt lat="44.992" lon="2.90939">
        <ele>1051.8</ele>
        <time>2019-05-12T13:42:33Z</time>
      </trkpt>
      <trkpt lat="44.99199" lon="2.90943">
        <ele>1051.7</ele>
        <time>2019-05-12T13:42:38Z</time>
      </trkpt>
      <trkpt lat="44.99196" lon="2.90943">
        <ele>1051.7</ele>
        <time>2019-05-12T13:42:39Z</time>
      </trkpt>
      <trkpt lat="44.99192" lon="2.90942">
        <ele>1051.7</ele>
        <time>2019-05-12T13:42:41Z</time>
      </trkpt>
      <trkpt lat="44.9919" lon="2.90945">
        <ele>1051.7</ele>
        <time>2019-05-12T13:42:46Z</time>
      </trkpt>
      <trkpt lat="44.99192" lon="2.90948">
        <ele>1051.7</ele>
        <time>2019-05-12T13:42:53Z</time>
      </trkpt>
      <trkpt lat="44.99189" lon="2.90949">
        <ele>1051.6</ele>
        <time>2019-05-12T13:43:21Z</time>
      </trkpt>
      <trkpt lat="44.99186" lon="2.90951">
        <ele>1051.6</ele>
        <time>2019-05-12T13:43:24Z</time>
      </trkpt>
      <trkpt lat="44.99184" lon="2.90947">
        <ele>1051.6</ele>
        <time>2019-05-12T13:43:29Z</time>
      </trkpt>
      <trkpt lat="44.99184" lon="2.90943">
        <ele>1051.5</ele>
        <time>2019-05-12T13:43:32Z</time>
      </trkpt>
      <trkpt lat="44.99182" lon="2.90939">
        <ele>1051.4</ele>
        <time>2019-05-12T13:43:39Z</time>
      </trkpt>
      <trkpt lat="44.99185" lon="2.90942">
        <ele>1051.4</ele>
        <time>2019-05-12T13:43:57Z</time>
      </trkpt>
      <trkpt lat="44.99187" lon="2.90945">
        <ele>1051.3</ele>
        <time>2019-05-12T13:44:00Z</time>
      </trkpt>
      <trkpt lat="44.99189" lon="2.90948">
        <ele>1051.2</ele>
        <time>2019-05-12T13:44:02Z</time>
      </trkpt>
      <trkpt lat="44.99192" lon="2.9095">
        <ele>1051</ele>
        <time>2019-05-12T13:44:05Z</time>
      </trkpt>
      <trkpt lat="44.99196" lon="2.90952">
        <ele>1050.9</ele>
        <time>2019-05-12T13:44:11Z</time>
      </trkpt>
      <trkpt lat="44.99199" lon="2.90955">
        <ele>1050.6</ele>
        <time>2019-05-12T13:44:14Z</time>
      </trkpt>
      <trkpt lat="44.99202" lon="2.90957">
        <ele>1050.4</ele>
        <time>2019-05-12T13:44:18Z</time>
      </trkpt>
      <trkpt lat="44.99203" lon="2.90961">
        <ele>1050.3</ele>
        <time>2019-05-12T13:44:22Z</time>
      </trkpt>
      <trkpt lat="44.99206" lon="2.90963">
        <ele>1050.1</ele>
        <time>2019-05-12T13:44:31Z</time>
      </trkpt>
      <trkpt lat="44.99209" lon="2.90966">
        <ele>1049.9</ele>
        <time>2019-05-12T13:44:35Z</time>
      </trkpt>
      <trkpt lat="44.99212" lon="2.90967">
        <ele>1049.7</ele>
        <time>2019-05-12T13:44:38Z</time>
      </trkpt>
      <trkpt lat="44.99214" lon="2.9097">
        <ele>1049.5</ele>
        <time>2019-05-12T13:44:41Z</time>
      </trkpt>
      <trkpt lat="44.99216" lon="2.90974">
        <ele>1049.4</ele>
        <time>2019-05-12T13:44:44Z</time>
      </trkpt>
      <trkpt lat="44.99218" lon="2.90977">
        <ele>1049.2</ele>
        <time>2019-05-12T13:44:48Z</time>
      </trkpt>
      <trkpt lat="44.99219" lon="2.9098">
        <ele>1049.1</ele>
        <time>2019-05-12T13:45:14Z</time>
      </trkpt>
      <trkpt lat="44.9922" lon="2.90984">
        <ele>1048.9</ele>
        <time>2019-05-12T13:45:21Z</time>
      </trkpt>
      <trkpt lat="44.99223" lon="2.90986">
        <ele>1048.8</ele>
        <time>2019-05-12T13:45:24Z</time>
      </trkpt>
      <trkpt lat="44.99227" lon="2.90986">
        <ele>1048.6</ele>
        <time>2019-05-12T13:45:27Z</time>
      </trkpt>
      <trkpt lat="44.99228" lon="2.90989">
        <ele>1048.5</ele>
        <time>2019-05-12T13:46:16Z</time>
      </trkpt>
      <trkpt lat="44.99231" lon="2.90993">
        <ele>1048.4</ele>
        <time>2019-05-12T13:46:19Z</time>
      </trkpt>
      <trkpt lat="44.99235" lon="2.90996">
        <ele>1048.3</ele>
        <time>2019-05-12T13:46:21Z</time>
      </trkpt>
      <trkpt lat="44.99238" lon="2.90997">
        <ele>1048.2</ele>
        <time>2019-05-12T13:46:23Z</time>
      </trkpt>
      <trkpt lat="44.99241" lon="2.90998">
        <ele>1048.2</ele>
        <time>2019-05-12T13:46:25Z</time>
      </trkpt>
      <trkpt lat="44.99244" lon="2.90999">
        <ele>1048.1</ele>
        <time>2019-05-12T13:46:28Z</time>
      </trkpt>
      <trkpt lat="44.99247" lon="2.91001">
        <ele>1048.1</ele>
        <time>2019-05-12T13:46:37Z</time>
      </trkpt>
      <trkpt lat="44.99248" lon="2.91004">
        <ele>1048.1</ele>
        <time>2019-05-12T13:46:50Z</time>
      </trkpt>
      <trkpt lat="44.9925" lon="2.91008">
        <ele>1048.1</ele>
        <time>2019-05-12T13:46:56Z</time>
      </trkpt>
      <trkpt lat="44.99255" lon="2.91012">
        <ele>1048.2</ele>
        <time>2019-05-12T13:47:01Z</time>
      </trkpt>
      <trkpt lat="44.99258" lon="2.91014">
        <ele>1048.3</ele>
        <time>2019-05-12T13:47:03Z</time>
      </trkpt>
      <trkpt lat="44.9926" lon="2.91016">
        <ele>1048.3</ele>
        <time>2019-05-12T13:47:12Z</time>
      </trkpt>
      <trkpt lat="44.99264" lon="2.91018">
        <ele>1048.4</ele>
        <time>2019-05-12T13:47:15Z</time>
      </trkpt>
      <trkpt lat="44.99267" lon="2.91018">
        <ele>1048.6</ele>
        <time>2019-05-12T13:47:17Z</time>
      </trkpt>
      <trkpt lat="44.9927" lon="2.91018">
        <ele>1048.6</ele>
        <time>2019-05-12T13:47:27Z</time>
      </trkpt>
      <trkpt lat="44.99273" lon="2.91021">
        <ele>1048.7</ele>
        <time>2019-05-12T13:47:45Z</time>
      </trkpt>
      <trkpt lat="44.9927" lon="2.91024">
        <ele>1048.8</ele>
        <time>2019-05-12T13:47:51Z</time>
      </trkpt>
      <trkpt lat="44.99273" lon="2.91023">
        <ele>1048.9</ele>
        <time>2019-05-12T13:48:01Z</time>
      </trkpt>
      <trkpt lat="44.99276" lon="2.91024">
        <ele>1049</ele>
        <time>2019-05-12T13:48:06Z</time>
      </trkpt>
      <trkpt lat="44.9928" lon="2.91025">
        <ele>1049</ele>
        <time>2019-05-12T13:48:08Z</time>
      </trkpt>
      <trkpt lat="44.99282" lon="2.91027">
        <ele>1049.1</ele>
        <time>2019-05-12T13:48:11Z</time>
      </trkpt>
      <trkpt lat="44.99285" lon="2.91026">
        <ele>1049.1</ele>
        <time>2019-05-12T13:48:21Z</time>
      </trkpt>
      <trkpt lat="44.99286" lon="2.9103">
        <ele>1049.2</ele>
        <time>2019-05-12T13:48:25Z</time>
      </trkpt>
      <trkpt lat="44.99287" lon="2.91035">
        <ele>1049.2</ele>
        <time>2019-05-12T13:48:28Z</time>
      </trkpt>
      <trkpt lat="44.99291" lon="2.91036">
        <ele>1049.3</ele>
        <time>2019-05-12T13:48:34Z</time>
      </trkpt>
      <trkpt lat="44.99295" lon="2.91036">
        <ele>1049.3</ele>
        <time>2019-05-12T13:48:37Z</time>
      </trkpt>
      <trkpt lat="44.99297" lon="2.91037">
        <ele>1049.4</ele>
        <time>2019-05-12T13:48:39Z</time>
      </trkpt>
      <trkpt lat="44.993" lon="2.91038">
        <ele>1049.4</ele>
        <time>2019-05-12T13:48:44Z</time>
      </trkpt>
      <trkpt lat="44.99303" lon="2.91037">
        <ele>1049.5</ele>
        <time>2019-05-12T13:48:53Z</time>
      </trkpt>
      <trkpt lat="44.99307" lon="2.91036">
        <ele>1049.5</ele>
        <time>2019-05-12T13:48:57Z</time>
      </trkpt>
      <trkpt lat="44.99309" lon="2.91037">
        <ele>1049.5</ele>
        <time>2019-05-12T13:49:00Z</time>
      </trkpt>
      <trkpt lat="44.99311" lon="2.91041">
        <ele>1049.5</ele>
        <time>2019-05-12T13:49:03Z</time>
      </trkpt>
      <trkpt lat="44.99315" lon="2.91042">
        <ele>1049.5</ele>
        <time>2019-05-12T13:49:06Z</time>
      </trkpt>
      <trkpt lat="44.99317" lon="2.91044">
        <ele>1049.4</ele>
        <time>2019-05-12T13:49:09Z</time>
      </trkpt>
      <trkpt lat="44.9932" lon="2.91045">
        <ele>1049.4</ele>
        <time>2019-05-12T13:49:11Z</time>
      </trkpt>
      <trkpt lat="44.99323" lon="2.91047">
        <ele>1049.4</ele>
        <time>2019-05-12T13:49:13Z</time>
      </trkpt>
      <trkpt lat="44.99326" lon="2.91049">
        <ele>1049.4</ele>
        <time>2019-05-12T13:49:16Z</time>
      </trkpt>
      <trkpt lat="44.99329" lon="2.91051">
        <ele>1049.4</ele>
        <time>2019-05-12T13:49:19Z</time>
      </trkpt>
      <trkpt lat="44.99332" lon="2.91054">
        <ele>1049.4</ele>
        <time>2019-05-12T13:49:23Z</time>
      </trkpt>
      <trkpt lat="44.99333" lon="2.91057">
        <ele>1049.4</ele>
        <time>2019-05-12T13:49:27Z</time>
      </trkpt>
      <trkpt lat="44.99335" lon="2.91061">
        <ele>1049.4</ele>
        <time>2019-05-12T13:49:32Z</time>
      </trkpt>
      <trkpt lat="44.99338" lon="2.91062">
        <ele>1049.4</ele>
        <time>2019-05-12T13:49:34Z</time>
      </trkpt>
      <trkpt lat="44.99341" lon="2.91062">
        <ele>1049.4</ele>
        <time>2019-05-12T13:49:37Z</time>
      </trkpt>
      <trkpt lat="44.99345" lon="2.91063">
        <ele>1049.5</ele>
        <time>2019-05-12T13:49:40Z</time>
      </trkpt>
      <trkpt lat="44.99349" lon="2.91063">
        <ele>1049.5</ele>
        <time>2019-05-12T13:49:42Z</time>
      </trkpt>
      <trkpt lat="44.99352" lon="2.91063">
        <ele>1049.5</ele>
        <time>2019-05-12T13:49:44Z</time>
      </trkpt>
      <trkpt lat="44.99356" lon="2.91065">
        <ele>1049.6</ele>
        <time>2019-05-12T13:49:49Z</time>
      </trkpt>
      <trkpt lat="44.99359" lon="2.91065">
        <ele>1049.6</ele>
        <time>2019-05-12T13:49:56Z</time>
      </trkpt>
      <trkpt lat="44.99362" lon="2.91067">
        <ele>1049.7</ele>
        <time>2019-05-12T13:50:00Z</time>
      </trkpt>
      <trkpt lat="44.99366" lon="2.91067">
        <ele>1049.7</ele>
        <time>2019-05-12T13:50:06Z</time>
      </trkpt>
      <trkpt lat="44.99369" lon="2.91068">
        <ele>1049.7</ele>
        <time>2019-05-12T13:50:08Z</time>
      </trkpt>
      <trkpt lat="44.99372" lon="2.91069">
        <ele>1049.8</ele>
        <time>2019-05-12T13:50:10Z</time>
      </trkpt>
      <trkpt lat="44.99375" lon="2.91071">
        <ele>1049.8</ele>
        <time>2019-05-12T13:50:14Z</time>
      </trkpt>
      <trkpt lat="44.99378" lon="2.9107">
        <ele>1049.8</ele>
        <time>2019-05-12T13:50:18Z</time>
      </trkpt>
      <trkpt lat="44.99381" lon="2.91071">
        <ele>1049.8</ele>
        <time>2019-05-12T13:50:24Z</time>
      </trkpt>
      <trkpt lat="44.99384" lon="2.91073">
        <ele>1049.9</ele>
        <time>2019-05-12T13:50:27Z</time>
      </trkpt>
      <trkpt lat="44.99387" lon="2.91074">
        <ele>1049.9</ele>
        <time>2019-05-12T13:50:30Z</time>
      </trkpt>
      <trkpt lat="44.99391" lon="2.91074">
        <ele>1049.9</ele>
        <time>2019-05-12T13:50:33Z</time>
      </trkpt>
      <trkpt lat="44.99394" lon="2.91075">
        <ele>1049.9</ele>
        <time>2019-05-12T13:50:35Z</time>
      </trkpt>
      <trkpt lat="44.99397" lon="2.91076">
        <ele>1049.9</ele>
        <time>2019-05-12T13:50:38Z</time>
      </trkpt>
      <trkpt lat="44.994" lon="2.91078">
        <ele>1049.9</ele>
        <time>2019-05-12T13:50:41Z</time>
      </trkpt>
      <trkpt lat="44.99403" lon="2.91079">
        <ele>1049.9</ele>
        <time>2019-05-12T13:50:44Z</time>
      </trkpt>
      <trkpt lat="44.99407" lon="2.9108">
        <ele>1049.9</ele>
        <time>2019-05-12T13:50:47Z</time>
      </trkpt>
      <trkpt lat="44.9941" lon="2.91079">
        <ele>1050</ele>
        <time>2019-05-12T13:50:53Z</time>
      </trkpt>
      <trkpt lat="44.99412" lon="2.91079">
        <ele>1050</ele>
        <time>2019-05-12T13:51:04Z</time>
      </trkpt>
      <trkpt lat="44.99415" lon="2.91081">
        <ele>1050</ele>
        <time>2019-05-12T13:51:10Z</time>
      </trkpt>
      <trkpt lat="44.99418" lon="2.91082">
        <ele>1050</ele>
        <time>2019-05-12T13:51:12Z</time>
      </trkpt>
      <trkpt lat="44.99422" lon="2.91083">
        <ele>1050.1</ele>
        <time>2019-05-12T13:51:14Z</time>
      </trkpt>
      <trkpt lat="44.99425" lon="2.91083">
        <ele>1050.1</ele>
        <time>2019-05-12T13:51:16Z</time>
      </trkpt>
      <trkpt lat="44.99427" lon="2.91083">
        <ele>1050.2</ele>
        <time>2019-05-12T13:51:18Z</time>
      </trkpt>
      <trkpt lat="44.99431" lon="2.91084">
        <ele>1050.2</ele>
        <time>2019-05-12T13:51:21Z</time>
      </trkpt>
      <trkpt lat="44.99434" lon="2.91085">
        <ele>1050.3</ele>
        <time>2019-05-12T13:51:24Z</time>
      </trkpt>
      <trkpt lat="44.99436" lon="2.91086">
        <ele>1050.4</ele>
        <time>2019-05-12T13:51:27Z</time>
      </trkpt>
      <trkpt lat="44.9944" lon="2.91087">
        <ele>1050.4</ele>
        <time>2019-05-12T13:51:31Z</time>
      </trkpt>
      <trkpt lat="44.99442" lon="2.91089">
        <ele>1050.5</ele>
        <time>2019-05-12T13:51:34Z</time>
      </trkpt>
      <trkpt lat="44.99445" lon="2.9109">
        <ele>1050.6</ele>
        <time>2019-05-12T13:51:38Z</time>
      </trkpt>
      <trkpt lat="44.99448" lon="2.91092">
        <ele>1050.6</ele>
        <time>2019-05-12T13:51:41Z</time>
      </trkpt>
      <trkpt lat="44.99451" lon="2.91092">
        <ele>1050.7</ele>
        <time>2019-05-12T13:51:46Z</time>
      </trkpt>
      <trkpt lat="44.99453" lon="2.91093">
        <ele>1050.7</ele>
        <time>2019-05-12T13:51:49Z</time>
      </trkpt>
      <trkpt lat="44.99456" lon="2.91094">
        <ele>1050.7</ele>
        <time>2019-05-12T13:51:52Z</time>
      </trkpt>
      <trkpt lat="44.9946" lon="2.91094">
        <ele>1050.7</ele>
        <time>2019-05-12T13:51:55Z</time>
      </trkpt>
      <trkpt lat="44.99463" lon="2.91096">
        <ele>1050.7</ele>
        <time>2019-05-12T13:51:58Z</time>
      </trkpt>
      <trkpt lat="44.99464" lon="2.91101">
        <ele>1050.6</ele>
        <time>2019-05-12T13:52:02Z</time>
      </trkpt>
      <trkpt lat="44.99467" lon="2.91104">
        <ele>1050.5</ele>
        <time>2019-05-12T13:52:05Z</time>
      </trkpt>
      <trkpt lat="44.99471" lon="2.91106">
        <ele>1050.4</ele>
        <time>2019-05-12T13:52:07Z</time>
      </trkpt>
      <trkpt lat="44.99474" lon="2.91107">
        <ele>1050.3</ele>
        <time>2019-05-12T13:52:10Z</time>
      </trkpt>
      <trkpt lat="44.99477" lon="2.91108">
        <ele>1050.2</ele>
        <time>2019-05-12T13:52:14Z</time>
      </trkpt>
      <trkpt lat="44.9948" lon="2.91108">
        <ele>1050.1</ele>
        <time>2019-05-12T13:52:18Z</time>
      </trkpt>
      <trkpt lat="44.99484" lon="2.91109">
        <ele>1050.1</ele>
        <time>2019-05-12T13:52:21Z</time>
      </trkpt>
      <trkpt lat="44.99486" lon="2.9111">
        <ele>1050</ele>
        <time>2019-05-12T13:52:23Z</time>
      </trkpt>
      <trkpt lat="44.9949" lon="2.9111">
        <ele>1050</ele>
        <time>2019-05-12T13:52:26Z</time>
      </trkpt>
      <trkpt lat="44.99492" lon="2.9111">
        <ele>1050</ele>
        <time>2019-05-12T13:52:29Z</time>
      </trkpt>
      <trkpt lat="44.99495" lon="2.91108">
        <ele>1049.9</ele>
        <time>2019-05-12T13:52:37Z</time>
      </trkpt>
      <trkpt lat="44.99498" lon="2.9111">
        <ele>1049.9</ele>
        <time>2019-05-12T13:52:42Z</time>
      </trkpt>
      <trkpt lat="44.99501" lon="2.91111">
        <ele>1049.9</ele>
        <time>2019-05-12T13:52:44Z</time>
      </trkpt>
      <trkpt lat="44.99504" lon="2.91113">
        <ele>1050</ele>
        <time>2019-05-12T13:52:46Z</time>
      </trkpt>
      <trkpt lat="44.99507" lon="2.91115">
        <ele>1050</ele>
        <time>2019-05-12T13:53:03Z</time>
      </trkpt>
      <trkpt lat="44.9951" lon="2.9112">
        <ele>1050</ele>
        <time>2019-05-12T13:53:06Z</time>
      </trkpt>
      <trkpt lat="44.99513" lon="2.91123">
        <ele>1050.1</ele>
        <time>2019-05-12T13:53:09Z</time>
      </trkpt>
      <trkpt lat="44.99516" lon="2.91124">
        <ele>1050.1</ele>
        <time>2019-05-12T13:53:13Z</time>
      </trkpt>
      <trkpt lat="44.99519" lon="2.91127">
        <ele>1050.1</ele>
        <time>2019-05-12T13:53:16Z</time>
      </trkpt>
      <trkpt lat="44.99522" lon="2.91131">
        <ele>1050.2</ele>
        <time>2019-05-12T13:53:21Z</time>
      </trkpt>
      <trkpt lat="44.99525" lon="2.91134">
        <ele>1050.2</ele>
        <time>2019-05-12T13:53:24Z</time>
      </trkpt>
      <trkpt lat="44.99528" lon="2.91136">
        <ele>1050.3</ele>
        <time>2019-05-12T13:53:27Z</time>
      </trkpt>
      <trkpt lat="44.9953" lon="2.9114">
        <ele>1050.3</ele>
        <time>2019-05-12T13:53:30Z</time>
      </trkpt>
      <trkpt lat="44.99533" lon="2.91143">
        <ele>1050.4</ele>
        <time>2019-05-12T13:53:33Z</time>
      </trkpt>
      <trkpt lat="44.99536" lon="2.91146">
        <ele>1050.4</ele>
        <time>2019-05-12T13:53:36Z</time>
      </trkpt>
      <trkpt lat="44.99538" lon="2.91148">
        <ele>1050.5</ele>
        <time>2019-05-12T13:53:38Z</time>
      </trkpt>
      <trkpt lat="44.9954" lon="2.9115">
        <ele>1050.5</ele>
        <time>2019-05-12T13:53:40Z</time>
      </trkpt>
      <trkpt lat="44.99543" lon="2.91153">
        <ele>1050.5</ele>
        <time>2019-05-12T13:53:43Z</time>
      </trkpt>
      <trkpt lat="44.99544" lon="2.91157">
        <ele>1050.6</ele>
        <time>2019-05-12T13:53:47Z</time>
      </trkpt>
      <trkpt lat="44.99545" lon="2.9116">
        <ele>1050.6</ele>
        <time>2019-05-12T13:53:50Z</time>
      </trkpt>
      <trkpt lat="44.99548" lon="2.91162">
        <ele>1050.7</ele>
        <time>2019-05-12T13:53:52Z</time>
      </trkpt>
      <trkpt lat="44.99551" lon="2.91164">
        <ele>1050.7</ele>
        <time>2019-05-12T13:53:54Z</time>
      </trkpt>
      <trkpt lat="44.99553" lon="2.91166">
        <ele>1050.7</ele>
        <time>2019-05-12T13:53:57Z</time>
      </trkpt>
      <trkpt lat="44.99556" lon="2.9117">
        <ele>1050.8</ele>
        <time>2019-05-12T13:54:00Z</time>
      </trkpt>
      <trkpt lat="44.99559" lon="2.91172">
        <ele>1050.8</ele>
        <time>2019-05-12T13:54:04Z</time>
      </trkpt>
      <trkpt lat="44.99563" lon="2.91173">
        <ele>1050.8</ele>
        <time>2019-05-12T13:54:07Z</time>
      </trkpt>
      <trkpt lat="44.99565" lon="2.91174">
        <ele>1050.9</ele>
        <time>2019-05-12T13:54:09Z</time>
      </trkpt>
      <trkpt lat="44.99569" lon="2.91176">
        <ele>1050.9</ele>
        <time>2019-05-12T13:54:12Z</time>
      </trkpt>
      <trkpt lat="44.9957" lon="2.9118">
        <ele>1050.9</ele>
        <time>2019-05-12T13:54:17Z</time>
      </trkpt>
      <trkpt lat="44.99573" lon="2.91182">
        <ele>1050.9</ele>
        <time>2019-05-12T13:54:21Z</time>
      </trkpt>
      <trkpt lat="44.99579" lon="2.91184">
        <ele>1050.8</ele>
        <time>2019-05-12T13:54:24Z</time>
      </trkpt>
      <trkpt lat="44.99582" lon="2.91184">
        <ele>1050.8</ele>
        <time>2019-05-12T13:54:26Z</time>
      </trkpt>
      <trkpt lat="44.99584" lon="2.91188">
        <ele>1050.8</ele>
        <time>2019-05-12T13:54:32Z</time>
      </trkpt>
      <trkpt lat="44.99586" lon="2.91192">
        <ele>1050.8</ele>
        <time>2019-05-12T13:54:37Z</time>
      </trkpt>
      <trkpt lat="44.99589" lon="2.91194">
        <ele>1050.9</ele>
        <time>2019-05-12T13:54:40Z</time>
      </trkpt>
      <trkpt lat="44.99591" lon="2.91197">
        <ele>1050.9</ele>
        <time>2019-05-12T13:54:43Z</time>
      </trkpt>
      <trkpt lat="44.99594" lon="2.91198">
        <ele>1050.9</ele>
        <time>2019-05-12T13:54:46Z</time>
      </trkpt>
      <trkpt lat="44.99597" lon="2.91201">
        <ele>1051</ele>
        <time>2019-05-12T13:54:49Z</time>
      </trkpt>
      <trkpt lat="44.99599" lon="2.91204">
        <ele>1051</ele>
        <time>2019-05-12T13:54:54Z</time>
      </trkpt>
      <trkpt lat="44.99602" lon="2.91205">
        <ele>1051.1</ele>
        <time>2019-05-12T13:54:58Z</time>
      </trkpt>
      <trkpt lat="44.99605" lon="2.91204">
        <ele>1051.2</ele>
        <time>2019-05-12T13:55:03Z</time>
      </trkpt>
      <trkpt lat="44.99608" lon="2.91205">
        <ele>1051.2</ele>
        <time>2019-05-12T13:55:09Z</time>
      </trkpt>
      <trkpt lat="44.99611" lon="2.91206">
        <ele>1051.3</ele>
        <time>2019-05-12T13:55:13Z</time>
      </trkpt>
      <trkpt lat="44.99614" lon="2.91207">
        <ele>1051.4</ele>
        <time>2019-05-12T13:55:15Z</time>
      </trkpt>
      <trkpt lat="44.99617" lon="2.91208">
        <ele>1051.5</ele>
        <time>2019-05-12T13:55:17Z</time>
      </trkpt>
      <trkpt lat="44.99621" lon="2.91208">
        <ele>1051.6</ele>
        <time>2019-05-12T13:55:19Z</time>
      </trkpt>
      <trkpt lat="44.99624" lon="2.91208">
        <ele>1051.6</ele>
        <time>2019-05-12T13:55:21Z</time>
      </trkpt>
      <trkpt lat="44.99627" lon="2.91209">
        <ele>1051.7</ele>
        <time>2019-05-12T13:55:23Z</time>
      </trkpt>
      <trkpt lat="44.9963" lon="2.91208">
        <ele>1051.8</ele>
        <time>2019-05-12T13:55:26Z</time>
      </trkpt>
      <trkpt lat="44.99633" lon="2.91209">
        <ele>1051.8</ele>
        <time>2019-05-12T13:55:29Z</time>
      </trkpt>
      <trkpt lat="44.99636" lon="2.91208">
        <ele>1051.9</ele>
        <time>2019-05-12T13:55:31Z</time>
      </trkpt>
      <trkpt lat="44.9964" lon="2.91209">
        <ele>1051.9</ele>
        <time>2019-05-12T13:55:34Z</time>
      </trkpt>
      <trkpt lat="44.99643" lon="2.91211">
        <ele>1052</ele>
        <time>2019-05-12T13:55:37Z</time>
      </trkpt>
      <trkpt lat="44.99646" lon="2.91213">
        <ele>1052</ele>
        <time>2019-05-12T13:55:40Z</time>
      </trkpt>
      <trkpt lat="44.9965" lon="2.91214">
        <ele>1052</ele>
        <time>2019-05-12T13:55:43Z</time>
      </trkpt>
      <trkpt lat="44.99653" lon="2.91212">
        <ele>1052.1</ele>
        <time>2019-05-12T13:55:45Z</time>
      </trkpt>
      <trkpt lat="44.99657" lon="2.91214">
        <ele>1052.1</ele>
        <time>2019-05-12T13:55:53Z</time>
      </trkpt>
      <trkpt lat="44.99658" lon="2.91218">
        <ele>1052.1</ele>
        <time>2019-05-12T13:55:57Z</time>
      </trkpt>
      <trkpt lat="44.99661" lon="2.91221">
        <ele>1052.1</ele>
        <time>2019-05-12T13:56:00Z</time>
      </trkpt>
      <trkpt lat="44.99665" lon="2.91221">
        <ele>1052.1</ele>
        <time>2019-05-12T13:56:02Z</time>
      </trkpt>
      <trkpt lat="44.99669" lon="2.91222">
        <ele>1052.1</ele>
        <time>2019-05-12T13:56:04Z</time>
      </trkpt>
      <trkpt lat="44.99672" lon="2.91222">
        <ele>1052.2</ele>
        <time>2019-05-12T13:56:08Z</time>
      </trkpt>
      <trkpt lat="44.99675" lon="2.91222">
        <ele>1052.2</ele>
        <time>2019-05-12T13:56:12Z</time>
      </trkpt>
      <trkpt lat="44.99679" lon="2.91222">
        <ele>1052.2</ele>
        <time>2019-05-12T13:56:15Z</time>
      </trkpt>
      <trkpt lat="44.99682" lon="2.91221">
        <ele>1052.2</ele>
        <time>2019-05-12T13:56:17Z</time>
      </trkpt>
      <trkpt lat="44.99686" lon="2.91221">
        <ele>1052.3</ele>
        <time>2019-05-12T13:56:20Z</time>
      </trkpt>
      <trkpt lat="44.99689" lon="2.9122">
        <ele>1052.3</ele>
        <time>2019-05-12T13:56:23Z</time>
      </trkpt>
      <trkpt lat="44.99692" lon="2.9122">
        <ele>1052.4</ele>
        <time>2019-05-12T13:56:26Z</time>
      </trkpt>
      <trkpt lat="44.99696" lon="2.9122">
        <ele>1052.5</ele>
        <time>2019-05-12T13:56:29Z</time>
      </trkpt>
      <trkpt lat="44.99699" lon="2.91219">
        <ele>1053</ele>
        <time>2019-05-12T13:56:32Z</time>
      </trkpt>
      <trkpt lat="44.99702" lon="2.91217">
        <ele>1053.1</ele>
        <time>2019-05-12T13:56:36Z</time>
      </trkpt>
      <trkpt lat="44.99705" lon="2.91214">
        <ele>1053.2</ele>
        <time>2019-05-12T13:56:39Z</time>
      </trkpt>
      <trkpt lat="44.99706" lon="2.91211">
        <ele>1053.3</ele>
        <time>2019-05-12T13:56:42Z</time>
      </trkpt>
      <trkpt lat="44.99709" lon="2.91207">
        <ele>1053.4</ele>
        <time>2019-05-12T13:56:46Z</time>
      </trkpt>
      <trkpt lat="44.9971" lon="2.91203">
        <ele>1053.4</ele>
        <time>2019-05-12T13:56:50Z</time>
      </trkpt>
      <trkpt lat="44.99712" lon="2.912">
        <ele>1053.6</ele>
        <time>2019-05-12T13:56:54Z</time>
      </trkpt>
      <trkpt lat="44.99712" lon="2.91196">
        <ele>1053.7</ele>
        <time>2019-05-12T13:56:57Z</time>
      </trkpt>
      <trkpt lat="44.99712" lon="2.91191">
        <ele>1053.9</ele>
        <time>2019-05-12T13:57:00Z</time>
      </trkpt>
      <trkpt lat="44.99711" lon="2.91187">
        <ele>1054</ele>
        <time>2019-05-12T13:57:07Z</time>
      </trkpt>
      <trkpt lat="44.99713" lon="2.91183">
        <ele>1054.2</ele>
        <time>2019-05-12T13:57:13Z</time>
      </trkpt>
      <trkpt lat="44.99714" lon="2.91179">
        <ele>1054.4</ele>
        <time>2019-05-12T13:57:17Z</time>
      </trkpt>
      <trkpt lat="44.99714" lon="2.91174">
        <ele>1054.6</ele>
        <time>2019-05-12T13:57:21Z</time>
      </trkpt>
      <trkpt lat="44.99714" lon="2.9117">
        <ele>1054.8</ele>
        <time>2019-05-12T13:57:29Z</time>
      </trkpt>
      <trkpt lat="44.99716" lon="2.91167">
        <ele>1055</ele>
        <time>2019-05-12T13:57:33Z</time>
      </trkpt>
      <trkpt lat="44.99719" lon="2.91165">
        <ele>1055</ele>
        <time>2019-05-12T13:57:36Z</time>
      </trkpt>
      <trkpt lat="44.99721" lon="2.91162">
        <ele>1055</ele>
        <time>2019-05-12T13:57:38Z</time>
      </trkpt>
      <trkpt lat="44.99722" lon="2.91158">
        <ele>1055.1</ele>
        <time>2019-05-12T13:57:41Z</time>
      </trkpt>
      <trkpt lat="44.99723" lon="2.91153">
        <ele>1055.1</ele>
        <time>2019-05-12T13:57:43Z</time>
      </trkpt>
      <trkpt lat="44.99724" lon="2.9115">
        <ele>1055.1</ele>
        <time>2019-05-12T13:57:45Z</time>
      </trkpt>
      <trkpt lat="44.99725" lon="2.91145">
        <ele>1055.1</ele>
        <time>2019-05-12T13:57:48Z</time>
      </trkpt>
      <trkpt lat="44.99726" lon="2.91141">
        <ele>1055.1</ele>
        <time>2019-05-12T13:57:51Z</time>
      </trkpt>
      <trkpt lat="44.99727" lon="2.91137">
        <ele>1055.2</ele>
        <time>2019-05-12T13:57:53Z</time>
      </trkpt>
      <trkpt lat="44.99728" lon="2.91133">
        <ele>1055.3</ele>
        <time>2019-05-12T13:57:55Z</time>
      </trkpt>
      <trkpt lat="44.99729" lon="2.91128">
        <ele>1055.6</ele>
        <time>2019-05-12T13:57:58Z</time>
      </trkpt>
      <trkpt lat="44.99729" lon="2.91124">
        <ele>1055.8</ele>
        <time>2019-05-12T13:58:00Z</time>
      </trkpt>
      <trkpt lat="44.99729" lon="2.9112">
        <ele>1056.1</ele>
        <time>2019-05-12T13:58:03Z</time>
      </trkpt>
      <trkpt lat="44.99731" lon="2.91115">
        <ele>1056.4</ele>
        <time>2019-05-12T13:58:06Z</time>
      </trkpt>
      <trkpt lat="44.99733" lon="2.91112">
        <ele>1056.6</ele>
        <time>2019-05-12T13:58:10Z</time>
      </trkpt>
      <trkpt lat="44.99733" lon="2.91107">
        <ele>1056.8</ele>
        <time>2019-05-12T13:58:13Z</time>
      </trkpt>
      <trkpt lat="44.99733" lon="2.91102">
        <ele>1057</ele>
        <time>2019-05-12T13:58:18Z</time>
      </trkpt>
      <trkpt lat="44.99733" lon="2.91098">
        <ele>1057.1</ele>
        <time>2019-05-12T13:58:21Z</time>
      </trkpt>
      <trkpt lat="44.99733" lon="2.91093">
        <ele>1057.2</ele>
        <time>2019-05-12T13:58:24Z</time>
      </trkpt>
      <trkpt lat="44.99734" lon="2.91089">
        <ele>1057.3</ele>
        <time>2019-05-12T13:58:26Z</time>
      </trkpt>
      <trkpt lat="44.99735" lon="2.91086">
        <ele>1057.5</ele>
        <time>2019-05-12T13:58:28Z</time>
      </trkpt>
      <trkpt lat="44.99737" lon="2.91082">
        <ele>1057.5</ele>
        <time>2019-05-12T13:58:30Z</time>
      </trkpt>
      <trkpt lat="44.99738" lon="2.91076">
        <ele>1057.5</ele>
        <time>2019-05-12T13:58:33Z</time>
      </trkpt>
      <trkpt lat="44.99739" lon="2.91073">
        <ele>1057.5</ele>
        <time>2019-05-12T13:58:35Z</time>
      </trkpt>
      <trkpt lat="44.9974" lon="2.91069">
        <ele>1057.6</ele>
        <time>2019-05-12T13:58:38Z</time>
      </trkpt>
      <trkpt lat="44.99742" lon="2.91065">
        <ele>1057.7</ele>
        <time>2019-05-12T13:58:41Z</time>
      </trkpt>
      <trkpt lat="44.99742" lon="2.91061">
        <ele>1057.8</ele>
        <time>2019-05-12T13:58:44Z</time>
      </trkpt>
      <trkpt lat="44.99742" lon="2.91056">
        <ele>1057.9</ele>
        <time>2019-05-12T13:58:47Z</time>
      </trkpt>
      <trkpt lat="44.99742" lon="2.91051">
        <ele>1058</ele>
        <time>2019-05-12T13:58:50Z</time>
      </trkpt>
      <trkpt lat="44.99742" lon="2.91047">
        <ele>1058</ele>
        <time>2019-05-12T13:58:52Z</time>
      </trkpt>
      <trkpt lat="44.99743" lon="2.91043">
        <ele>1058.1</ele>
        <time>2019-05-12T13:58:56Z</time>
      </trkpt>
      <trkpt lat="44.99744" lon="2.91039">
        <ele>1058.1</ele>
        <time>2019-05-12T13:58:59Z</time>
      </trkpt>
      <trkpt lat="44.99745" lon="2.91033">
        <ele>1058.2</ele>
        <time>2019-05-12T13:59:03Z</time>
      </trkpt>
      <trkpt lat="44.99746" lon="2.91029">
        <ele>1058.3</ele>
        <time>2019-05-12T13:59:05Z</time>
      </trkpt>
      <trkpt lat="44.99747" lon="2.91025">
        <ele>1058.5</ele>
        <time>2019-05-12T13:59:08Z</time>
      </trkpt>
      <trkpt lat="44.99748" lon="2.9102">
        <ele>1058.7</ele>
        <time>2019-05-12T13:59:11Z</time>
      </trkpt>
      <trkpt lat="44.99748" lon="2.91015">
        <ele>1058.9</ele>
        <time>2019-05-12T13:59:14Z</time>
      </trkpt>
      <trkpt lat="44.99749" lon="2.91011">
        <ele>1059.1</ele>
        <time>2019-05-12T13:59:17Z</time>
      </trkpt>
      <trkpt lat="44.9975" lon="2.91008">
        <ele>1059.1</ele>
        <time>2019-05-12T13:59:19Z</time>
      </trkpt>
      <trkpt lat="44.99751" lon="2.91002">
        <ele>1059.1</ele>
        <time>2019-05-12T13:59:22Z</time>
      </trkpt>
      <trkpt lat="44.99752" lon="2.90999">
        <ele>1059.1</ele>
        <time>2019-05-12T13:59:24Z</time>
      </trkpt>
      <trkpt lat="44.99753" lon="2.90994">
        <ele>1059.1</ele>
        <time>2019-05-12T13:59:27Z</time>
      </trkpt>
      <trkpt lat="44.99754" lon="2.90989">
        <ele>1059.2</ele>
        <time>2019-05-12T13:59:31Z</time>
      </trkpt>
      <trkpt lat="44.99755" lon="2.90984">
        <ele>1059.2</ele>
        <time>2019-05-12T13:59:34Z</time>
      </trkpt>
      <trkpt lat="44.99755" lon="2.9098">
        <ele>1059.2</ele>
        <time>2019-05-12T13:59:37Z</time>
      </trkpt>
      <trkpt lat="44.99757" lon="2.90976">
        <ele>1059.2</ele>
        <time>2019-05-12T13:59:42Z</time>
      </trkpt>
      <trkpt lat="44.99758" lon="2.90972">
        <ele>1059.2</ele>
        <time>2019-05-12T13:59:45Z</time>
      </trkpt>
      <trkpt lat="44.9976" lon="2.90966">
        <ele>1059.2</ele>
        <time>2019-05-12T13:59:48Z</time>
      </trkpt>
      <trkpt lat="44.99761" lon="2.90962">
        <ele>1059.2</ele>
        <time>2019-05-12T13:59:50Z</time>
      </trkpt>
      <trkpt lat="44.99762" lon="2.90957">
        <ele>1059.2</ele>
        <time>2019-05-12T13:59:52Z</time>
      </trkpt>
      <trkpt lat="44.99763" lon="2.90952">
        <ele>1059.2</ele>
        <time>2019-05-12T13:59:55Z</time>
      </trkpt>
      <trkpt lat="44.99763" lon="2.90947">
        <ele>1059.2</ele>
        <time>2019-05-12T13:59:57Z</time>
      </trkpt>
      <trkpt lat="44.99763" lon="2.90943">
        <ele>1059.2</ele>
        <time>2019-05-12T13:59:59Z</time>
      </trkpt>
      <trkpt lat="44.99764" lon="2.90939">
        <ele>1059.2</ele>
        <time>2019-05-12T14:00:02Z</time>
      </trkpt>
      <trkpt lat="44.99766" lon="2.90934">
        <ele>1059.2</ele>
        <time>2019-05-12T14:00:05Z</time>
      </trkpt>
      <trkpt lat="44.99766" lon="2.90929">
        <ele>1059.2</ele>
        <time>2019-05-12T14:00:09Z</time>
      </trkpt>
      <trkpt lat="44.99766" lon="2.90925">
        <ele>1059.2</ele>
        <time>2019-05-12T14:00:12Z</time>
      </trkpt>
      <trkpt lat="44.99766" lon="2.90921">
        <ele>1059.2</ele>
        <time>2019-05-12T14:00:16Z</time>
      </trkpt>
      <trkpt lat="44.99766" lon="2.90917">
        <ele>1059.2</ele>
        <time>2019-05-12T14:00:19Z</time>
      </trkpt>
      <trkpt lat="44.99767" lon="2.90912">
        <ele>1059.2</ele>
        <time>2019-05-12T14:00:22Z</time>
      </trkpt>
      <trkpt lat="44.99768" lon="2.90906">
        <ele>1059.2</ele>
        <time>2019-05-12T14:00:25Z</time>
      </trkpt>
      <trkpt lat="44.99769" lon="2.90902">
        <ele>1059.2</ele>
        <time>2019-05-12T14:00:28Z</time>
      </trkpt>
      <trkpt lat="44.99771" lon="2.90898">
        <ele>1059.3</ele>
        <time>2019-05-12T14:00:35Z</time>
      </trkpt>
      <trkpt lat="44.99768" lon="2.90898">
        <ele>1059.4</ele>
        <time>2019-05-12T14:01:00Z</time>
      </trkpt>
      <trkpt lat="44.99769" lon="2.90895">
        <ele>1059.5</ele>
        <time>2019-05-12T14:01:34Z</time>
      </trkpt>
      <trkpt lat="44.99771" lon="2.90891">
        <ele>1059.6</ele>
        <time>2019-05-12T14:01:37Z</time>
      </trkpt>
      <trkpt lat="44.99772" lon="2.90887">
        <ele>1059.8</ele>
        <time>2019-05-12T14:01:40Z</time>
      </trkpt>
      <trkpt lat="44.99773" lon="2.90882">
        <ele>1060</ele>
        <time>2019-05-12T14:01:43Z</time>
      </trkpt>
      <trkpt lat="44.99773" lon="2.90878">
        <ele>1060.1</ele>
        <time>2019-05-12T14:01:46Z</time>
      </trkpt>
      <trkpt lat="44.99774" lon="2.90874">
        <ele>1060.3</ele>
        <time>2019-05-12T14:01:49Z</time>
      </trkpt>
      <trkpt lat="44.99775" lon="2.90869">
        <ele>1060.6</ele>
        <time>2019-05-12T14:01:52Z</time>
      </trkpt>
      <trkpt lat="44.99776" lon="2.90864">
        <ele>1060.9</ele>
        <time>2019-05-12T14:01:54Z</time>
      </trkpt>
      <trkpt lat="44.99777" lon="2.90859">
        <ele>1061.2</ele>
        <time>2019-05-12T14:01:57Z</time>
      </trkpt>
      <trkpt lat="44.99778" lon="2.90856">
        <ele>1061.5</ele>
        <time>2019-05-12T14:02:01Z</time>
      </trkpt>
      <trkpt lat="44.99779" lon="2.90852">
        <ele>1061.9</ele>
        <time>2019-05-12T14:02:04Z</time>
      </trkpt>
      <trkpt lat="44.9978" lon="2.90848">
        <ele>1062.4</ele>
        <time>2019-05-12T14:02:06Z</time>
      </trkpt>
      <trkpt lat="44.99781" lon="2.90844">
        <ele>1062.9</ele>
        <time>2019-05-12T14:02:09Z</time>
      </trkpt>
      <trkpt lat="44.99782" lon="2.9084">
        <ele>1063.2</ele>
        <time>2019-05-12T14:02:12Z</time>
      </trkpt>
      <trkpt lat="44.99784" lon="2.90836">
        <ele>1063.4</ele>
        <time>2019-05-12T14:02:15Z</time>
      </trkpt>
      <trkpt lat="44.99785" lon="2.90832">
        <ele>1063.7</ele>
        <time>2019-05-12T14:02:18Z</time>
      </trkpt>
      <trkpt lat="44.99788" lon="2.90829">
        <ele>1063.9</ele>
        <time>2019-05-12T14:02:22Z</time>
      </trkpt>
      <trkpt lat="44.9979" lon="2.90826">
        <ele>1064</ele>
        <time>2019-05-12T14:02:25Z</time>
      </trkpt>
      <trkpt lat="44.99791" lon="2.90823">
        <ele>1064.2</ele>
        <time>2019-05-12T14:02:27Z</time>
      </trkpt>
      <trkpt lat="44.99794" lon="2.90818">
        <ele>1064.7</ele>
        <time>2019-05-12T14:02:30Z</time>
      </trkpt>
      <trkpt lat="44.99796" lon="2.90813">
        <ele>1065.3</ele>
        <time>2019-05-12T14:02:33Z</time>
      </trkpt>
      <trkpt lat="44.99799" lon="2.9081">
        <ele>1065.8</ele>
        <time>2019-05-12T14:02:36Z</time>
      </trkpt>
      <trkpt lat="44.998" lon="2.90805">
        <ele>1066.4</ele>
        <time>2019-05-12T14:02:39Z</time>
      </trkpt>
      <trkpt lat="44.99801" lon="2.90801">
        <ele>1066.8</ele>
        <time>2019-05-12T14:02:41Z</time>
      </trkpt>
      <trkpt lat="44.99803" lon="2.90796">
        <ele>1067.1</ele>
        <time>2019-05-12T14:02:43Z</time>
      </trkpt>
      <trkpt lat="44.99804" lon="2.90793">
        <ele>1067.4</ele>
        <time>2019-05-12T14:02:45Z</time>
      </trkpt>
      <trkpt lat="44.99807" lon="2.9079">
        <ele>1067.8</ele>
        <time>2019-05-12T14:02:48Z</time>
      </trkpt>
      <trkpt lat="44.9981" lon="2.90786">
        <ele>1068.3</ele>
        <time>2019-05-12T14:02:51Z</time>
      </trkpt>
      <trkpt lat="44.99811" lon="2.90783">
        <ele>1068.6</ele>
        <time>2019-05-12T14:02:53Z</time>
      </trkpt>
      <trkpt lat="44.99813" lon="2.90778">
        <ele>1068.9</ele>
        <time>2019-05-12T14:02:56Z</time>
      </trkpt>
      <trkpt lat="44.99815" lon="2.90774">
        <ele>1069.3</ele>
        <time>2019-05-12T14:02:58Z</time>
      </trkpt>
      <trkpt lat="44.99818" lon="2.90771">
        <ele>1069.5</ele>
        <time>2019-05-12T14:03:01Z</time>
      </trkpt>
      <trkpt lat="44.99821" lon="2.90769">
        <ele>1069.6</ele>
        <time>2019-05-12T14:03:05Z</time>
      </trkpt>
      <trkpt lat="44.99824" lon="2.90766">
        <ele>1069.8</ele>
        <time>2019-05-12T14:03:08Z</time>
      </trkpt>
      <trkpt lat="44.99826" lon="2.90764">
        <ele>1069.8</ele>
        <time>2019-05-12T14:03:10Z</time>
      </trkpt>
      <trkpt lat="44.99829" lon="2.9076">
        <ele>1069.8</ele>
        <time>2019-05-12T14:03:13Z</time>
      </trkpt>
      <trkpt lat="44.9983" lon="2.90757">
        <ele>1069.8</ele>
        <time>2019-05-12T14:03:15Z</time>
      </trkpt>
      <trkpt lat="44.99832" lon="2.90753">
        <ele>1069.8</ele>
        <time>2019-05-12T14:03:18Z</time>
      </trkpt>
      <trkpt lat="44.99835" lon="2.9075">
        <ele>1069.9</ele>
        <time>2019-05-12T14:03:21Z</time>
      </trkpt>
      <trkpt lat="44.99837" lon="2.90747">
        <ele>1070</ele>
        <time>2019-05-12T14:03:24Z</time>
      </trkpt>
      <trkpt lat="44.9984" lon="2.90743">
        <ele>1070.2</ele>
        <time>2019-05-12T14:03:27Z</time>
      </trkpt>
      <trkpt lat="44.99841" lon="2.90738">
        <ele>1070.4</ele>
        <time>2019-05-12T14:03:30Z</time>
      </trkpt>
      <trkpt lat="44.99843" lon="2.90734">
        <ele>1070.5</ele>
        <time>2019-05-12T14:03:33Z</time>
      </trkpt>
      <trkpt lat="44.99844" lon="2.9073">
        <ele>1070.6</ele>
        <time>2019-05-12T14:03:35Z</time>
      </trkpt>
      <trkpt lat="44.99846" lon="2.90726">
        <ele>1070.7</ele>
        <time>2019-05-12T14:03:37Z</time>
      </trkpt>
      <trkpt lat="44.99847" lon="2.90723">
        <ele>1070.7</ele>
        <time>2019-05-12T14:03:39Z</time>
      </trkpt>
      <trkpt lat="44.99849" lon="2.90718">
        <ele>1070.6</ele>
        <time>2019-05-12T14:03:42Z</time>
      </trkpt>
      <trkpt lat="44.99851" lon="2.90714">
        <ele>1070.6</ele>
        <time>2019-05-12T14:03:45Z</time>
      </trkpt>
      <trkpt lat="44.99853" lon="2.90711">
        <ele>1070.8</ele>
        <time>2019-05-12T14:03:48Z</time>
      </trkpt>
      <trkpt lat="44.99856" lon="2.90708">
        <ele>1071</ele>
        <time>2019-05-12T14:03:51Z</time>
      </trkpt>
      <trkpt lat="44.99858" lon="2.90703">
        <ele>1071.3</ele>
        <time>2019-05-12T14:03:54Z</time>
      </trkpt>
      <trkpt lat="44.99861" lon="2.907">
        <ele>1071.7</ele>
        <time>2019-05-12T14:03:57Z</time>
      </trkpt>
      <trkpt lat="44.99864" lon="2.90696">
        <ele>1072.1</ele>
        <time>2019-05-12T14:04:00Z</time>
      </trkpt>
      <trkpt lat="44.99866" lon="2.90693">
        <ele>1072.5</ele>
        <time>2019-05-12T14:04:03Z</time>
      </trkpt>
      <trkpt lat="44.99869" lon="2.9069">
        <ele>1072.7</ele>
        <time>2019-05-12T14:04:06Z</time>
      </trkpt>
      <trkpt lat="44.99871" lon="2.90687">
        <ele>1073</ele>
        <time>2019-05-12T14:04:09Z</time>
      </trkpt>
      <trkpt lat="44.99873" lon="2.90684">
        <ele>1073.1</ele>
        <time>2019-05-12T14:04:12Z</time>
      </trkpt>
      <trkpt lat="44.99875" lon="2.9068">
        <ele>1073.3</ele>
        <time>2019-05-12T14:04:15Z</time>
      </trkpt>
      <trkpt lat="44.99877" lon="2.90676">
        <ele>1073.5</ele>
        <time>2019-05-12T14:04:18Z</time>
      </trkpt>
      <trkpt lat="44.99878" lon="2.90673">
        <ele>1073.8</ele>
        <time>2019-05-12T14:04:21Z</time>
      </trkpt>
      <trkpt lat="44.99881" lon="2.9067">
        <ele>1074.2</ele>
        <time>2019-05-12T14:04:24Z</time>
      </trkpt>
      <trkpt lat="44.99882" lon="2.90666">
        <ele>1074.5</ele>
        <time>2019-05-12T14:04:27Z</time>
      </trkpt>
      <trkpt lat="44.99884" lon="2.90662">
        <ele>1075</ele>
        <time>2019-05-12T14:04:30Z</time>
      </trkpt>
      <trkpt lat="44.99886" lon="2.90657">
        <ele>1075.4</ele>
        <time>2019-05-12T14:04:33Z</time>
      </trkpt>
      <trkpt lat="44.99887" lon="2.90654">
        <ele>1075.8</ele>
        <time>2019-05-12T14:04:35Z</time>
      </trkpt>
      <trkpt lat="44.99889" lon="2.90648">
        <ele>1076.4</ele>
        <time>2019-05-12T14:04:38Z</time>
      </trkpt>
      <trkpt lat="44.9989" lon="2.90644">
        <ele>1077</ele>
        <time>2019-05-12T14:04:41Z</time>
      </trkpt>
      <trkpt lat="44.99892" lon="2.90641">
        <ele>1077.5</ele>
        <time>2019-05-12T14:04:44Z</time>
      </trkpt>
      <trkpt lat="44.99894" lon="2.90636">
        <ele>1078.2</ele>
        <time>2019-05-12T14:04:47Z</time>
      </trkpt>
      <trkpt lat="44.99897" lon="2.90632">
        <ele>1078.8</ele>
        <time>2019-05-12T14:04:50Z</time>
      </trkpt>
      <trkpt lat="44.99899" lon="2.90629">
        <ele>1079.3</ele>
        <time>2019-05-12T14:04:53Z</time>
      </trkpt>
      <trkpt lat="44.99901" lon="2.90624">
        <ele>1080</ele>
        <time>2019-05-12T14:04:56Z</time>
      </trkpt>
      <trkpt lat="44.99904" lon="2.90621">
        <ele>1080.7</ele>
        <time>2019-05-12T14:05:02Z</time>
      </trkpt>
      <trkpt lat="44.99907" lon="2.90621">
        <ele>1081.4</ele>
        <time>2019-05-12T14:05:05Z</time>
      </trkpt>
      <trkpt lat="44.9991" lon="2.90621">
        <ele>1082.1</ele>
        <time>2019-05-12T14:05:07Z</time>
      </trkpt>
      <trkpt lat="44.99913" lon="2.9062">
        <ele>1082.9</ele>
        <time>2019-05-12T14:05:12Z</time>
      </trkpt>
      <trkpt lat="44.99916" lon="2.90618">
        <ele>1083.5</ele>
        <time>2019-05-12T14:05:33Z</time>
      </trkpt>
      <trkpt lat="44.99918" lon="2.90615">
        <ele>1083.9</ele>
        <time>2019-05-12T14:05:36Z</time>
      </trkpt>
      <trkpt lat="44.99922" lon="2.90614">
        <ele>1084.4</ele>
        <time>2019-05-12T14:05:40Z</time>
      </trkpt>
      <trkpt lat="44.99925" lon="2.90612">
        <ele>1084.9</ele>
        <time>2019-05-12T14:06:03Z</time>
      </trkpt>
      <trkpt lat="44.99925" lon="2.90608">
        <ele>1085.5</ele>
        <time>2019-05-12T14:06:19Z</time>
      </trkpt>
      <trkpt lat="44.99927" lon="2.9061">
        <ele>1086</ele>
        <time>2019-05-12T14:06:34Z</time>
      </trkpt>
      <trkpt lat="44.9993" lon="2.9061">
        <ele>1086.2</ele>
        <time>2019-05-12T14:08:06Z</time>
      </trkpt>
      <trkpt lat="44.99932" lon="2.90607">
        <ele>1086.4</ele>
        <time>2019-05-12T14:08:12Z</time>
      </trkpt>
      <trkpt lat="44.99932" lon="2.90603">
        <ele>1086.5</ele>
        <time>2019-05-12T14:08:18Z</time>
      </trkpt>
      <trkpt lat="44.99934" lon="2.906">
        <ele>1086.6</ele>
        <time>2019-05-12T14:08:22Z</time>
      </trkpt>
      <trkpt lat="44.99934" lon="2.90596">
        <ele>1086.8</ele>
        <time>2019-05-12T14:08:26Z</time>
      </trkpt>
      <trkpt lat="44.99936" lon="2.90593">
        <ele>1087</ele>
        <time>2019-05-12T14:08:33Z</time>
      </trkpt>
      <trkpt lat="44.99937" lon="2.90589">
        <ele>1087.1</ele>
        <time>2019-05-12T14:08:39Z</time>
      </trkpt>
      <trkpt lat="44.99938" lon="2.90584">
        <ele>1087.3</ele>
        <time>2019-05-12T14:08:43Z</time>
      </trkpt>
      <trkpt lat="44.9994" lon="2.9058">
        <ele>1087.5</ele>
        <time>2019-05-12T14:08:47Z</time>
      </trkpt>
      <trkpt lat="44.99941" lon="2.90575">
        <ele>1087.8</ele>
        <time>2019-05-12T14:08:50Z</time>
      </trkpt>
      <trkpt lat="44.99941" lon="2.90571">
        <ele>1088.1</ele>
        <time>2019-05-12T14:08:52Z</time>
      </trkpt>
      <trkpt lat="44.99942" lon="2.90566">
        <ele>1088.4</ele>
        <time>2019-05-12T14:08:54Z</time>
      </trkpt>
      <trkpt lat="44.99941" lon="2.90562">
        <ele>1088.4</ele>
        <time>2019-05-12T14:08:57Z</time>
      </trkpt>
      <trkpt lat="44.9994" lon="2.90557">
        <ele>1088.5</ele>
        <time>2019-05-12T14:09:00Z</time>
      </trkpt>
      <trkpt lat="44.99943" lon="2.90554">
        <ele>1088.5</ele>
        <time>2019-05-12T14:09:04Z</time>
      </trkpt>
      <trkpt lat="44.99942" lon="2.9055">
        <ele>1088.5</ele>
        <time>2019-05-12T14:09:09Z</time>
      </trkpt>
      <trkpt lat="44.99942" lon="2.90546">
        <ele>1088.5</ele>
        <time>2019-05-12T14:09:11Z</time>
      </trkpt>
      <trkpt lat="44.99942" lon="2.90542">
        <ele>1088.5</ele>
        <time>2019-05-12T14:09:13Z</time>
      </trkpt>
      <trkpt lat="44.99943" lon="2.90538">
        <ele>1088.5</ele>
        <time>2019-05-12T14:09:20Z</time>
      </trkpt>
      <trkpt lat="44.99944" lon="2.90535">
        <ele>1088.5</ele>
        <time>2019-05-12T14:09:44Z</time>
      </trkpt>
      <trkpt lat="44.99944" lon="2.90529">
        <ele>1088.7</ele>
        <time>2019-05-12T14:09:50Z</time>
      </trkpt>
      <trkpt lat="44.99944" lon="2.90525">
        <ele>1088.9</ele>
        <time>2019-05-12T14:09:53Z</time>
      </trkpt>
      <trkpt lat="44.99943" lon="2.9052">
        <ele>1089.2</ele>
        <time>2019-05-12T14:09:56Z</time>
      </trkpt>
      <trkpt lat="44.9994" lon="2.90517">
        <ele>1089.3</ele>
        <time>2019-05-12T14:09:59Z</time>
      </trkpt>
      <trkpt lat="44.99937" lon="2.90515">
        <ele>1089.5</ele>
        <time>2019-05-12T14:10:02Z</time>
      </trkpt>
      <trkpt lat="44.99935" lon="2.90511">
        <ele>1089.7</ele>
        <time>2019-05-12T14:10:05Z</time>
      </trkpt>
      <trkpt lat="44.99933" lon="2.90509">
        <ele>1089.8</ele>
        <time>2019-05-12T14:10:08Z</time>
      </trkpt>
      <trkpt lat="44.99931" lon="2.90506">
        <ele>1090</ele>
        <time>2019-05-12T14:10:11Z</time>
      </trkpt>
      <trkpt lat="44.9993" lon="2.90502">
        <ele>1090.1</ele>
        <time>2019-05-12T14:10:15Z</time>
      </trkpt>
      <trkpt lat="44.99927" lon="2.90499">
        <ele>1090.2</ele>
        <time>2019-05-12T14:10:20Z</time>
      </trkpt>
      <trkpt lat="44.99925" lon="2.90497">
        <ele>1090.4</ele>
        <time>2019-05-12T14:10:22Z</time>
      </trkpt>
      <trkpt lat="44.99922" lon="2.90494">
        <ele>1090.5</ele>
        <time>2019-05-12T14:10:24Z</time>
      </trkpt>
      <trkpt lat="44.99921" lon="2.90491">
        <ele>1090.6</ele>
        <time>2019-05-12T14:10:27Z</time>
      </trkpt>
      <trkpt lat="44.9992" lon="2.90486">
        <ele>1090.7</ele>
        <time>2019-05-12T14:10:30Z</time>
      </trkpt>
      <trkpt lat="44.9992" lon="2.90481">
        <ele>1090.9</ele>
        <time>2019-05-12T14:10:35Z</time>
      </trkpt>
      <trkpt lat="44.9992" lon="2.90477">
        <ele>1091</ele>
        <time>2019-05-12T14:10:37Z</time>
      </trkpt>
      <trkpt lat="44.99921" lon="2.90473">
        <ele>1091.2</ele>
        <time>2019-05-12T14:10:39Z</time>
      </trkpt>
      <trkpt lat="44.99923" lon="2.90469">
        <ele>1091.3</ele>
        <time>2019-05-12T14:10:42Z</time>
      </trkpt>
      <trkpt lat="44.99924" lon="2.90464">
        <ele>1091.5</ele>
        <time>2019-05-12T14:10:45Z</time>
      </trkpt>
      <trkpt lat="44.99924" lon="2.90459">
        <ele>1091.6</ele>
        <time>2019-05-12T14:10:48Z</time>
      </trkpt>
      <trkpt lat="44.99925" lon="2.90454">
        <ele>1091.7</ele>
        <time>2019-05-12T14:10:51Z</time>
      </trkpt>
      <trkpt lat="44.99925" lon="2.90449">
        <ele>1091.8</ele>
        <time>2019-05-12T14:10:53Z</time>
      </trkpt>
      <trkpt lat="44.99925" lon="2.90444">
        <ele>1091.9</ele>
        <time>2019-05-12T14:10:55Z</time>
      </trkpt>
      <trkpt lat="44.99924" lon="2.90437">
        <ele>1092.1</ele>
        <time>2019-05-12T14:10:57Z</time>
      </trkpt>
      <trkpt lat="44.99923" lon="2.90431">
        <ele>1092.2</ele>
        <time>2019-05-12T14:10:59Z</time>
      </trkpt>
      <trkpt lat="44.99922" lon="2.90425">
        <ele>1092.3</ele>
        <time>2019-05-12T14:11:01Z</time>
      </trkpt>
      <trkpt lat="44.99921" lon="2.90419">
        <ele>1092.4</ele>
        <time>2019-05-12T14:11:03Z</time>
      </trkpt>
      <trkpt lat="44.9992" lon="2.90415">
        <ele>1092.5</ele>
        <time>2019-05-12T14:11:06Z</time>
      </trkpt>
      <trkpt lat="44.99921" lon="2.90411">
        <ele>1092.6</ele>
        <time>2019-05-12T14:11:08Z</time>
      </trkpt>
      <trkpt lat="44.99923" lon="2.90407">
        <ele>1092.7</ele>
        <time>2019-05-12T14:11:11Z</time>
      </trkpt>
      <trkpt lat="44.99924" lon="2.90402">
        <ele>1092.7</ele>
        <time>2019-05-12T14:11:14Z</time>
      </trkpt>
      <trkpt lat="44.99926" lon="2.90398">
        <ele>1092.8</ele>
        <time>2019-05-12T14:11:18Z</time>
      </trkpt>
      <trkpt lat="44.99927" lon="2.90394">
        <ele>1092.9</ele>
        <time>2019-05-12T14:11:24Z</time>
      </trkpt>
      <trkpt lat="44.9993" lon="2.90395">
        <ele>1092.9</ele>
        <time>2019-05-12T14:11:35Z</time>
      </trkpt>
      <trkpt lat="44.99934" lon="2.90394">
        <ele>1093.5</ele>
        <time>2019-05-12T14:11:39Z</time>
      </trkpt>
      <trkpt lat="44.99937" lon="2.90395">
        <ele>1093.6</ele>
        <time>2019-05-12T14:11:41Z</time>
      </trkpt>
      <trkpt lat="44.99938" lon="2.90399">
        <ele>1093.7</ele>
        <time>2019-05-12T14:11:44Z</time>
      </trkpt>
      <trkpt lat="44.99938" lon="2.90403">
        <ele>1093.8</ele>
        <time>2019-05-12T14:11:49Z</time>
      </trkpt>
      <trkpt lat="44.9994" lon="2.90405">
        <ele>1093.9</ele>
        <time>2019-05-12T14:11:55Z</time>
      </trkpt>
      <trkpt lat="44.99943" lon="2.90403">
        <ele>1094</ele>
        <time>2019-05-12T14:11:58Z</time>
      </trkpt>
      <trkpt lat="44.99947" lon="2.90402">
        <ele>1094.1</ele>
        <time>2019-05-12T14:12:00Z</time>
      </trkpt>
      <trkpt lat="44.9995" lon="2.90403">
        <ele>1094.2</ele>
        <time>2019-05-12T14:12:02Z</time>
      </trkpt>
      <trkpt lat="44.99953" lon="2.90404">
        <ele>1094.2</ele>
        <time>2019-05-12T14:12:05Z</time>
      </trkpt>
      <trkpt lat="44.99956" lon="2.90405">
        <ele>1094.3</ele>
        <time>2019-05-12T14:12:08Z</time>
      </trkpt>
      <trkpt lat="44.99959" lon="2.90406">
        <ele>1094.4</ele>
        <time>2019-05-12T14:12:11Z</time>
      </trkpt>
      <trkpt lat="44.99962" lon="2.90408">
        <ele>1094.5</ele>
        <time>2019-05-12T14:12:14Z</time>
      </trkpt>
      <trkpt lat="44.99966" lon="2.90408">
        <ele>1094.7</ele>
        <time>2019-05-12T14:12:16Z</time>
      </trkpt>
      <trkpt lat="44.99969" lon="2.90409">
        <ele>1094.8</ele>
        <time>2019-05-12T14:12:19Z</time>
      </trkpt>
      <trkpt lat="44.99971" lon="2.90411">
        <ele>1094.9</ele>
        <time>2019-05-12T14:12:22Z</time>
      </trkpt>
      <trkpt lat="44.99974" lon="2.90413">
        <ele>1094.9</ele>
        <time>2019-05-12T14:12:25Z</time>
      </trkpt>
      <trkpt lat="44.99978" lon="2.90414">
        <ele>1095</ele>
        <time>2019-05-12T14:12:28Z</time>
      </trkpt>
      <trkpt lat="44.99981" lon="2.90416">
        <ele>1095.1</ele>
        <time>2019-05-12T14:12:31Z</time>
      </trkpt>
      <trkpt lat="44.99985" lon="2.90416">
        <ele>1095.2</ele>
        <time>2019-05-12T14:12:34Z</time>
      </trkpt>
      <trkpt lat="44.99988" lon="2.90418">
        <ele>1095.2</ele>
        <time>2019-05-12T14:12:36Z</time>
      </trkpt>
      <trkpt lat="44.99991" lon="2.9042">
        <ele>1095.3</ele>
        <time>2019-05-12T14:12:38Z</time>
      </trkpt>
      <trkpt lat="44.99994" lon="2.90422">
        <ele>1095.3</ele>
        <time>2019-05-12T14:12:41Z</time>
      </trkpt>
      <trkpt lat="44.99998" lon="2.90423">
        <ele>1095.3</ele>
        <time>2019-05-12T14:12:44Z</time>
      </trkpt>
      <trkpt lat="45.00001" lon="2.90423">
        <ele>1095.3</ele>
        <time>2019-05-12T14:12:46Z</time>
      </trkpt>
      <trkpt lat="45.00004" lon="2.90424">
        <ele>1095.4</ele>
        <time>2019-05-12T14:12:48Z</time>
      </trkpt>
      <trkpt lat="45.00008" lon="2.90424">
        <ele>1095.4</ele>
        <time>2019-05-12T14:12:51Z</time>
      </trkpt>
      <trkpt lat="45.00011" lon="2.90424">
        <ele>1095.4</ele>
        <time>2019-05-12T14:12:53Z</time>
      </trkpt>
      <trkpt lat="45.00013" lon="2.90423">
        <ele>1095.4</ele>
        <time>2019-05-12T14:12:55Z</time>
      </trkpt>
      <trkpt lat="45.00017" lon="2.90424">
        <ele>1095.4</ele>
        <time>2019-05-12T14:12:59Z</time>
      </trkpt>
      <trkpt lat="45.00019" lon="2.90423">
        <ele>1095.4</ele>
        <time>2019-05-12T14:13:04Z</time>
      </trkpt>
      <trkpt lat="45.00022" lon="2.90424">
        <ele>1095.3</ele>
        <time>2019-05-12T14:13:07Z</time>
      </trkpt>
      <trkpt lat="45.00025" lon="2.90425">
        <ele>1095.3</ele>
        <time>2019-05-12T14:13:10Z</time>
      </trkpt>
      <trkpt lat="45.00029" lon="2.90425">
        <ele>1095.3</ele>
        <time>2019-05-12T14:13:12Z</time>
      </trkpt>
      <trkpt lat="45.00033" lon="2.90424">
        <ele>1095.3</ele>
        <time>2019-05-12T14:13:14Z</time>
      </trkpt>
      <trkpt lat="45.00036" lon="2.90425">
        <ele>1095.3</ele>
        <time>2019-05-12T14:13:18Z</time>
      </trkpt>
      <trkpt lat="45.00039" lon="2.90424">
        <ele>1095.3</ele>
        <time>2019-05-12T14:13:21Z</time>
      </trkpt>
      <trkpt lat="45.00042" lon="2.90422">
        <ele>1095.4</ele>
        <time>2019-05-12T14:13:25Z</time>
      </trkpt>
      <trkpt lat="45.00045" lon="2.90423">
        <ele>1095.4</ele>
        <time>2019-05-12T14:13:27Z</time>
      </trkpt>
      <trkpt lat="45.00049" lon="2.90423">
        <ele>1095.4</ele>
        <time>2019-05-12T14:13:30Z</time>
      </trkpt>
      <trkpt lat="45.00052" lon="2.90422">
        <ele>1095.4</ele>
        <time>2019-05-12T14:13:32Z</time>
      </trkpt>
      <trkpt lat="45.00055" lon="2.90422">
        <ele>1095.5</ele>
        <time>2019-05-12T14:13:34Z</time>
      </trkpt>
      <trkpt lat="45.00059" lon="2.90421">
        <ele>1095.5</ele>
        <time>2019-05-12T14:13:37Z</time>
      </trkpt>
      <trkpt lat="45.00061" lon="2.9042">
        <ele>1095.5</ele>
        <time>2019-05-12T14:13:40Z</time>
      </trkpt>
      <trkpt lat="45.00065" lon="2.9042">
        <ele>1095.5</ele>
        <time>2019-05-12T14:13:42Z</time>
      </trkpt>
      <trkpt lat="45.00068" lon="2.9042">
        <ele>1095.5</ele>
        <time>2019-05-12T14:13:44Z</time>
      </trkpt>
      <trkpt lat="45.00071" lon="2.9042">
        <ele>1095.5</ele>
        <time>2019-05-12T14:13:46Z</time>
      </trkpt>
      <trkpt lat="45.00075" lon="2.90419">
        <ele>1095.5</ele>
        <time>2019-05-12T14:13:49Z</time>
      </trkpt>
      <trkpt lat="45.00078" lon="2.90418">
        <ele>1095.5</ele>
        <time>2019-05-12T14:13:52Z</time>
      </trkpt>
      <trkpt lat="45.00082" lon="2.90418">
        <ele>1095.5</ele>
        <time>2019-05-12T14:13:56Z</time>
      </trkpt>
      <trkpt lat="45.00084" lon="2.90419">
        <ele>1095.5</ele>
        <time>2019-05-12T14:13:59Z</time>
      </trkpt>
      <trkpt lat="45.00088" lon="2.90418">
        <ele>1095.5</ele>
        <time>2019-05-12T14:14:02Z</time>
      </trkpt>
      <trkpt lat="45.0009" lon="2.90415">
        <ele>1095.4</ele>
        <time>2019-05-12T14:14:04Z</time>
      </trkpt>
      <trkpt lat="45.00093" lon="2.90413">
        <ele>1095.4</ele>
        <time>2019-05-12T14:14:09Z</time>
      </trkpt>
      <trkpt lat="45.00096" lon="2.90414">
        <ele>1095.5</ele>
        <time>2019-05-12T14:14:12Z</time>
      </trkpt>
      <trkpt lat="45.00099" lon="2.90416">
        <ele>1095.6</ele>
        <time>2019-05-12T14:14:16Z</time>
      </trkpt>
      <trkpt lat="45.00102" lon="2.90416">
        <ele>1095.7</ele>
        <time>2019-05-12T14:14:19Z</time>
      </trkpt>
      <trkpt lat="45.00105" lon="2.90416">
        <ele>1095.8</ele>
        <time>2019-05-12T14:14:22Z</time>
      </trkpt>
      <trkpt lat="45.00107" lon="2.9042">
        <ele>1096</ele>
        <time>2019-05-12T14:14:26Z</time>
      </trkpt>
      <trkpt lat="45.0011" lon="2.90422">
        <ele>1096</ele>
        <time>2019-05-12T14:14:29Z</time>
      </trkpt>
      <trkpt lat="45.00114" lon="2.90422">
        <ele>1095.9</ele>
        <time>2019-05-12T14:14:31Z</time>
      </trkpt>
      <trkpt lat="45.00117" lon="2.90423">
        <ele>1095.9</ele>
        <time>2019-05-12T14:14:33Z</time>
      </trkpt>
      <trkpt lat="45.0012" lon="2.90423">
        <ele>1095.8</ele>
        <time>2019-05-12T14:14:35Z</time>
      </trkpt>
      <trkpt lat="45.00123" lon="2.90424">
        <ele>1095.7</ele>
        <time>2019-05-12T14:14:38Z</time>
      </trkpt>
      <trkpt lat="45.00125" lon="2.90427">
        <ele>1095.6</ele>
        <time>2019-05-12T14:14:41Z</time>
      </trkpt>
      <trkpt lat="45.00128" lon="2.90429">
        <ele>1095.6</ele>
        <time>2019-05-12T14:14:43Z</time>
      </trkpt>
      <trkpt lat="45.0013" lon="2.90431">
        <ele>1095.5</ele>
        <time>2019-05-12T14:14:46Z</time>
      </trkpt>
      <trkpt lat="45.00133" lon="2.90432">
        <ele>1095.4</ele>
        <time>2019-05-12T14:14:50Z</time>
      </trkpt>
      <trkpt lat="45.00136" lon="2.90434">
        <ele>1095.3</ele>
        <time>2019-05-12T14:14:53Z</time>
      </trkpt>
      <trkpt lat="45.00139" lon="2.90436">
        <ele>1095.2</ele>
        <time>2019-05-12T14:14:57Z</time>
      </trkpt>
      <trkpt lat="45.00141" lon="2.90439">
        <ele>1095.1</ele>
        <time>2019-05-12T14:15:00Z</time>
      </trkpt>
      <trkpt lat="45.00143" lon="2.90443">
        <ele>1095.1</ele>
        <time>2019-05-12T14:15:04Z</time>
      </trkpt>
      <trkpt lat="45.00145" lon="2.90445">
        <ele>1095</ele>
        <time>2019-05-12T14:15:14Z</time>
      </trkpt>
      <trkpt lat="45.00149" lon="2.90444">
        <ele>1094.9</ele>
        <time>2019-05-12T14:15:22Z</time>
      </trkpt>
      <trkpt lat="45.00152" lon="2.90444">
        <ele>1094.8</ele>
        <time>2019-05-12T14:15:24Z</time>
      </trkpt>
      <trkpt lat="45.00155" lon="2.90446">
        <ele>1094.7</ele>
        <time>2019-05-12T14:15:27Z</time>
      </trkpt>
      <trkpt lat="45.00157" lon="2.9045">
        <ele>1094.6</ele>
        <time>2019-05-12T14:15:30Z</time>
      </trkpt>
      <trkpt lat="45.0016" lon="2.90453">
        <ele>1094.5</ele>
        <time>2019-05-12T14:15:33Z</time>
      </trkpt>
      <trkpt lat="45.00164" lon="2.90455">
        <ele>1094.5</ele>
        <time>2019-05-12T14:15:36Z</time>
      </trkpt>
      <trkpt lat="45.00167" lon="2.90456">
        <ele>1094.6</ele>
        <time>2019-05-12T14:15:39Z</time>
      </trkpt>
      <trkpt lat="45.0017" lon="2.90458">
        <ele>1094.6</ele>
        <time>2019-05-12T14:15:46Z</time>
      </trkpt>
      <trkpt lat="45.00172" lon="2.90461">
        <ele>1094.6</ele>
        <time>2019-05-12T14:15:55Z</time>
      </trkpt>
      <trkpt lat="45.00176" lon="2.90462">
        <ele>1094.7</ele>
        <time>2019-05-12T14:16:02Z</time>
      </trkpt>
      <trkpt lat="45.00177" lon="2.90466">
        <ele>1095</ele>
        <time>2019-05-12T14:16:05Z</time>
      </trkpt>
      <trkpt lat="45.0018" lon="2.90468">
        <ele>1095.3</ele>
        <time>2019-05-12T14:16:08Z</time>
      </trkpt>
      <trkpt lat="45.00182" lon="2.90471">
        <ele>1095.6</ele>
        <time>2019-05-12T14:16:17Z</time>
      </trkpt>
      <trkpt lat="45.00185" lon="2.90471">
        <ele>1095.8</ele>
        <time>2019-05-12T14:16:21Z</time>
      </trkpt>
      <trkpt lat="45.00188" lon="2.90472">
        <ele>1096.1</ele>
        <time>2019-05-12T14:16:24Z</time>
      </trkpt>
      <trkpt lat="45.00191" lon="2.90474">
        <ele>1096.2</ele>
        <time>2019-05-12T14:16:26Z</time>
      </trkpt>
      <trkpt lat="45.00194" lon="2.90475">
        <ele>1096.2</ele>
        <time>2019-05-12T14:16:31Z</time>
      </trkpt>
      <trkpt lat="45.00197" lon="2.90476">
        <ele>1096.2</ele>
        <time>2019-05-12T14:16:35Z</time>
      </trkpt>
      <trkpt lat="45.00199" lon="2.9048">
        <ele>1096.3</ele>
        <time>2019-05-12T14:16:38Z</time>
      </trkpt>
      <trkpt lat="45.00201" lon="2.90482">
        <ele>1096.4</ele>
        <time>2019-05-12T14:16:42Z</time>
      </trkpt>
      <trkpt lat="45.00205" lon="2.90484">
        <ele>1096.6</ele>
        <time>2019-05-12T14:16:44Z</time>
      </trkpt>
      <trkpt lat="45.00209" lon="2.90486">
        <ele>1096.6</ele>
        <time>2019-05-12T14:16:46Z</time>
      </trkpt>
      <trkpt lat="45.00213" lon="2.90488">
        <ele>1096.6</ele>
        <time>2019-05-12T14:16:48Z</time>
      </trkpt>
      <trkpt lat="45.00217" lon="2.9049">
        <ele>1096.5</ele>
        <time>2019-05-12T14:16:50Z</time>
      </trkpt>
      <trkpt lat="45.0022" lon="2.90492">
        <ele>1096.4</ele>
        <time>2019-05-12T14:16:52Z</time>
      </trkpt>
      <trkpt lat="45.00223" lon="2.90494">
        <ele>1096.4</ele>
        <time>2019-05-12T14:16:54Z</time>
      </trkpt>
      <trkpt lat="45.00228" lon="2.90496">
        <ele>1096.5</ele>
        <time>2019-05-12T14:16:56Z</time>
      </trkpt>
      <trkpt lat="45.00231" lon="2.90497">
        <ele>1096.6</ele>
        <time>2019-05-12T14:16:58Z</time>
      </trkpt>
      <trkpt lat="45.00234" lon="2.90499">
        <ele>1096.6</ele>
        <time>2019-05-12T14:17:01Z</time>
      </trkpt>
      <trkpt lat="45.00237" lon="2.90501">
        <ele>1096.7</ele>
        <time>2019-05-12T14:17:04Z</time>
      </trkpt>
      <trkpt lat="45.0024" lon="2.90503">
        <ele>1096.8</ele>
        <time>2019-05-12T14:17:06Z</time>
      </trkpt>
      <trkpt lat="45.00242" lon="2.90505">
        <ele>1096.9</ele>
        <time>2019-05-12T14:17:10Z</time>
      </trkpt>
      <trkpt lat="45.00245" lon="2.90506">
        <ele>1097</ele>
        <time>2019-05-12T14:17:12Z</time>
      </trkpt>
      <trkpt lat="45.00247" lon="2.90509">
        <ele>1097.1</ele>
        <time>2019-05-12T14:17:16Z</time>
      </trkpt>
      <trkpt lat="45.00249" lon="2.90512">
        <ele>1097.2</ele>
        <time>2019-05-12T14:17:20Z</time>
      </trkpt>
      <trkpt lat="45.0025" lon="2.90515">
        <ele>1097.2</ele>
        <time>2019-05-12T14:17:24Z</time>
      </trkpt>
      <trkpt lat="45.00254" lon="2.90517">
        <ele>1097.2</ele>
        <time>2019-05-12T14:17:27Z</time>
      </trkpt>
      <trkpt lat="45.00257" lon="2.90519">
        <ele>1097.3</ele>
        <time>2019-05-12T14:17:30Z</time>
      </trkpt>
      <trkpt lat="45.00259" lon="2.90521">
        <ele>1097.4</ele>
        <time>2019-05-12T14:17:34Z</time>
      </trkpt>
      <trkpt lat="45.0026" lon="2.90525">
        <ele>1097.6</ele>
        <time>2019-05-12T14:17:40Z</time>
      </trkpt>
      <trkpt lat="45.00263" lon="2.90528">
        <ele>1097.8</ele>
        <time>2019-05-12T14:17:43Z</time>
      </trkpt>
      <trkpt lat="45.00266" lon="2.9053">
        <ele>1098.1</ele>
        <time>2019-05-12T14:17:46Z</time>
      </trkpt>
      <trkpt lat="45.00269" lon="2.90531">
        <ele>1098.4</ele>
        <time>2019-05-12T14:17:49Z</time>
      </trkpt>
      <trkpt lat="45.00271" lon="2.90532">
        <ele>1098.4</ele>
        <time>2019-05-12T14:17:59Z</time>
      </trkpt>
      <trkpt lat="45.00274" lon="2.90533">
        <ele>1098.4</ele>
        <time>2019-05-12T14:18:24Z</time>
      </trkpt>
      <trkpt lat="45.00277" lon="2.90534">
        <ele>1098.3</ele>
        <time>2019-05-12T14:18:31Z</time>
      </trkpt>
      <trkpt lat="45.0028" lon="2.90536">
        <ele>1098.3</ele>
        <time>2019-05-12T14:18:37Z</time>
      </trkpt>
      <trkpt lat="45.00282" lon="2.90538">
        <ele>1098.2</ele>
        <time>2019-05-12T14:18:41Z</time>
      </trkpt>
      <trkpt lat="45.00284" lon="2.9054">
        <ele>1098.2</ele>
        <time>2019-05-12T14:18:58Z</time>
      </trkpt>
      <trkpt lat="45.00287" lon="2.90543">
        <ele>1098.2</ele>
        <time>2019-05-12T14:19:02Z</time>
      </trkpt>
      <trkpt lat="45.0029" lon="2.90545">
        <ele>1098.3</ele>
        <time>2019-05-12T14:19:06Z</time>
      </trkpt>
      <trkpt lat="45.00293" lon="2.90546">
        <ele>1098.2</ele>
        <time>2019-05-12T14:19:11Z</time>
      </trkpt>
      <trkpt lat="45.00295" lon="2.90548">
        <ele>1098</ele>
        <time>2019-05-12T14:19:15Z</time>
      </trkpt>
      <trkpt lat="45.00298" lon="2.90551">
        <ele>1097.7</ele>
        <time>2019-05-12T14:19:20Z</time>
      </trkpt>
      <trkpt lat="45.00301" lon="2.90553">
        <ele>1097.5</ele>
        <time>2019-05-12T14:19:23Z</time>
      </trkpt>
      <trkpt lat="45.00304" lon="2.90554">
        <ele>1097.3</ele>
        <time>2019-05-12T14:19:28Z</time>
      </trkpt>
      <trkpt lat="45.00306" lon="2.90556">
        <ele>1097.2</ele>
        <time>2019-05-12T14:19:31Z</time>
      </trkpt>
      <trkpt lat="45.0031" lon="2.90559">
        <ele>1096.9</ele>
        <time>2019-05-12T14:19:35Z</time>
      </trkpt>
      <trkpt lat="45.00313" lon="2.90561">
        <ele>1096.6</ele>
        <time>2019-05-12T14:19:38Z</time>
      </trkpt>
      <trkpt lat="45.00316" lon="2.90563">
        <ele>1096.6</ele>
        <time>2019-05-12T14:19:40Z</time>
      </trkpt>
      <trkpt lat="45.00319" lon="2.90564">
        <ele>1096.6</ele>
        <time>2019-05-12T14:19:42Z</time>
      </trkpt>
      <trkpt lat="45.00322" lon="2.90566">
        <ele>1096.7</ele>
        <time>2019-05-12T14:19:46Z</time>
      </trkpt>
      <trkpt lat="45.00325" lon="2.90568">
        <ele>1096.5</ele>
        <time>2019-05-12T14:19:49Z</time>
      </trkpt>
      <trkpt lat="45.00328" lon="2.90569">
        <ele>1096.3</ele>
        <time>2019-05-12T14:19:54Z</time>
      </trkpt>
      <trkpt lat="45.00332" lon="2.9057">
        <ele>1096.4</ele>
        <time>2019-05-12T14:19:57Z</time>
      </trkpt>
      <trkpt lat="45.00335" lon="2.90571">
        <ele>1096.6</ele>
        <time>2019-05-12T14:20:03Z</time>
      </trkpt>
      <trkpt lat="45.00339" lon="2.90571">
        <ele>1096.7</ele>
        <time>2019-05-12T14:20:06Z</time>
      </trkpt>
      <trkpt lat="45.00342" lon="2.90571">
        <ele>1096.7</ele>
        <time>2019-05-12T14:20:08Z</time>
      </trkpt>
      <trkpt lat="45.00346" lon="2.90571">
        <ele>1096.7</ele>
        <time>2019-05-12T14:20:10Z</time>
      </trkpt>
      <trkpt lat="45.00349" lon="2.90571">
        <ele>1096.8</ele>
        <time>2019-05-12T14:20:13Z</time>
      </trkpt>
      <trkpt lat="45.00353" lon="2.9057">
        <ele>1097</ele>
        <time>2019-05-12T14:20:16Z</time>
      </trkpt>
      <trkpt lat="45.00356" lon="2.90569">
        <ele>1097.2</ele>
        <time>2019-05-12T14:20:18Z</time>
      </trkpt>
      <trkpt lat="45.00358" lon="2.90568">
        <ele>1097.5</ele>
        <time>2019-05-12T14:20:19Z</time>
      </trkpt>
      <trkpt lat="45.00361" lon="2.90566">
        <ele>1097.8</ele>
        <time>2019-05-12T14:20:22Z</time>
      </trkpt>
      <trkpt lat="45.00364" lon="2.90567">
        <ele>1098</ele>
        <time>2019-05-12T14:20:24Z</time>
      </trkpt>
      <trkpt lat="45.00367" lon="2.90567">
        <ele>1098.2</ele>
        <time>2019-05-12T14:20:26Z</time>
      </trkpt>
      <trkpt lat="45.0037" lon="2.90566">
        <ele>1098.3</ele>
        <time>2019-05-12T14:20:28Z</time>
      </trkpt>
      <trkpt lat="45.00378" lon="2.90568">
        <ele>1098.8</ele>
        <time>2019-05-12T14:20:31Z</time>
      </trkpt>
      <trkpt lat="45.00381" lon="2.90569">
        <ele>1099</ele>
        <time>2019-05-12T14:20:36Z</time>
      </trkpt>
      <trkpt lat="45.00385" lon="2.90569">
        <ele>1099.2</ele>
        <time>2019-05-12T14:20:38Z</time>
      </trkpt>
      <trkpt lat="45.00387" lon="2.90569">
        <ele>1099.3</ele>
        <time>2019-05-12T14:20:42Z</time>
      </trkpt>
      <trkpt lat="45.00391" lon="2.9057">
        <ele>1099.6</ele>
        <time>2019-05-12T14:20:45Z</time>
      </trkpt>
      <trkpt lat="45.00395" lon="2.90571">
        <ele>1099.8</ele>
        <time>2019-05-12T14:20:47Z</time>
      </trkpt>
      <trkpt lat="45.00399" lon="2.90573">
        <ele>1100</ele>
        <time>2019-05-12T14:20:50Z</time>
      </trkpt>
      <trkpt lat="45.00402" lon="2.90573">
        <ele>1100.2</ele>
        <time>2019-05-12T14:20:53Z</time>
      </trkpt>
      <trkpt lat="45.00404" lon="2.90575">
        <ele>1100.4</ele>
        <time>2019-05-12T14:21:00Z</time>
      </trkpt>
      <trkpt lat="45.00407" lon="2.90576">
        <ele>1100.6</ele>
        <time>2019-05-12T14:21:03Z</time>
      </trkpt>
      <trkpt lat="45.00411" lon="2.90576">
        <ele>1100.7</ele>
        <time>2019-05-12T14:21:07Z</time>
      </trkpt>
      <trkpt lat="45.00415" lon="2.90576">
        <ele>1100.8</ele>
        <time>2019-05-12T14:21:10Z</time>
      </trkpt>
      <trkpt lat="45.00418" lon="2.90577">
        <ele>1100.8</ele>
        <time>2019-05-12T14:21:12Z</time>
      </trkpt>
      <trkpt lat="45.0042" lon="2.90578">
        <ele>1100.9</ele>
        <time>2019-05-12T14:21:14Z</time>
      </trkpt>
      <trkpt lat="45.00424" lon="2.90579">
        <ele>1100.9</ele>
        <time>2019-05-12T14:21:17Z</time>
      </trkpt>
      <trkpt lat="45.00427" lon="2.90578">
        <ele>1101</ele>
        <time>2019-05-12T14:21:20Z</time>
      </trkpt>
      <trkpt lat="45.00431" lon="2.90579">
        <ele>1101.1</ele>
        <time>2019-05-12T14:21:23Z</time>
      </trkpt>
      <trkpt lat="45.00434" lon="2.90581">
        <ele>1101.2</ele>
        <time>2019-05-12T14:21:26Z</time>
      </trkpt>
      <trkpt lat="45.00437" lon="2.90582">
        <ele>1101.2</ele>
        <time>2019-05-12T14:21:28Z</time>
      </trkpt>
      <trkpt lat="45.0044" lon="2.90581">
        <ele>1101.3</ele>
        <time>2019-05-12T14:21:31Z</time>
      </trkpt>
      <trkpt lat="45.00443" lon="2.9058">
        <ele>1101.3</ele>
        <time>2019-05-12T14:21:34Z</time>
      </trkpt>
      <trkpt lat="45.00446" lon="2.90579">
        <ele>1101.6</ele>
        <time>2019-05-12T14:21:37Z</time>
      </trkpt>
      <trkpt lat="45.0045" lon="2.90576">
        <ele>1101.9</ele>
        <time>2019-05-12T14:21:40Z</time>
      </trkpt>
      <trkpt lat="45.0045" lon="2.90572">
        <ele>1102.2</ele>
        <time>2019-05-12T14:21:44Z</time>
      </trkpt>
      <trkpt lat="45.00452" lon="2.9057">
        <ele>1102.5</ele>
        <time>2019-05-12T14:21:47Z</time>
      </trkpt>
      <trkpt lat="45.00455" lon="2.90567">
        <ele>1102.7</ele>
        <time>2019-05-12T14:21:51Z</time>
      </trkpt>
      <trkpt lat="45.00456" lon="2.90563">
        <ele>1102.9</ele>
        <time>2019-05-12T14:21:54Z</time>
      </trkpt>
      <trkpt lat="45.00457" lon="2.90559">
        <ele>1103.2</ele>
        <time>2019-05-12T14:21:57Z</time>
      </trkpt>
      <trkpt lat="45.00458" lon="2.90555">
        <ele>1103.4</ele>
        <time>2019-05-12T14:22:00Z</time>
      </trkpt>
      <trkpt lat="45.0046" lon="2.90552">
        <ele>1103.7</ele>
        <time>2019-05-12T14:22:03Z</time>
      </trkpt>
      <trkpt lat="45.00462" lon="2.90548">
        <ele>1104</ele>
        <time>2019-05-12T14:22:06Z</time>
      </trkpt>
      <trkpt lat="45.00464" lon="2.90546">
        <ele>1104.2</ele>
        <time>2019-05-12T14:22:09Z</time>
      </trkpt>
      <trkpt lat="45.00467" lon="2.90542">
        <ele>1104.5</ele>
        <time>2019-05-12T14:22:12Z</time>
      </trkpt>
      <trkpt lat="45.00469" lon="2.90537">
        <ele>1104.8</ele>
        <time>2019-05-12T14:22:15Z</time>
      </trkpt>
      <trkpt lat="45.00472" lon="2.90534">
        <ele>1105</ele>
        <time>2019-05-12T14:22:18Z</time>
      </trkpt>
      <trkpt lat="45.00474" lon="2.90531">
        <ele>1105.3</ele>
        <time>2019-05-12T14:22:20Z</time>
      </trkpt>
      <trkpt lat="45.00477" lon="2.90529">
        <ele>1105.5</ele>
        <time>2019-05-12T14:22:22Z</time>
      </trkpt>
      <trkpt lat="45.00479" lon="2.90525">
        <ele>1105.8</ele>
        <time>2019-05-12T14:22:25Z</time>
      </trkpt>
      <trkpt lat="45.00482" lon="2.90524">
        <ele>1106.1</ele>
        <time>2019-05-12T14:22:27Z</time>
      </trkpt>
      <trkpt lat="45.00485" lon="2.90522">
        <ele>1106.3</ele>
        <time>2019-05-12T14:22:29Z</time>
      </trkpt>
      <trkpt lat="45.00488" lon="2.90521">
        <ele>1106.6</ele>
        <time>2019-05-12T14:22:32Z</time>
      </trkpt>
      <trkpt lat="45.00492" lon="2.9052">
        <ele>1106.9</ele>
        <time>2019-05-12T14:22:35Z</time>
      </trkpt>
      <trkpt lat="45.00496" lon="2.90519">
        <ele>1107.2</ele>
        <time>2019-05-12T14:22:39Z</time>
      </trkpt>
      <trkpt lat="45.00499" lon="2.9052">
        <ele>1107.5</ele>
        <time>2019-05-12T14:22:42Z</time>
      </trkpt>
      <trkpt lat="45.00502" lon="2.90519">
        <ele>1107.7</ele>
        <time>2019-05-12T14:22:45Z</time>
      </trkpt>
      <trkpt lat="45.00504" lon="2.90521">
        <ele>1108</ele>
        <time>2019-05-12T14:22:47Z</time>
      </trkpt>
      <trkpt lat="45.00508" lon="2.90519">
        <ele>1108.3</ele>
        <time>2019-05-12T14:22:49Z</time>
      </trkpt>
      <trkpt lat="45.00511" lon="2.90517">
        <ele>1108.6</ele>
        <time>2019-05-12T14:22:52Z</time>
      </trkpt>
      <trkpt lat="45.00514" lon="2.90515">
        <ele>1108.8</ele>
        <time>2019-05-12T14:22:54Z</time>
      </trkpt>
      <trkpt lat="45.00517" lon="2.90515">
        <ele>1108.9</ele>
        <time>2019-05-12T14:22:57Z</time>
      </trkpt>
      <trkpt lat="45.0052" lon="2.90515">
        <ele>1109.1</ele>
        <time>2019-05-12T14:23:00Z</time>
      </trkpt>
      <trkpt lat="45.00524" lon="2.90512">
        <ele>1109.3</ele>
        <time>2019-05-12T14:23:03Z</time>
      </trkpt>
      <trkpt lat="45.00527" lon="2.90511">
        <ele>1109.5</ele>
        <time>2019-05-12T14:23:06Z</time>
      </trkpt>
      <trkpt lat="45.00531" lon="2.90512">
        <ele>1109.6</ele>
        <time>2019-05-12T14:23:09Z</time>
      </trkpt>
      <trkpt lat="45.00534" lon="2.9051">
        <ele>1109.8</ele>
        <time>2019-05-12T14:23:14Z</time>
      </trkpt>
      <trkpt lat="45.00537" lon="2.90511">
        <ele>1110</ele>
        <time>2019-05-12T14:23:16Z</time>
      </trkpt>
      <trkpt lat="45.00541" lon="2.9051">
        <ele>1110.2</ele>
        <time>2019-05-12T14:23:19Z</time>
      </trkpt>
      <trkpt lat="45.00545" lon="2.90509">
        <ele>1110.3</ele>
        <time>2019-05-12T14:23:21Z</time>
      </trkpt>
      <trkpt lat="45.00547" lon="2.90508">
        <ele>1110.5</ele>
        <time>2019-05-12T14:23:23Z</time>
      </trkpt>
      <trkpt lat="45.0055" lon="2.90509">
        <ele>1110.6</ele>
        <time>2019-05-12T14:23:25Z</time>
      </trkpt>
      <trkpt lat="45.00554" lon="2.90509">
        <ele>1110.8</ele>
        <time>2019-05-12T14:23:27Z</time>
      </trkpt>
      <trkpt lat="45.00557" lon="2.9051">
        <ele>1110.9</ele>
        <time>2019-05-12T14:23:29Z</time>
      </trkpt>
      <trkpt lat="45.00561" lon="2.90511">
        <ele>1111.1</ele>
        <time>2019-05-12T14:23:33Z</time>
      </trkpt>
      <trkpt lat="45.00564" lon="2.90511">
        <ele>1111.3</ele>
        <time>2019-05-12T14:23:36Z</time>
      </trkpt>
      <trkpt lat="45.00567" lon="2.90509">
        <ele>1111.4</ele>
        <time>2019-05-12T14:23:39Z</time>
      </trkpt>
      <trkpt lat="45.0057" lon="2.90508">
        <ele>1111.6</ele>
        <time>2019-05-12T14:23:42Z</time>
      </trkpt>
      <trkpt lat="45.00574" lon="2.90507">
        <ele>1111.8</ele>
        <time>2019-05-12T14:23:45Z</time>
      </trkpt>
      <trkpt lat="45.00577" lon="2.90507">
        <ele>1112</ele>
        <time>2019-05-12T14:23:49Z</time>
      </trkpt>
      <trkpt lat="45.00581" lon="2.90505">
        <ele>1112.2</ele>
        <time>2019-05-12T14:23:52Z</time>
      </trkpt>
      <trkpt lat="45.00584" lon="2.90504">
        <ele>1112.4</ele>
        <time>2019-05-12T14:23:54Z</time>
      </trkpt>
      <trkpt lat="45.00586" lon="2.90503">
        <ele>1112.7</ele>
        <time>2019-05-12T14:23:57Z</time>
      </trkpt>
      <trkpt lat="45.0059" lon="2.90502">
        <ele>1113</ele>
        <time>2019-05-12T14:24:00Z</time>
      </trkpt>
      <trkpt lat="45.00592" lon="2.905">
        <ele>1113.3</ele>
        <time>2019-05-12T14:24:02Z</time>
      </trkpt>
      <trkpt lat="45.00595" lon="2.90498">
        <ele>1113.5</ele>
        <time>2019-05-12T14:24:05Z</time>
      </trkpt>
      <trkpt lat="45.00597" lon="2.90495">
        <ele>1113.8</ele>
        <time>2019-05-12T14:24:08Z</time>
      </trkpt>
      <trkpt lat="45.00601" lon="2.90493">
        <ele>1114.1</ele>
        <time>2019-05-12T14:24:11Z</time>
      </trkpt>
      <trkpt lat="45.00604" lon="2.90492">
        <ele>1114.3</ele>
        <time>2019-05-12T14:24:15Z</time>
      </trkpt>
      <trkpt lat="45.00607" lon="2.90492">
        <ele>1114.5</ele>
        <time>2019-05-12T14:24:18Z</time>
      </trkpt>
      <trkpt lat="45.0061" lon="2.90492">
        <ele>1114.8</ele>
        <time>2019-05-12T14:24:21Z</time>
      </trkpt>
      <trkpt lat="45.00613" lon="2.9049">
        <ele>1115</ele>
        <time>2019-05-12T14:24:24Z</time>
      </trkpt>
      <trkpt lat="45.00616" lon="2.90489">
        <ele>1115.3</ele>
        <time>2019-05-12T14:24:27Z</time>
      </trkpt>
      <trkpt lat="45.00619" lon="2.90487">
        <ele>1115.4</ele>
        <time>2019-05-12T14:24:30Z</time>
      </trkpt>
      <trkpt lat="45.00623" lon="2.90486">
        <ele>1115.5</ele>
        <time>2019-05-12T14:24:32Z</time>
      </trkpt>
      <trkpt lat="45.00627" lon="2.90486">
        <ele>1115.6</ele>
        <time>2019-05-12T14:24:34Z</time>
      </trkpt>
      <trkpt lat="45.0063" lon="2.90487">
        <ele>1115.7</ele>
        <time>2019-05-12T14:24:36Z</time>
      </trkpt>
      <trkpt lat="45.00633" lon="2.90488">
        <ele>1115.8</ele>
        <time>2019-05-12T14:24:38Z</time>
      </trkpt>
      <trkpt lat="45.00636" lon="2.9049">
        <ele>1115.9</ele>
        <time>2019-05-12T14:24:40Z</time>
      </trkpt>
      <trkpt lat="45.00639" lon="2.90494">
        <ele>1116</ele>
        <time>2019-05-12T14:24:42Z</time>
      </trkpt>
      <trkpt lat="45.00642" lon="2.90496">
        <ele>1116</ele>
        <time>2019-05-12T14:24:44Z</time>
      </trkpt>
      <trkpt lat="45.00645" lon="2.90499">
        <ele>1116.1</ele>
        <time>2019-05-12T14:24:47Z</time>
      </trkpt>
      <trkpt lat="45.00649" lon="2.90502">
        <ele>1116.2</ele>
        <time>2019-05-12T14:24:50Z</time>
      </trkpt>
      <trkpt lat="45.00652" lon="2.90502">
        <ele>1116.3</ele>
        <time>2019-05-12T14:24:53Z</time>
      </trkpt>
      <trkpt lat="45.00656" lon="2.90503">
        <ele>1116.4</ele>
        <time>2019-05-12T14:24:56Z</time>
      </trkpt>
      <trkpt lat="45.00659" lon="2.90503">
        <ele>1116.5</ele>
        <time>2019-05-12T14:24:59Z</time>
      </trkpt>
      <trkpt lat="45.00662" lon="2.90505">
        <ele>1116.7</ele>
        <time>2019-05-12T14:25:03Z</time>
      </trkpt>
      <trkpt lat="45.00666" lon="2.90505">
        <ele>1116.9</ele>
        <time>2019-05-12T14:25:07Z</time>
      </trkpt>
      <trkpt lat="45.00668" lon="2.90503">
        <ele>1117.1</ele>
        <time>2019-05-12T14:25:10Z</time>
      </trkpt>
      <trkpt lat="45.00671" lon="2.90502">
        <ele>1117.3</ele>
        <time>2019-05-12T14:25:13Z</time>
      </trkpt>
    </trkseg>
  </trk>
</gpx>